[[[{"header":{"parameterUnit":"kt","parameterCategory":2,"dx":1,"dy":1,"la1":29.285339999999998,"la2":30.599998999999997,"lo1":-89.70041500000002,"lo2":-87.6738589999976,"nx":112,"ny":82,"refTime":"2022-10-02T18:00:00:Z","depth":0,"parameterNumber":1,"parameterNumberName":"U-component_of_WINDS"},"data":[10.6558,10.8353,10.8428,9.8632,9.7809,9.6837,8.7041,8.8612,9.1229,8.7939,9.0556,0.0,0.0,0.0,0.0,0.0,0.0,0.0,0.0,7.231,0.0,0.0,0.0,0.0,0.0,0.0,0.0,10.9791,10.9346,11.2783,12.2102,12.6707,12.9861,13.1502,13.407,13.6211,13.7781,13.8313,13.9097,14.0135,14.0635,14.092,14.092,14.092,14.092,14.092,14.092,14.092,14.092,14.092,14.092,14.092,14.092,14.092,14.092,14.092,14.1277,14.1889,14.296,14.4959,14.6842,14.5844,14.7342,14.9126,14.7556,14.8198,14.934,14.8769,14.7913,14.7128,14.7128,14.7128,14.7128,14.7128,14.7913,14.8341,14.7342,14.7128,14.7128,14.7128,14.7082,14.7652,14.9197,14.9483,14.9625,15.0196,15.0267,15.0267,15.0267,15.0267,15.0267,15.0267,15.0267,15.0267,15.0267,15.0267,15.0505,15.0942,15.2459,15.3676,15.4561,15.612,15.717,15.7631,15.7631,15.7631,15.7631,15.7631,15.7631,15.7631,15.7631,15.7631,10.1698,10.4091,10.4689,9.3098,9.2724,9.2575,8.2629,8.42,8.7041,8.4349,0.0,0.0,0.0,0.0,0.0,0.0,0.0,0.0,0.0,0.0,0.0,0.0,0.0,0.0,0.0,0.0,10.6526,11.2238,11.3688,11.7615,12.4866,12.9789,13.2857,13.3928,13.5889,13.7742,13.9422,13.9382,13.9881,14.092,14.092,14.092,14.092,14.092,14.092,14.092,14.092,14.092,14.092,14.092,14.092,14.092,14.092,14.092,14.092,14.092,14.1277,14.1919,14.3489,14.6058,14.8555,14.7556,14.8626,15.0125,14.9054,14.9483,15.0267,15.0267,14.9554,14.8769,14.8769,14.8769,14.8769,14.8769,14.9554,14.9982,14.8983,14.8769,14.8769,14.8769,14.8722,14.8959,15.0005,15.0267,15.0267,15.0267,15.0267,15.0267,15.0267,15.0267,15.0267,15.0267,15.0267,15.0267,15.0267,15.0267,15.0267,15.0267,15.1724,15.2889,15.3374,15.5364,15.6621,15.6965,15.7434,15.7631,15.7631,15.7631,15.7631,15.7631,15.7631,15.7631,9.7959,9.8183,9.8034,8.6742,8.6368,8.6966,8.0461,8.2555,8.5546,0.0,0.0,0.0,0.0,0.0,0.0,0.0,0.0,0.0,0.0,0.0,0.0,0.0,0.0,0.0,11.254,10.6172,10.6814,11.9087,11.4377,11.7017,13.0931,13.3214,13.5498,13.8566,13.8629,13.9342,14.092,14.092,14.092,14.092,14.092,14.092,14.092,14.092,14.092,14.092,14.092,14.092,14.092,14.092,14.092,14.092,14.092,14.0992,14.0992,14.1063,14.1991,14.3489,14.5102,14.7673,15.0267,15.0267,15.0267,15.0267,15.0267,15.0267,15.0267,15.0267,15.0267,15.0267,15.0267,15.0267,15.0267,15.0267,15.0267,15.0267,15.0267,15.0267,15.0267,15.0267,15.0267,15.0267,15.0267,15.0267,15.0267,15.0267,15.0267,15.0267,15.0267,15.0267,15.0267,15.0267,15.0267,15.0267,15.0267,15.0267,15.0267,15.0267,15.0267,15.0827,15.2115,15.3374,15.4476,15.575,15.6965,15.7631,15.7631,15.7631,15.7631,15.7631,15.7631,15.7631,9.1902,9.3921,9.5715,8.8985,8.8911,8.9359,8.5022,8.3302,0.0,0.0,8.6518,0.0,0.0,0.0,0.0,0.0,0.0,9.0737,0.0,9.2582,0.0,0.0,0.0,11.1643,11.7231,11.6875,11.9229,12.615,12.401,12.558,13.2929,13.5889,13.7703,13.8558,13.9739,14.0452,14.092,14.092,14.092,14.092,14.092,14.092,14.092,14.092,14.092,14.092,14.092,14.092,14.092,14.092,14.092,14.092,14.092,14.1634,14.2775,14.3917,14.3846,14.3632,14.6343,14.7841,14.8769,14.9911,15.0267,15.0267,15.0267,15.0267,15.0267,15.0267,15.0267,15.0267,15.0267,15.0267,15.0267,15.0267,15.0267,15.0267,15.0267,15.0267,15.0267,15.0267,15.0267,15.0267,15.0267,15.0267,15.0267,15.0267,15.0267,15.0267,15.0267,15.0267,15.0267,15.0267,15.0267,15.0267,15.0267,15.0267,15.0267,15.0267,15.1169,15.1796,15.222,15.3374,15.4476,15.575,15.6047,15.669,15.7631,15.7631,15.7631,15.7631,15.7631,15.7631,0.0,0.0,0.0,0.0,0.0,0.0,8.4424,0.0,8.3901,8.6144,0.0,0.0,0.0,0.0,0.0,0.0,9.5676,9.8073,9.3641,10.0882,10.8333,11.2843,11.6875,12.0442,12.3439,12.3938,12.6364,13.1787,12.9575,13.0289,13.5603,13.8241,13.9484,13.9484,14.038,14.092,14.092,14.092,14.092,14.092,14.092,14.092,14.092,14.092,14.092,14.092,14.092,14.092,14.092,14.092,14.1277,14.196,14.2633,14.3418,14.4345,14.5273,14.5415,14.5487,14.7271,14.8341,14.9054,14.9982,15.0267,15.0267,15.0267,15.0267,15.0267,15.0267,15.0267,15.0267,15.0267,15.0267,15.0267,15.0267,15.0267,15.0267,15.0267,15.0267,15.0267,15.0267,15.0267,15.0267,15.0267,15.0267,15.0267,15.0267,15.0267,15.0267,15.0267,15.0267,15.0267,15.0267,15.0267,15.0267,15.0267,15.0267,15.0267,15.0267,15.0942,15.1321,15.1321,15.2561,15.349,15.4216,15.5211,15.612,15.6824,15.7371,15.7631,15.7631,15.7631,15.7631,0.0,0.0,0.0,0.0,8.8013,0.0,0.0,0.0,8.6443,8.6518,0.0,8.9101,9.2615,0.0,0.0,9.287,10.1299,10.6031,10.0156,10.8029,11.5703,11.9109,12.7007,13.1573,13.0217,12.879,13.036,13.614,13.2857,13.2966,13.8558,14.0166,14.092,14.092,14.092,14.092,14.092,14.092,14.092,14.092,14.092,14.092,14.092,14.092,14.1063,14.1206,14.1206,14.1277,14.1491,14.1491,14.2317,14.3715,14.5201,14.5915,14.5915,14.6058,14.6914,14.7984,14.8127,14.9126,15.0267,15.0267,15.0267,15.0267,15.0267,15.0267,15.0267,15.0267,15.0267,15.0267,15.0267,15.0267,15.0267,15.0267,15.0267,15.0267,15.0267,15.0267,15.0267,15.0267,15.0267,15.0267,15.0267,15.0267,15.0267,15.0267,15.0267,15.0267,15.0267,15.0267,15.0267,15.0267,15.0267,15.0267,15.0267,15.0267,15.0267,15.0267,15.0267,15.0267,15.0267,15.1321,15.2009,15.222,15.4216,15.5447,15.575,15.6899,15.757,15.7631,15.7631,15.7631,0.0,0.0,0.0,0.0,0.0,8.3153,0.0,0.0,0.0,10.1399,10.1698,10.1239,10.5046,10.4845,10.51,10.7889,11.2701,11.5367,11.3031,12.3558,13.1781,13.2501,13.4213,13.5212,13.4927,13.4641,13.5461,13.7917,13.8455,13.9208,14.0492,14.0778,14.092,14.092,14.092,14.092,14.092,14.092,14.092,14.092,14.092,14.092,14.092,14.092,14.1634,14.2775,14.2775,14.356,14.4702,14.4702,14.4845,14.5273,14.6842,14.7485,14.7627,14.8912,14.8769,14.8127,14.9411,15.0053,15.0267,15.0267,15.0267,15.0267,15.0267,15.0267,15.0267,15.0267,15.0267,15.0267,15.0267,15.0267,15.0267,15.0267,15.0267,15.0267,15.0267,15.0267,15.0267,15.0267,15.0267,15.0267,15.0267,15.0267,15.0267,15.0267,15.0267,15.0267,15.0267,15.0267,15.0267,15.0267,15.0267,15.0267,15.0267,15.0267,15.0267,15.0267,15.0267,15.0267,15.0267,15.0505,15.1169,15.222,15.2662,15.3767,15.575,15.5899,15.6621,15.7631,15.7631,15.7631,0.0,0.0,0.0,8.1464,0.0,0.0,0.0,8.8013,9.1677,10.2371,10.2903,10.3461,11.0422,11.1237,11.1711,11.4083,11.9405,12.4032,12.6094,13.2027,13.6282,13.6282,13.6996,13.7424,13.7424,13.8138,13.8994,13.9739,14.0452,14.092,14.092,14.092,14.092,14.092,14.1746,14.2103,14.2103,14.2847,14.3275,14.3317,14.3317,14.3204,14.3275,14.3275,14.3703,14.4417,14.4417,14.4916,14.563,14.563,14.6557,14.8055,14.884,14.9126,14.9197,14.9982,14.9768,14.9197,15.0053,15.0267,15.0267,15.0267,15.0267,15.0267,15.0267,15.0267,15.0267,15.0267,15.0267,15.0267,15.0267,15.0267,15.0267,15.0267,15.0267,15.0267,15.0267,15.0267,15.0267,15.0267,15.0267,15.0267,15.0267,15.0267,15.0267,15.0267,15.0267,15.0267,15.0267,15.0267,15.0267,15.0267,15.0267,15.0267,15.0267,15.0267,15.0267,15.0267,15.0267,15.0267,15.0267,15.0267,15.0622,15.1281,15.2459,15.3949,15.575,15.575,15.6408,15.7631,15.7631,15.7631,0.0,0.0,0.0,0.0,0.0,0.0,8.5471,8.8911,9.422,10.3717,10.5414,10.7613,11.5683,11.7937,11.8662,11.9214,12.5168,13.1508,13.6462,13.7139,13.7139,13.7139,13.828,13.9065,13.9065,14.0207,14.092,14.092,14.092,14.092,14.092,14.092,14.1063,14.142,14.2531,14.343,14.3745,14.4987,14.563,14.5602,14.5602,14.5602,14.563,14.563,14.5772,14.6058,14.6058,14.6272,14.6557,14.6557,14.7984,15.0267,15.0267,15.0267,15.0267,15.0267,15.0267,15.0267,15.0267,15.0267,15.0267,15.0267,15.0267,15.0267,15.0267,15.0267,15.0267,15.0267,15.0267,15.0267,15.0267,15.0267,15.0267,15.0267,15.0267,15.0267,15.0267,15.0267,15.0267,15.0267,15.0267,15.0267,15.0267,15.0267,15.0267,15.0267,15.0267,15.0267,15.0267,15.0267,15.0267,15.0267,15.0267,15.0267,15.0267,15.0267,15.0267,15.0267,15.0267,15.0267,15.0267,15.0267,15.0267,15.0267,15.218,15.3949,15.5369,15.5524,15.6408,15.7631,15.7631,15.7631,0.0,0.0,0.0,0.0,8.0171,0.0,9.923,10.2445,10.581,11.9943,12.4334,12.6155,12.7839,12.9685,13.0709,13.0053,13.2996,13.6533,13.9921,14.0421,14.0421,14.0421,14.0564,14.0706,14.0706,14.0849,14.092,14.092,14.092,14.092,14.092,14.092,14.1634,14.2947,14.3174,14.3917,14.5375,14.5539,14.5539,14.5656,14.563,14.563,14.563,14.563,14.6343,14.7699,14.7699,14.8484,14.9768,14.9768,14.9982,15.0267,15.0267,15.0267,15.0267,15.0267,15.0267,15.0267,15.0267,15.0267,15.0267,15.0267,15.0267,15.0267,15.0267,15.0267,15.0267,15.0267,15.0267,15.0267,15.0267,15.0267,15.0267,15.0267,15.0267,15.0267,15.0267,15.0267,15.0267,15.0267,15.0267,15.0267,15.0267,15.0267,15.0267,15.0267,15.0267,15.0267,15.0267,15.0267,15.0267,15.0267,15.0267,15.0267,15.0267,15.0267,15.0267,15.0267,15.0267,15.0267,15.0267,15.0267,15.0267,15.0267,15.0551,15.1831,15.4127,15.5211,15.6408,15.7631,15.7631,15.7631,0.0,0.0,7.3909,7.8391,0.0,0.0,9.8632,10.3343,10.8599,12.1932,12.4961,12.6812,13.2164,13.3403,13.3981,13.5462,13.7567,13.9422,14.0778,14.092,14.092,14.092,14.092,14.092,14.092,14.092,14.092,14.092,14.092,14.092,14.092,14.1848,14.2561,14.3245,14.5059,14.6252,14.6939,14.7819,14.8294,14.8294,14.8341,14.8341,14.8341,14.8341,14.8698,14.934,14.934,14.9697,15.0267,15.0267,15.0267,15.0267,15.0267,15.0267,15.0267,15.0267,15.0267,15.0267,15.0267,15.0267,15.0267,15.0267,15.0267,15.0267,15.0267,15.0267,15.0267,15.0267,15.0267,15.0267,15.0267,15.0267,15.0267,15.0267,15.0267,15.0267,15.0267,15.0267,15.0267,15.0267,15.0267,15.0267,15.0267,15.0267,15.0267,15.0267,15.0267,15.0267,15.0267,15.0267,15.0267,15.0267,15.0267,15.0267,15.0267,15.0267,15.0267,15.0267,15.0267,15.0267,15.0267,15.0267,15.0267,15.0267,15.0942,15.2252,15.3949,15.4476,15.5674,15.7631,15.7631,15.7631,6.1737,0.0,0.0,0.0,0.0,0.0,10.2146,10.6582,11.1485,12.2984,12.4677,12.6324,13.3483,13.4715,13.5498,13.8209,13.9565,14.0492,14.0849,14.092,14.092,14.092,14.092,14.092,14.092,14.092,14.092,14.092,14.092,14.092,14.092,14.1949,14.2989,14.393,14.6512,14.8104,14.8603,14.9649,15.0267,15.0267,15.0267,15.0267,15.0267,15.0267,15.0267,15.0267,15.0267,15.0267,15.0267,15.0267,15.0267,15.0267,15.0267,15.0267,15.0267,15.0267,15.0267,15.0267,15.0267,15.0267,15.0267,15.0267,15.0267,15.0267,15.0267,15.0267,15.0267,15.0267,15.0267,15.0267,15.0267,15.0267,15.0267,15.0267,15.0267,15.0267,15.0267,15.0267,15.0267,15.0267,15.0267,15.0267,15.0267,15.0267,15.0267,15.0267,15.0267,15.0267,15.0267,15.0267,15.0267,15.0267,15.0267,15.0267,15.0267,15.0267,15.0267,15.0267,15.0267,15.0267,15.0267,15.0267,15.0267,15.0267,15.1169,15.2459,15.3949,15.3949,15.5211,15.7631,15.7631,15.7631,0.0,0.0,0.0,8.9842,9.3098,9.7959,11.598,11.6945,11.6848,12.6703,12.842,12.9192,13.2595,13.4859,13.6711,13.8352,13.8637,13.9208,14.0706,14.092,14.092,14.092,14.092,14.092,14.092,14.092,14.092,14.092,14.092,14.092,14.092,14.0992,14.2419,14.5487,14.7128,14.8698,15.0196,15.0267,15.0267,15.0267,15.0267,15.0267,15.0267,15.0267,15.0267,15.0267,15.0267,15.0267,15.0267,15.0267,15.0267,15.0267,15.0267,15.0267,15.0267,15.0267,15.0267,15.0267,15.0267,15.0267,15.0267,15.0267,15.0267,15.0267,15.0267,15.0267,15.0267,15.0267,15.0267,15.0267,15.0267,15.0267,15.0267,15.0267,15.0267,15.0267,15.0267,15.0267,15.0267,15.0267,15.0267,15.0267,15.0267,15.0267,15.0267,15.0267,15.0267,15.0267,15.0267,15.0267,15.0267,15.0267,15.0267,15.0267,15.0267,15.0267,15.0267,15.0267,15.0267,15.0267,15.0267,15.0267,15.0267,15.0267,15.0267,15.147,15.3949,15.3949,15.5211,15.7631,15.7631,15.7631,6.8241,7.6047,8.4911,9.5752,10.1698,10.7456,11.6878,12.0741,12.3839,12.8568,12.9776,13.0729,13.3179,13.5102,13.6425,13.6996,13.878,14.0349,14.0849,14.092,14.092,14.092,14.092,14.092,14.092,14.092,14.092,14.092,14.092,14.092,14.092,14.1889,14.346,14.5558,14.7128,14.8698,15.0267,15.0267,15.0267,15.0267,15.0267,15.0267,15.0267,15.0267,15.0267,15.0267,15.0267,15.0267,15.0267,15.0267,15.0267,15.0267,15.0267,15.0267,15.0267,15.0267,15.0267,15.0267,15.0267,15.0267,15.0267,15.0267,15.0267,15.0267,15.0267,15.0267,15.0267,15.0267,15.0267,15.0267,15.0267,15.0267,15.0267,15.0267,15.0267,15.0267,15.0267,15.0267,15.0267,15.0267,15.0267,15.0267,15.0267,15.0267,15.0267,15.0267,15.0267,15.0267,15.0267,15.0267,15.0267,15.0267,15.0267,15.0267,15.0267,15.0267,15.0267,15.0267,15.0267,15.0267,15.0267,15.0267,15.0267,15.0267,15.0267,15.147,15.3949,15.3949,15.5211,15.7631,15.7631,15.7631,7.3822,8.1418,8.9119,10.0689,10.8054,11.3812,11.8822,12.2661,12.6048,12.9234,12.9628,13.0142,13.271,13.3928,13.4927,13.6068,13.7995,13.9596,14.0778,14.092,14.092,14.092,14.092,14.092,14.092,14.092,14.092,14.092,14.1491,14.1705,14.1817,14.3245,14.4816,14.6414,14.7413,14.8698,15.0267,15.0267,15.0267,15.0267,15.0267,15.0267,15.0267,15.0267,15.0267,15.0267,15.0267,15.0267,15.0267,15.0267,15.0267,15.0267,15.0267,15.0267,15.0267,15.0267,15.0267,15.0267,15.0267,15.0267,15.0267,15.0267,15.0267,15.0267,15.0267,15.0267,15.0267,15.0267,15.0267,15.0267,15.0267,15.0267,15.0267,15.0267,15.0267,15.0267,15.0267,15.0267,15.0267,15.0267,15.0267,15.0267,15.0267,15.0267,15.0267,15.0267,15.0267,15.0267,15.0267,15.0267,15.0267,15.0267,15.0267,15.0267,15.0267,15.0267,15.0267,15.0267,15.0267,15.0267,15.0267,15.0267,15.0267,15.0267,15.0267,15.1321,15.3374,15.3767,15.4968,15.6965,15.7434,15.7631,7.8064,8.4594,9.0631,10.5137,11.2391,11.7177,12.1962,12.285,12.4025,12.8863,12.829,12.7863,13.0931,13.1573,13.2715,13.5783,13.6316,13.7457,14.0492,14.092,14.092,14.092,14.092,14.092,14.092,14.092,14.092,14.092,14.2276,14.3174,14.3215,14.4745,14.6343,14.7841,14.7984,14.8769,15.0267,15.0267,15.0267,15.0267,15.0267,15.0267,15.0267,15.0267,15.0267,15.0267,15.0267,15.0267,15.0267,15.0267,15.0267,15.0267,15.0267,15.0267,15.0267,15.0267,15.0267,15.0267,15.0267,15.0267,15.0267,15.0267,15.0267,15.0267,15.0267,15.0267,15.0267,15.0267,15.0267,15.0267,15.0267,15.0267,15.0267,15.0267,15.0267,15.0267,15.0267,15.0267,15.0267,15.0267,15.0267,15.0267,15.0267,15.0267,15.0267,15.0267,15.0267,15.0267,15.0267,15.0267,15.0267,15.0267,15.0267,15.0267,15.0267,15.0267,15.0267,15.0267,15.0267,15.0267,15.0267,15.0267,15.0267,15.0267,15.0267,15.0942,15.2325,15.3396,15.4561,15.5825,15.703,15.7631,8.6958,9.65,10.3268,11.3213,11.7551,12.0093,12.2486,12.285,12.4025,12.8863,12.829,12.7577,12.9504,13.1787,13.3928,13.589,13.7247,13.8708,14.0635,14.092,14.092,14.092,14.092,14.092,14.092,14.092,14.092,14.092,14.1277,14.1991,14.3245,14.4702,14.6343,14.7841,14.9054,14.9911,15.0267,15.0267,15.0267,15.0267,15.0267,15.0267,15.0267,15.0267,15.0267,15.0267,15.0267,15.0267,15.0267,15.0267,15.0267,15.0267,15.0267,15.0267,15.0267,15.0267,15.0267,15.0267,15.0267,15.0267,15.0267,15.0267,15.0267,15.0267,15.0267,15.0267,15.0267,15.0267,15.0267,15.0267,15.0267,15.0267,15.0267,15.0267,15.0267,15.0267,15.0267,15.0267,15.0267,15.0267,15.0267,15.0267,15.0267,15.0267,15.0267,15.0267,15.0267,15.0267,15.0267,15.0267,15.0267,15.0267,15.0267,15.0267,15.0267,15.0267,15.0267,15.0267,15.0267,15.0267,15.0267,15.0267,15.0267,15.0267,15.0267,15.1321,15.349,15.3767,15.505,15.717,15.7434,15.7631,8.3633,9.594,10.6932,11.598,11.9157,12.0525,12.2113,12.2212,12.3202,12.728,12.7494,12.7435,12.9004,13.1288,13.3428,13.4962,13.6604,13.8175,13.9675,14.0421,14.092,14.092,14.092,14.092,14.092,14.092,14.092,14.092,14.1562,14.2633,14.4202,14.5772,14.7342,14.8912,14.9839,15.0267,15.0267,15.0267,15.0267,15.0267,15.0267,15.0267,15.0267,15.0267,15.0267,15.0267,15.0267,15.0267,15.0267,15.0267,15.0267,15.0267,15.0267,15.0267,15.0267,15.0267,15.0267,15.0267,15.0267,15.0267,15.0267,15.0267,15.0267,15.0267,15.0267,15.0267,15.0267,15.0267,15.0267,15.0267,15.0267,15.0267,15.0267,15.0267,15.0267,15.0267,15.0267,15.0267,15.0267,15.0267,15.0267,15.0267,15.0267,15.0267,15.0267,15.0267,15.0267,15.0267,15.0267,15.0267,15.0267,15.0267,15.0267,15.0267,15.0267,15.0267,15.0267,15.0267,15.0267,15.0267,15.0267,15.0267,15.0267,15.0267,15.0899,15.2043,15.3949,15.4476,15.5369,15.6757,15.7371,15.7631,7.6871,9.0631,10.5736,11.5457,11.8411,11.95,12.122,12.1313,12.1878,12.5281,12.6309,12.7149,12.8648,13.0217,13.1859,13.3642,13.5319,13.6819,13.8427,13.9961,14.092,14.092,14.092,14.092,14.092,14.092,14.092,14.092,14.2347,14.3917,14.5558,14.7057,14.8626,15.0267,15.0267,15.0267,15.0267,15.0267,15.0267,15.0267,15.0267,15.0267,15.0267,15.0267,15.0267,15.0267,15.0267,15.0267,15.0267,15.0267,15.0267,15.0267,15.0267,15.0267,15.0267,15.0267,15.0267,15.0267,15.0267,15.0267,15.0267,15.0267,15.0267,15.0267,15.0267,15.0267,15.0267,15.0267,15.0267,15.0267,15.0267,15.0267,15.0267,15.0267,15.0267,15.0267,15.0267,15.0267,15.0267,15.0267,15.0267,15.0267,15.0267,15.0267,15.0267,15.0267,15.0267,15.0267,15.0267,15.0267,15.0267,15.0267,15.0267,15.0267,15.0267,15.0267,15.0267,15.0267,15.0267,15.0267,15.0267,15.0267,15.0386,15.0505,15.1796,15.2988,15.4216,15.5211,15.5825,15.5973,15.717,15.7631,8.6144,9.5865,10.5437,11.3961,11.6698,11.8017,12.0998,12.0362,12.0491,12.5064,12.5447,12.5508,12.7048,12.8576,13.0535,13.3425,13.5174,13.6819,13.8384,13.9881,14.092,14.092,14.092,14.092,14.092,14.092,14.092,14.092,14.2347,14.3917,14.5558,14.7057,14.8626,15.0267,15.0267,15.0267,15.0267,15.0267,15.0267,15.0267,15.0267,15.0267,15.0267,15.0267,15.0267,15.0267,15.0267,15.0267,15.0267,15.0267,15.0267,15.0267,15.0267,15.0267,15.0267,15.0267,15.0267,15.0267,15.0267,15.0267,15.0267,15.0267,15.0267,15.0267,15.0267,15.0267,15.0267,15.0267,15.0267,15.0267,15.0267,15.0267,15.0267,15.0267,15.0267,15.0267,15.0267,15.0267,15.0267,15.0267,15.0267,15.0267,15.0267,15.0267,15.0267,15.0267,15.0267,15.0267,15.0267,15.0267,15.0267,15.0267,15.0267,15.0267,15.0267,15.0267,15.0267,15.0267,15.0267,15.0267,15.0267,15.0267,15.0783,15.1796,15.3085,15.4216,15.5369,15.56,15.6263,15.7371,15.757,15.7631,8.5587,9.3921,10.2595,10.9998,11.4315,11.7309,11.9188,11.9194,11.9961,12.441,12.4184,12.4081,12.6478,12.8148,12.9964,13.232,13.4745,13.6533,13.7281,13.9422,14.092,14.092,14.092,14.092,14.092,14.092,14.092,14.092,14.2347,14.3917,14.5558,14.7057,14.8626,15.0267,15.0267,15.0267,15.0267,15.0267,15.0267,15.0267,15.0267,15.0267,15.0267,15.0267,15.0267,15.0267,15.0267,15.0267,15.0267,15.0267,15.0267,15.0267,15.0267,15.0267,15.0267,15.0267,15.0267,15.0267,15.0267,15.0267,15.0267,15.0267,15.0267,15.0267,15.0267,15.0267,15.0267,15.0267,15.0267,15.0267,15.0267,15.0267,15.0267,15.0267,15.0267,15.0267,15.0267,15.0267,15.0267,15.0267,15.0267,15.0267,15.0267,15.0267,15.0267,15.0267,15.0267,15.0267,15.0267,15.0267,15.0267,15.0267,15.0267,15.0267,15.0267,15.0267,15.0267,15.0267,15.0267,15.0267,15.0267,15.0899,15.1903,15.3085,15.4303,15.5447,15.669,15.669,15.703,15.7631,15.7631,15.7631,8.3985,9.1528,10.0053,10.6259,11.1262,11.5358,11.7945,11.8371,11.907,12.2014,12.2012,12.244,12.5393,12.7464,12.9249,13.0892,13.3996,13.6212,13.6283,13.9032,14.092,14.092,14.092,14.092,14.092,14.092,14.092,14.092,14.2347,14.3917,14.5558,14.7057,14.8626,15.0267,15.0267,15.0267,15.0267,15.0267,15.0267,15.0267,15.0267,15.0267,15.0267,15.0267,15.0267,15.0267,15.0267,15.0267,15.0267,15.0267,15.0267,15.0267,15.0267,15.0267,15.0267,15.0267,15.0267,15.0267,15.0267,15.0267,15.0267,15.0267,15.0267,15.0267,15.0267,15.0267,15.0267,15.0267,15.0267,15.0267,15.0267,15.0267,15.0267,15.0267,15.0267,15.0267,15.0267,15.0267,15.0267,15.0267,15.0267,15.0267,15.0267,15.0267,15.0267,15.0267,15.0267,15.0267,15.0267,15.0267,15.0267,15.0267,15.0267,15.0267,15.0267,15.0267,15.0267,15.0267,15.0267,15.0267,15.0267,15.1796,15.2988,15.3949,15.5369,15.6621,15.7631,15.7631,15.7631,15.7631,15.7631,15.7631,8.7714,9.3248,9.9753,10.4838,10.697,11.0101,11.8807,11.8619,11.6472,11.5987,11.8088,12.0466,12.2228,12.4992,12.7707,12.9208,13.3274,13.6281,13.6319,13.8994,14.092,14.092,14.092,14.092,14.092,14.092,14.092,14.092,14.2347,14.3917,14.5558,14.7057,14.8626,15.0267,15.0267,15.0267,15.0267,15.0267,15.0267,15.0267,15.0267,15.0267,15.0267,15.0267,15.0267,15.0267,15.0267,15.0267,15.0267,15.0267,15.0267,15.0267,15.0267,15.0267,15.0267,15.0267,15.0267,15.0267,15.0267,15.0267,15.0267,15.0267,15.0267,15.0267,15.0267,15.0267,15.0267,15.0267,15.0267,15.0267,15.0267,15.0267,15.0267,15.0267,15.0267,15.0267,15.0267,15.0267,15.0267,15.0267,15.0267,15.0267,15.0267,15.0267,15.0267,15.0267,15.0267,15.0267,15.0267,15.0267,15.0267,15.0267,15.0267,15.0267,15.0267,15.0267,15.0267,15.0267,15.0267,15.0267,15.0267,15.2488,15.3859,15.3949,15.6266,15.757,15.7631,15.7631,15.7631,15.7631,15.7631,15.7631,8.3751,8.7565,9.2724,9.9753,10.496,10.9942,11.57,11.6709,11.6688,11.7631,11.8159,11.9087,12.1609,12.3965,12.6393,12.8892,13.2424,13.5176,13.6103,13.8099,13.9921,14.0849,14.092,14.092,14.092,14.092,14.092,14.092,14.2347,14.3917,14.5558,14.7057,14.8626,15.0267,15.0267,15.0267,15.0267,15.0267,15.0267,15.0267,15.0267,15.0267,15.0267,15.0267,15.0267,15.0267,15.0267,15.0267,15.0267,15.0267,15.0267,15.0267,15.0267,15.0267,15.0267,15.0267,15.0267,15.0267,15.0267,15.0267,15.0267,15.0267,15.0267,15.0267,15.0267,15.0267,15.0267,15.0267,15.0267,15.0267,15.0267,15.0267,15.0267,15.0267,15.0267,15.0267,15.0267,15.0267,15.0267,15.0267,15.0267,15.0267,15.0267,15.0267,15.0267,15.0267,15.0267,15.0267,15.0267,15.0267,15.0267,15.0267,15.0267,15.0267,15.0267,15.0267,15.0267,15.0267,15.0267,15.0267,15.0267,15.269,15.3949,15.3949,15.6337,15.7631,15.7631,15.7631,15.7631,15.7631,15.7631,15.7631,8.1807,8.405,8.7864,9.5192,10.1834,10.746,11.1217,11.2759,11.412,11.7439,11.7365,11.7517,12.0228,12.244,12.4866,12.8077,13.1216,13.3856,13.5352,13.7386,13.9026,14.0095,14.0706,14.092,14.092,14.092,14.092,14.092,14.1919,14.3489,14.5487,14.6628,14.8198,15.0267,15.0267,15.0267,15.0267,15.0267,15.0267,15.0267,15.0267,15.0267,15.0267,15.0267,15.0267,15.0267,15.0267,15.0267,15.0267,15.0267,15.0267,15.0267,15.0267,15.0267,15.0267,15.0267,15.0267,15.0267,15.0267,15.0267,15.0267,15.0267,15.0267,15.0267,15.0267,15.0267,15.0267,15.0267,15.0267,15.0267,15.0267,15.0267,15.0267,15.0267,15.0267,15.0267,15.0267,15.0267,15.0267,15.0267,15.0267,15.0267,15.0267,15.0267,15.0267,15.0267,15.0267,15.0267,15.0267,15.0267,15.0267,15.0267,15.0267,15.0267,15.0267,15.0267,15.0267,15.0267,15.0267,15.0267,15.0267,15.269,15.3949,15.3949,15.6337,15.7631,15.7631,15.7631,15.7631,15.7631,15.7631,15.7631,8.42,8.4873,8.734,9.2276,9.6611,10.0892,10.583,10.6367,10.7435,11.3024,11.467,11.559,11.716,12.0014,12.3127,12.6478,12.9647,13.2215,13.3785,13.6595,13.8517,13.8589,13.9952,14.092,14.092,14.092,14.092,14.092,14.092,14.2347,14.5415,14.563,14.7057,15.0196,15.0267,15.0267,15.0267,15.0267,15.0267,15.0267,15.0267,15.0267,15.0267,15.0267,15.0267,15.0267,15.0267,15.0267,15.0267,15.0267,15.0267,15.0267,15.0267,15.0267,15.0267,15.0267,15.0267,15.0267,15.0267,15.0267,15.0267,15.0267,15.0267,15.0267,15.0267,15.0267,15.0267,15.0267,15.0267,15.0267,15.0267,15.0267,15.0267,15.0267,15.0267,15.0267,15.0267,15.0267,15.0267,15.0267,15.0267,15.0267,15.0267,15.0267,15.0267,15.0267,15.0267,15.0267,15.0267,15.0267,15.0267,15.0267,15.0267,15.0267,15.0267,15.0267,15.0267,15.0267,15.0267,15.0267,15.0267,15.269,15.3949,15.3949,15.6337,15.7631,15.7631,15.7631,15.7631,15.7631,15.7631,15.7631,8.0461,8.2405,8.592,9.1977,9.5305,9.8433,10.3285,10.5494,10.7507,11.0839,11.0928,11.1452,11.5162,11.8373,12.1869,12.625,12.8678,13.0892,13.3534,13.5675,13.7347,13.8494,13.9993,14.092,14.092,14.092,14.092,14.092,14.092,14.2276,14.5415,14.563,14.7057,15.0196,15.0267,15.0267,15.0267,15.0267,15.0267,15.0267,15.0267,15.0267,15.0267,15.0267,15.0267,15.0267,15.0267,15.0267,15.0267,15.0267,15.0267,15.0267,15.0267,15.0267,15.0267,15.0267,15.0267,15.0267,15.0267,15.0267,15.0267,15.0267,15.0267,15.0267,15.0267,15.0267,15.0267,15.0267,15.0267,15.0267,15.0267,15.0267,15.0267,15.0267,15.0267,15.0267,15.0267,15.0267,15.0267,15.0267,15.0267,15.0267,15.0267,15.0267,15.0267,15.0267,15.0267,15.0267,15.0267,15.0267,15.0267,15.0267,15.0267,15.0267,15.0267,15.0267,15.0267,15.0267,15.0267,15.0667,15.1542,15.3182,15.4303,15.5131,15.6757,15.7631,15.7631,15.7631,15.7631,15.7631,15.7631,15.7631,8.1807,8.3078,8.5471,9.265,9.3879,9.4962,10.0951,10.1937,10.2616,10.6453,10.6734,10.7513,11.1621,11.6696,12.1508,12.5447,12.7922,12.9994,13.1955,13.4534,13.6639,13.7638,13.9636,14.092,14.092,14.092,14.092,14.092,14.092,14.2062,14.4559,14.5273,14.6771,14.934,14.9982,15.0267,15.0267,15.0267,15.0267,15.0267,15.0267,15.0267,15.0267,15.0267,15.0267,15.0267,15.0267,15.0267,15.0267,15.0267,15.0267,15.0267,15.0267,15.0267,15.0267,15.0267,15.0267,15.0267,15.0267,15.0267,15.0267,15.0267,15.0267,15.0267,15.0267,15.0267,15.0267,15.0267,15.0267,15.0267,15.0267,15.0267,15.0267,15.0267,15.0267,15.0267,15.0267,15.0267,15.0267,15.0267,15.0267,15.0267,15.0267,15.0267,15.0267,15.0267,15.0267,15.0267,15.0267,15.0267,15.0267,15.0267,15.0267,15.0267,15.0267,15.0267,15.0267,15.0267,15.0667,15.1542,15.279,15.3949,15.4894,15.5676,15.6965,15.7631,15.7631,15.7631,15.7631,15.7631,15.7631,15.7631,8.6069,8.592,8.577,9.3547,9.2486,9.1555,9.91,9.6715,9.4584,10.0434,10.224,10.3681,10.6965,11.4521,12.119,12.4017,12.7092,12.928,12.9595,13.3639,13.6604,13.6602,13.924,14.1063,14.092,14.092,14.092,14.092,14.092,14.1705,14.3346,14.4773,14.6414,14.8055,14.9554,15.0267,15.0267,15.0267,15.0267,15.0267,15.0267,15.0267,15.0267,15.0267,15.0267,15.0267,15.0267,15.0267,15.0267,15.0267,15.0267,15.0267,15.0267,15.0267,15.0267,15.0267,15.0267,15.0267,15.0267,15.0267,15.0267,15.0267,15.0267,15.0267,15.0267,15.0267,15.0267,15.0267,15.0267,15.0267,15.0267,15.0267,15.0267,15.0267,15.0267,15.0267,15.0267,15.0267,15.0267,15.0267,15.0267,15.0267,15.0267,15.0267,15.0267,15.0267,15.0267,15.0267,15.0267,15.0267,15.0267,15.0267,15.0267,15.0267,15.0267,15.0267,15.0267,15.0386,15.1651,15.279,15.4039,15.5131,15.575,15.5825,15.703,15.7631,15.7631,15.7631,15.7631,15.7631,15.7631,15.7631,7.919,8.233,8.6368,8.9584,9.2818,9.6107,9.9283,9.7547,9.5662,9.7107,9.7579,9.8706,10.1925,10.7209,0.0,12.2344,12.5828,12.8708,13.2303,13.6853,13.9856,13.985,14.1562,14.2276,14.1063,14.092,14.092,14.092,14.092,14.2133,14.4916,14.5415,14.6914,14.9625,15.0125,15.0267,15.0267,15.0267,15.0267,15.0267,15.0267,15.0267,15.0267,15.0267,15.0267,15.0267,15.0267,15.0267,15.0267,15.0267,15.0267,15.0267,15.0267,15.0267,15.0267,15.0267,15.0267,15.0267,15.0267,15.0267,15.0267,15.0267,15.0267,15.0267,15.0267,15.0267,15.0267,15.0267,15.0267,15.0267,15.0267,15.0267,15.0267,15.0267,15.0267,15.0267,15.0267,15.0267,15.0267,15.0267,15.0267,15.0267,15.0267,15.0267,15.0267,15.0267,15.0267,15.0267,15.0267,15.0267,15.0267,15.0267,15.0267,15.0267,15.0267,15.0267,15.0667,15.176,15.2889,15.4039,15.529,15.5524,15.6192,15.717,15.7434,15.7631,15.7631,15.7631,15.7631,15.7631,15.7631,15.7631,8.0461,8.3975,8.7266,8.7415,9.0668,9.4044,9.4529,9.3342,9.2242,9.2535,9.3248,9.5466,10.099,10.349,10.8291,11.9048,12.2951,12.5822,12.9166,13.3743,13.739,13.9636,14.0635,14.1348,14.1919,14.1348,14.092,14.092,14.092,14.1991,14.4417,14.5201,14.67,14.9126,14.9911,15.0267,15.0267,15.0267,15.0267,15.0267,15.0267,15.0267,15.0267,15.0267,15.0267,15.0267,15.0267,15.0267,15.0267,15.0267,15.0267,15.0267,15.0267,15.0267,15.0267,15.0267,15.0267,15.0267,15.0267,15.0267,15.0267,15.0267,15.0267,15.0267,15.0267,15.0267,15.0267,15.0267,15.0267,15.0267,15.0267,15.0267,15.0267,15.0267,15.0267,15.0267,15.0267,15.0267,15.0267,15.0267,15.0267,15.0267,15.0267,15.0267,15.0267,15.0267,15.0267,15.0267,15.0267,15.0267,15.0267,15.0267,15.0267,15.0267,15.0267,15.0267,15.0783,15.2115,15.3767,15.529,15.6547,15.6621,15.6965,15.7631,15.7631,15.7631,15.7631,15.7631,15.7631,15.7631,15.7631,15.7631,8.4499,8.7422,8.8806,8.7163,8.8544,9.0092,8.918,8.8362,8.7944,8.8543,8.9808,9.2949,10.0202,10.072,10.3208,11.325,11.7804,12.1347,12.4795,12.9361,13.3928,13.8423,13.8994,13.9993,14.2633,14.1705,14.092,14.092,14.092,14.1705,14.3489,14.4916,14.6414,14.8198,14.9554,15.0267,15.0267,15.0267,15.0267,15.0267,15.0267,15.0267,15.0267,15.0267,15.0267,15.0267,15.0267,15.0267,15.0267,15.0267,15.0267,15.0267,15.0267,15.0267,15.0267,15.0267,15.0267,15.0267,15.0267,15.0267,15.0267,15.0267,15.0267,15.0267,15.0267,15.0267,15.0267,15.0267,15.0267,15.0267,15.0267,15.0267,15.0267,15.0267,15.0267,15.0267,15.0267,15.0267,15.0267,15.0267,15.0267,15.0267,15.0267,15.0267,15.0267,15.0267,15.0267,15.0267,15.0267,15.0267,15.0267,15.0267,15.0267,15.0267,15.0267,15.0505,15.1097,15.2662,15.4561,15.6263,15.757,15.7631,15.7631,15.7631,15.7631,15.7631,15.7631,15.7631,15.7631,15.7631,15.7631,15.7631,8.3527,8.7915,9.1417,8.9785,9.0663,9.1788,9.0972,8.9624,8.8543,8.8612,8.8836,8.9808,9.2575,9.4603,9.7141,10.0921,10.7029,11.5368,12.6893,13.2572,13.6782,14.0207,14.0564,14.0778,14.1277,14.1063,14.092,14.092,14.092,14.2205,14.513,14.5487,14.6914,14.9839,15.0196,15.0267,15.0267,15.0267,15.0267,15.0267,15.0267,15.0267,15.0267,15.0267,15.0267,15.0267,15.0267,15.0267,15.0267,15.0267,15.0267,15.0267,15.0267,15.0267,15.0267,15.0267,15.0267,15.0267,15.0267,15.0267,15.0267,15.0267,15.0267,15.0267,15.0267,15.0267,15.0267,15.0267,15.0267,15.0267,15.0267,15.0267,15.0267,15.0267,15.0267,15.0267,15.0267,15.0267,15.0267,15.0267,15.0267,15.0267,15.0267,15.0267,15.0267,15.0267,15.0267,15.0267,15.0267,15.0267,15.0267,15.0267,15.0267,15.0267,15.0267,15.1281,15.279,15.4976,15.5524,15.6263,15.757,15.7631,15.7631,15.7631,15.7631,15.7631,15.7631,15.7631,15.7631,15.7631,15.7631,15.7631,8.4303,8.9226,9.376,9.1308,9.1527,9.1997,9.081,9.0264,8.9733,8.8836,8.8612,8.9658,9.3173,9.2975,9.4875,10.2462,10.5425,11.0475,0.0,0.0,13.3286,13.8994,13.8922,13.9422,14.1919,14.142,14.092,14.092,14.092,14.2276,14.5415,14.563,14.7057,15.0196,15.0267,15.0267,15.0267,15.0267,15.0267,15.0267,15.0267,15.0267,15.0267,15.0267,15.0267,15.0267,15.0267,15.0267,15.0267,15.0267,15.0267,15.0267,15.0267,15.0267,15.0267,15.0267,15.0267,15.0267,15.0267,15.0267,15.0267,15.0267,15.0267,15.0267,15.0267,15.0267,15.0267,15.0267,15.0267,15.0267,15.0267,15.0267,15.0267,15.0267,15.0267,15.0267,15.0267,15.0267,15.0267,15.0267,15.0267,15.0267,15.0267,15.0267,15.0267,15.0267,15.0267,15.0267,15.0267,15.0267,15.0267,15.0267,15.0267,15.0622,15.1281,15.3085,15.4561,15.5674,15.6408,15.703,15.7631,15.7631,15.7631,15.7631,15.7631,15.7631,15.7631,15.7631,15.7631,15.7631,15.7631,15.7631,8.8701,0.0,9.7368,9.4522,9.366,9.3079,0.0,9.1033,9.0488,8.8985,8.8612,8.9698,9.3399,9.1726,9.3029,10.2877,10.3988,10.6407,11.4611,0.0,0.0,13.7067,13.6996,13.7923,14.2276,14.1634,14.092,14.092,14.092,14.2133,14.4916,14.5415,14.6914,14.9625,14.9768,14.9768,14.9768,15.0125,15.0267,15.0267,15.0267,15.0267,15.0267,15.0267,15.0267,15.0267,15.0267,15.0267,15.0267,15.0267,15.0267,15.0267,15.0267,15.0267,15.0267,15.0267,15.0267,15.0267,15.0267,15.0267,15.0267,15.0267,15.0267,15.0267,15.0267,15.0267,15.0267,15.0267,15.0267,15.0267,15.0267,15.0267,15.0267,15.0267,15.0267,15.0267,15.0267,15.0267,15.0267,15.0267,15.0267,15.0267,15.0267,15.0267,15.0267,15.0267,15.0267,15.0267,15.0267,15.0267,15.0267,15.0267,15.0505,15.1169,15.2115,15.4303,15.5825,15.612,15.7105,15.7631,15.7631,15.7631,15.7631,15.7631,15.7631,15.7631,15.7631,15.7631,15.7631,15.7631,15.7631,15.7631,0.0,10.2327,10.3557,10.1749,9.9143,9.6558,9.4775,9.2129,0.0,8.8841,8.8612,8.8582,8.8309,8.8728,9.0145,9.3255,9.8001,10.3542,11.0025,11.7588,0.0,0.0,13.6282,13.7495,14.0778,14.0992,14.092,14.092,14.092,14.1705,14.3346,14.4773,14.6343,14.8055,14.8127,14.8127,14.8127,14.9554,15.0267,15.0267,15.0267,15.0267,15.0267,15.0267,15.0267,15.0267,15.0267,15.0267,15.0267,15.0267,15.0267,15.0267,15.0267,15.0267,15.0267,15.0267,15.0267,15.0267,15.0267,15.0267,15.0267,15.0267,15.0267,15.0267,15.0267,15.0267,15.0267,15.0267,15.0267,15.0267,15.0267,15.0267,15.0267,15.0267,15.0267,15.0267,15.0267,15.0267,15.0267,15.0267,15.0267,15.0267,15.0267,15.0267,15.0267,15.0267,15.0267,15.0267,15.0267,15.0267,15.0267,15.0267,15.1321,15.2115,15.222,15.4303,15.6192,15.7434,15.757,15.7631,15.7631,15.7631,15.7631,15.7631,15.7631,15.7631,15.7631,15.7631,15.7631,15.7631,15.7631,15.7631,10.2604,10.4733,10.6176,10.3514,10.1602,9.9419,9.6244,9.4235,9.2234,8.9254,8.8612,8.8472,8.7823,8.8737,9.1618,9.7612,10.11,10.5897,11.3682,0.0,0.0,12.8434,13.3286,13.7495,14.0635,14.092,14.092,14.092,14.092,14.1634,14.3204,14.3846,14.4417,14.4987,14.5986,14.6914,14.7913,14.8555,14.934,15.0267,15.0267,15.0267,15.0267,15.0267,15.0267,15.0267,15.0267,15.0267,0.0,15.0267,15.0267,15.0267,15.0267,15.0267,15.0267,15.0267,15.0267,15.0267,15.0267,15.0267,15.0267,15.0267,15.0267,15.0267,15.0267,15.0267,15.0267,15.0267,15.0267,15.0267,15.0267,15.0267,15.0267,15.0267,15.0267,15.0267,15.0267,15.0267,15.0267,15.0267,15.0267,15.0267,15.0267,15.0267,15.0267,15.0267,15.0267,15.0267,15.0267,15.0267,15.0267,15.0267,15.1432,15.279,15.4216,15.5973,15.717,15.7631,15.7631,15.7631,15.7631,15.7631,15.7631,15.7631,15.7631,15.7631,15.7631,15.7631,15.7631,15.7631,15.7631,15.7631,10.5768,10.7528,10.9026,10.6885,10.4733,10.2184,9.839,9.5953,9.3369,8.9442,8.8612,8.8361,8.7494,8.9089,9.2594,9.9153,10.2823,10.7763,11.6253,0.0,0.0,12.5794,13.1645,13.6568,13.9208,14.0349,14.092,14.092,14.092,14.142,14.249,14.2989,14.2989,14.2561,14.406,14.563,14.7199,14.7699,14.8698,15.0267,15.0267,15.0267,15.0267,15.0267,15.0267,15.0267,15.0267,15.0267,15.0267,15.0267,15.0267,15.0267,15.0267,15.0267,15.0267,15.0267,15.0267,15.0267,15.0267,15.0267,15.0267,15.0267,15.0267,15.0267,15.0267,15.0267,15.0267,15.0267,15.0267,15.0267,15.0267,15.0267,15.0267,15.0267,15.0267,15.0267,15.0267,15.0267,15.0267,15.0267,15.0551,15.0899,15.0899,15.0899,15.0899,15.0899,15.0899,15.0899,15.0899,15.1209,15.136,15.136,15.259,15.3949,15.5524,15.6899,15.7631,15.7631,15.7631,15.7631,15.7631,15.7631,15.7631,15.7631,15.7631,15.7631,15.7631,15.7631,15.7631,15.7631,15.7631,15.7631,10.9597,11.1523,11.2736,11.2736,10.924,10.4876,10.1417,9.7037,9.2699,8.9369,8.8612,8.8251,8.6941,8.9281,9.2448,9.5912,10.1677,10.8455,11.6304,12.1513,12.5722,0.0,13.2001,13.457,13.6068,13.9065,14.092,14.092,14.092,14.092,14.092,14.2347,14.249,14.0992,14.2419,14.3988,14.5558,14.7128,14.8698,15.0267,15.0267,15.0267,15.0267,15.0267,15.0267,15.0267,15.0267,15.0267,15.0267,15.0267,15.0267,15.0267,15.0267,15.0267,15.0267,15.0267,15.0267,15.0267,15.0267,15.0267,15.0267,15.0267,15.0267,15.0267,15.0267,15.0267,15.0267,15.0267,15.0267,15.0267,15.0267,15.0267,15.0267,15.0267,15.0267,15.0267,15.0267,15.0267,15.0267,15.0267,15.1393,15.222,15.222,15.222,15.222,15.222,15.222,15.222,15.222,15.3279,15.3949,15.3949,15.505,15.575,15.575,15.6899,15.7631,15.7631,15.7631,15.7631,15.7631,15.7631,15.7631,15.7631,15.7631,15.7631,15.7631,15.7631,15.7631,15.7631,15.7631,15.7631,10.8812,11.0738,11.2736,11.2736,11.0025,10.6076,10.1169,9.7548,9.3935,8.8969,8.7944,8.7994,8.8312,9.0523,9.4005,9.8913,10.4031,10.9739,11.6447,12.0585,12.401,12.7292,0.0,13.3286,13.5997,13.8066,13.9779,14.0849,14.092,14.092,14.092,14.1348,14.142,14.092,14.1348,14.2347,14.3917,14.5487,14.7057,14.8626,14.9768,15.0267,15.0267,15.0267,15.0267,15.0267,15.0267,15.0267,15.0267,15.0267,15.0267,15.0267,15.0267,15.0267,15.0267,15.0267,15.0267,15.0267,15.0267,15.0267,15.0267,15.0267,15.0267,15.0267,15.0267,15.0267,15.0267,15.0267,15.0267,15.0267,15.0267,15.0267,15.0267,15.0267,15.0267,15.0267,15.0267,15.0267,15.0505,15.1432,15.1903,15.2459,15.3279,15.3396,15.3396,15.3396,15.3396,15.3396,15.3396,15.3767,15.3949,15.3949,15.575,15.703,15.703,15.7434,15.7631,15.7631,15.7631,15.7631,15.7631,15.7631,15.7631,15.7631,15.7631,15.7631,15.7631,15.7631,15.7631,15.7631,15.7631,15.7631,10.8312,11.031,11.2736,11.2736,11.0881,10.771,10.2687,9.8978,9.5224,9.0466,8.8294,8.7795,8.9626,9.1965,9.5692,10.1909,10.6885,11.2308,11.9301,12.244,12.5223,12.8434,13.0432,13.2572,13.5069,13.6211,13.7638,13.985,14.0564,14.092,14.092,14.092,14.092,14.092,14.092,14.1705,14.3204,14.4202,14.5772,14.7913,14.8912,14.9697,15.0267,15.0267,15.0267,15.0267,15.0267,15.0267,15.0267,15.0267,15.0267,15.0267,15.0267,15.0267,15.0267,15.0267,15.0267,15.0267,15.0267,15.0267,15.0267,15.0267,15.0267,15.0267,15.0267,15.0267,15.0267,15.0267,15.0267,15.0267,15.0267,15.0267,15.0267,15.0267,15.0267,15.0267,15.0267,15.0667,15.1281,15.2009,15.2988,15.3767,15.4561,15.4645,15.4645,15.4645,15.4645,15.4645,15.4645,15.5131,15.5443,15.5443,15.669,15.7631,15.7631,15.7631,15.7631,15.7631,15.7631,15.7631,15.7631,15.7631,15.7631,15.7631,15.7631,15.7631,15.7631,15.7631,15.7631,15.7631,15.7631,15.7631,10.8027,11.031,11.2736,11.2736,11.1595,10.9341,10.5203,0.0,9.6576,9.2905,8.9368,8.7909,9.0785,9.3516,9.7713,10.4624,10.9811,11.559,12.3296,12.5865,12.8077,13.1002,0.0,0.0,13.3785,13.3928,13.5283,13.8423,13.9921,14.0706,14.0706,14.0849,14.092,14.092,14.092,14.1634,14.2989,14.3204,14.4773,14.7699,14.7841,14.8769,15.0267,15.0267,15.0267,15.0267,15.0267,15.0267,15.0267,15.0267,15.0267,15.0267,15.0267,15.0267,15.0267,15.0267,15.0267,15.0267,15.0267,15.0267,15.0267,15.0267,15.0267,15.0267,15.0267,15.0267,15.0267,15.0267,15.0267,15.0267,15.0267,15.0267,15.0267,15.0267,15.0267,15.0267,15.0386,15.1321,15.2325,15.2459,15.4216,15.575,15.5825,15.5899,15.5899,15.5899,15.5899,15.5899,15.5899,15.6899,15.7631,15.7631,15.7631,15.7631,15.7631,15.7631,15.7631,15.7631,15.7631,15.7631,15.7631,15.7631,15.7631,15.7631,15.7631,15.7631,15.7631,15.7631,15.7631,15.7631,15.7631,15.7631,10.8027,11.031,11.2736,11.2736,11.1595,10.9169,10.4706,10.1309,0.0,9.1844,9.0028,8.969,9.0343,0.0,9.97,0.0,11.0738,11.6447,12.1869,12.5151,12.7649,0.0,13.086,0.0,13.3785,13.3928,13.5283,13.8423,13.8922,13.9136,13.9136,14.0278,14.092,14.092,14.092,14.1063,14.142,14.2633,14.4202,14.6129,14.7342,14.8769,15.0267,15.0267,15.0267,15.0267,15.0267,15.0267,15.0267,15.0267,15.0267,15.0267,15.0267,15.0267,15.0267,15.0267,15.0267,15.0267,15.0267,15.0267,15.0267,15.0267,15.0267,15.0267,15.0267,15.0267,15.0267,15.0267,15.0267,15.0267,15.0267,15.0267,15.0267,15.0267,15.0267,15.0551,15.1542,15.2009,15.2763,15.4561,15.5369,15.6047,15.703,15.7233,15.7233,15.7233,15.7233,15.7233,15.7233,15.7434,15.7631,15.7631,15.7631,15.7631,15.7631,15.7631,15.7631,15.7631,15.7631,15.7631,15.7631,15.7631,15.7631,15.7631,15.7631,15.7631,15.7631,15.7631,15.7631,15.7631,15.7631,15.7631,10.8027,11.031,11.2736,11.2736,11.2165,11.0738,10.7528,0.0,0.0,0.0,9.375,9.2318,9.344,9.7066,0.0,10.7099,11.2594,11.7874,12.2654,12.4723,12.665,12.9004,13.0003,13.1074,13.2643,13.2786,13.3785,13.6211,13.7067,13.7781,13.8566,13.9422,14.0135,14.092,14.092,14.092,14.092,14.1776,14.2918,14.4488,14.6058,14.7627,14.9197,14.9982,15.0267,15.0267,15.0267,15.0267,15.0267,15.0267,15.0267,15.0267,15.0267,15.0267,15.0267,15.0267,15.0267,15.0267,15.0267,15.0267,15.0267,15.0267,15.0267,15.0267,15.0267,15.0267,15.0267,15.0267,15.0267,15.0267,15.0267,15.0267,15.0267,15.0267,15.0267,15.0551,15.1903,15.3085,15.4216,15.5447,15.6192,15.6899,15.757,15.7631,15.7631,15.7631,15.7631,15.7631,15.7631,15.7631,15.7631,15.7631,15.7631,15.7631,15.7631,15.7631,15.7631,15.7631,15.7631,15.7631,15.7631,15.7631,15.7631,15.7631,15.7631,15.7631,15.7631,15.7631,15.7631,15.7631,15.7631,15.7631,10.7813,11.0168,11.2379,11.2665,11.2736,11.2308,11.0738,10.817,0.0,0.0,9.8425,9.5766,9.7713,10.0145,10.4031,11.0596,11.559,12.0157,12.4367,12.5437,12.6436,0.0,12.8719,12.9361,13.0646,13.1002,13.1859,13.3428,13.4713,13.614,13.7709,13.8352,13.9208,14.0492,14.0778,14.092,14.092,14.092,14.1705,14.3275,14.4559,14.5986,14.7556,14.8912,14.9483,14.9483,14.9768,14.9911,14.9911,15.0196,15.0267,15.0267,15.0267,15.0267,15.0267,15.0267,15.0267,15.0267,15.0267,15.0267,15.0267,15.0267,15.0267,15.0267,15.0267,15.0267,15.0267,15.0267,15.0267,15.0267,15.0267,15.0267,15.0267,15.0267,15.0386,15.0899,15.1903,15.4039,15.575,15.5973,15.6899,15.7631,15.7631,15.7631,15.7631,15.7631,15.7631,15.7631,15.7631,15.7631,15.7631,15.7631,15.7631,15.7631,15.7631,15.7631,15.7631,15.7631,15.7631,15.7631,15.7631,15.7631,15.7631,15.7631,15.7631,15.7631,15.7631,15.7631,15.7631,15.7631,15.7631,15.7631,10.6957,10.9383,11.1095,11.2379,11.2736,11.2308,11.0738,10.9026,10.697,10.391,0.0,10.0258,10.0551,10.3042,10.7599,11.5234,0.0,12.4367,12.6364,12.8933,12.929,12.5651,12.6436,12.7363,12.7577,12.879,13.0217,13.1787,13.2073,13.2857,13.4499,13.7139,13.8708,13.8922,14.0278,14.092,14.092,14.092,14.1705,14.3275,14.3489,14.4417,14.5915,14.6129,14.6272,14.6343,14.7699,14.827,14.8341,14.9697,15.0267,15.0267,15.0267,15.0267,15.0267,15.0267,15.0267,15.0267,15.0267,15.0267,15.0267,15.0267,15.0267,15.0267,15.0267,15.0267,15.0267,15.0267,15.0267,15.0267,15.0267,15.0267,15.0267,15.0267,15.1169,15.2009,15.222,15.4039,15.6047,15.717,15.757,15.7631,15.7631,15.7631,15.7631,15.7631,15.7631,15.7631,15.7631,15.7631,15.7631,15.7631,15.7631,15.7631,15.7631,15.7631,15.7631,15.7631,15.7631,15.7631,15.7631,15.7631,15.7631,15.7631,15.7631,15.7631,15.7631,15.7631,15.7631,15.7631,15.7631,15.7631,10.3695,10.6529,10.924,10.9953,11.081,11.1238,11.0596,11.0596,11.0025,10.7813,10.61,0.0,10.4959,10.61,10.8741,0.0,0.0,0.0,12.137,12.2797,12.351,0.0,12.3796,0.0,12.6793,12.7577,12.8576,13.0146,13.0289,13.1359,13.3785,13.5283,13.6425,13.7281,13.8851,13.9636,13.9636,14.0492,14.1277,14.1991,14.2847,14.3632,14.4345,14.5201,14.563,14.563,14.6343,14.6628,14.67,14.7413,14.7699,14.7699,14.7699,14.7699,14.7699,14.7699,14.8198,14.8983,14.8983,14.8412,14.7699,14.7699,14.827,14.903,14.9803,15.0601,15.1542,15.2148,15.2283,15.2283,15.2283,15.2283,15.2283,15.2283,15.2252,15.2561,15.3859,15.4476,15.529,15.7233,15.7631,15.7631,15.7631,15.7631,15.7631,15.7631,15.7631,15.7631,15.7631,15.7631,15.7631,15.7631,15.7631,15.7631,15.7631,15.7631,15.7631,15.7631,15.7631,15.7631,15.7631,15.7631,15.7631,15.7631,15.7631,15.7631,15.7631,15.6659,15.6211,15.6211,15.6211,15.6211,10.058,10.3409,10.6457,10.7242,10.8669,10.9811,10.9811,11.0738,11.1309,11.0596,10.9169,10.8312,0.0,0.0,0.0,11.3878,11.5876,0.0,11.8444,11.8944,0.0,12.0799,0.0,12.244,12.4866,12.5865,0.0,12.8576,12.8648,13.0075,13.3143,13.3714,13.4499,13.564,13.721,13.7995,13.7995,13.9565,14.0564,14.092,14.2133,14.2633,14.2704,14.3846,14.4417,14.4417,14.4845,14.4987,14.5059,14.5487,14.563,14.563,14.563,14.563,14.563,14.563,14.6343,14.7271,14.6842,14.6272,14.563,14.563,14.6574,14.8,14.894,15.018,15.1699,15.2944,15.3289,15.3436,15.3802,15.3949,15.3949,15.3949,15.349,15.3656,15.5369,15.529,15.5443,15.7308,15.7631,15.7631,15.7631,15.7631,15.7631,15.7631,15.7631,15.7631,15.7631,15.7631,15.7631,15.7631,15.7631,15.7631,15.7631,15.7631,15.7631,15.7631,15.7631,15.7631,15.7631,15.7631,15.7482,15.7033,15.7033,15.6809,15.636,15.5089,15.4491,15.4491,15.4491,15.4491,9.8571,10.0584,10.2105,10.5102,10.7028,10.817,10.817,10.8241,10.8669,11.0096,10.9169,10.8955,0.0,0.0,11.2308,11.8373,12.0728,12.1798,12.1869,12.3225,12.2583,0.0,0.0,0.0,0.0,0.0,12.5366,12.6935,12.7078,12.8434,13.1573,13.3143,13.3999,13.407,13.5569,13.6354,13.6354,13.7923,13.9493,14.092,14.0992,14.1063,14.1063,14.1134,14.1206,14.1277,14.2704,14.3346,14.3489,14.4987,14.563,14.563,14.563,14.563,14.563,14.563,14.5701,14.5487,14.3988,14.4417,14.563,14.563,14.6389,14.7411,14.7411,14.8303,14.9592,15.1146,15.1513,15.1879,15.3582,15.3949,15.3949,15.3949,15.4729,15.5524,15.5674,15.6621,15.7434,15.7631,15.7631,15.7631,15.7631,15.7631,15.7631,15.7631,15.7631,15.7631,15.7631,15.7631,15.7631,15.7631,15.7631,15.7631,15.7631,15.7631,15.7631,15.7631,15.7631,15.7631,15.7631,15.7631,15.6884,15.5313,15.5238,15.4491,15.2846,15.2771,15.2696,15.2696,15.2696,15.2696,9.2462,9.4984,9.7497,9.9193,10.239,10.5102,10.5102,10.66,10.8241,10.8812,10.924,11.0239,11.2379,11.2308,11.295,11.6232,11.6375,11.609,11.609,11.6589,11.6732,11.6018,11.7303,11.8658,0.0,12.0799,12.2583,12.5223,12.5437,12.6793,12.9932,13.0646,13.1359,13.2358,13.3928,13.4784,13.4784,13.6354,13.7353,13.7923,13.8994,13.9993,14.092,14.092,14.092,14.0992,14.1491,14.1776,14.1776,14.2347,14.2633,14.2633,14.2633,14.2633,14.2633,14.2633,14.3204,14.3846,14.2276,14.2133,14.2633,14.2633,14.4127,14.5948,14.6743,14.8473,15.0481,15.1815,15.2249,15.262,15.433,15.4776,15.4999,15.6114,15.6047,15.5899,15.6757,15.669,15.669,15.7434,15.7631,15.7631,15.7631,15.7631,15.7631,15.7631,15.7631,15.7631,15.7631,15.7631,15.7631,15.7631,15.7631,15.7631,15.7631,15.7631,15.7631,15.7631,15.7631,15.7183,15.6061,15.5986,15.5238,15.3519,15.3519,15.3219,15.2546,15.1574,15.1051,15.1051,15.1051,15.1051,8.708,8.9923,9.3307,9.3334,9.7192,10.1034,10.1034,10.3032,10.5244,10.6315,10.7313,10.8883,11.1452,11.1951,11.2451,11.4092,11.345,11.2736,11.2736,11.2736,11.3164,11.4163,11.5662,11.7231,11.8801,11.9443,12.087,12.3582,12.4224,12.5722,12.8362,12.9004,12.9718,13.0788,13.2358,13.3143,13.3143,13.4713,13.5498,13.5498,13.7067,13.8352,13.9351,13.9351,13.9351,13.9351,13.9351,13.9636,14.0135,14.0135,14.0492,14.092,14.092,14.092,14.092,14.092,14.092,14.0778,13.9707,13.9608,13.9931,14.0611,14.249,14.4861,14.607,14.8044,15.0079,15.1456,15.1799,15.2173,15.3818,15.4266,15.4565,15.5687,15.525,15.4909,15.579,15.525,15.4909,15.579,15.6435,15.6809,15.6809,15.7257,15.7631,15.7631,15.7631,15.7631,15.7631,15.7631,15.7631,15.7631,15.7631,15.7631,15.7631,15.7631,15.7407,15.6809,15.6809,15.6061,15.4341,15.4266,15.3519,15.1799,15.1799,15.1275,15.0079,14.9032,14.8583,14.8733,14.8733,14.9107,8.3024,8.5836,8.9663,8.803,9.204,9.633,9.6259,9.7467,9.9465,10.2604,10.3246,10.4673,10.9326,11.0168,11.081,11.2379,11.2665,11.2665,11.2736,11.2736,11.2736,11.2736,11.4163,11.5733,11.7231,11.873,12.0228,12.1869,12.351,12.5151,12.6721,12.8291,12.9147,12.9219,13.0646,13.143,13.1502,13.3072,13.3856,13.3856,13.5426,13.6211,13.6211,13.6211,13.6282,13.6282,13.6282,13.7139,13.8566,13.8566,13.9422,14.0778,14.0778,14.0778,14.0778,14.0778,13.8851,13.6282,13.6319,13.7014,13.8076,13.9788,14.1837,14.3889,14.5372,14.671,14.791,14.963,15.0079,15.0453,15.2098,15.2472,15.2546,15.2546,15.2546,15.2546,15.2546,15.2546,15.2546,15.2546,15.3892,15.5014,15.5014,15.6435,15.7557,15.7557,15.7557,15.7557,15.7557,15.7631,15.7631,15.7631,15.7631,15.7631,15.7631,15.7631,15.6884,15.5238,15.5089,15.4266,15.2546,15.2472,15.1724,15.0154,15.0079,14.8434,14.5143,14.5143,14.5293,14.5723,14.5723,14.677,8.4699,0.0,0.0,8.6766,9.0355,9.3389,9.2169,9.3693,9.5826,9.7824,9.9179,10.1106,10.4673,10.6243,10.787,11.0633,11.1078,11.1452,11.2594,11.2736,11.2736,11.2736,11.4163,11.5305,11.5733,11.6161,11.7017,11.8587,12.0157,12.1727,12.3368,12.5009,12.6436,12.7577,12.8006,12.879,12.9932,13.036,13.1145,13.2215,13.3856,13.457,13.4641,13.5712,13.6282,13.6282,13.6282,13.6496,13.6925,13.6925,13.7139,13.7567,13.7567,13.7567,13.7567,13.7567,13.6996,13.6319,13.7146,13.7569,13.8049,13.9235,14.0635,14.1962,14.2332,14.3297,14.4545,14.619,14.6639,14.7237,15.0154,15.0901,15.12,15.2322,15.2546,15.2546,15.2546,15.2546,15.2546,15.2546,15.292,15.3294,15.3294,15.4715,15.5837,15.5837,15.5837,15.5837,15.5837,15.6884,15.7631,15.7631,15.7631,15.7631,15.7631,15.651,15.5612,15.5164,15.3967,15.2546,15.0976,15.0901,14.9555,14.6639,14.6639,14.5592,14.3498,14.3498,14.3573,14.3648,14.3648,14.3947,7.9138,0.0,0.0,0.0,8.1873,8.4756,8.7993,8.9228,9.0789,9.4462,9.5772,9.7353,10.1168,10.2934,10.4816,0.0,10.9597,11.0738,11.1666,11.2308,11.2736,11.2736,11.3521,11.4092,11.4092,11.4734,11.5448,11.6375,11.7874,11.9443,12.1013,12.2654,12.4295,12.5936,12.6579,12.7363,12.8291,12.8933,12.9718,13.0646,13.2215,13.2929,13.3,13.3856,13.4285,13.4285,13.4285,13.4641,13.5283,13.5283,13.5712,13.6282,13.6282,13.6282,13.6068,13.4784,13.4285,13.4425,13.5523,13.6132,13.6829,13.8566,13.9902,14.0927,14.1671,14.2275,14.305,14.4022,14.4246,14.4695,14.6639,14.7686,14.8359,14.9256,15.0004,15.0527,15.0527,15.0527,15.0527,15.0527,15.1126,15.1574,15.1574,15.2995,15.3818,15.3219,15.3668,15.4042,15.4042,15.4939,15.5538,15.5538,15.5538,15.5538,15.5538,15.464,15.3743,15.3145,15.2173,15.0527,14.8209,14.8135,14.6938,14.4246,14.4246,14.3424,14.1853,14.1928,14.2207,14.2356,14.2431,14.1269,6.955,6.855,0.0,6.9581,7.0612,7.3547,0.0,0.0,8.3801,8.9999,9.1019,9.2448,9.7307,9.9296,10.1352,10.4796,10.7781,10.9898,11.0382,11.1595,11.2522,11.2522,11.2665,11.2736,11.2736,11.4021,11.4877,11.4877,11.6304,11.7731,11.9158,12.0728,12.2226,12.3724,12.5294,12.6222,12.6436,12.7934,12.8862,12.9004,13.0432,13.1074,13.1074,13.1216,13.1359,13.1359,13.1502,13.2358,13.3642,13.35,13.4142,13.5212,13.5426,13.5462,13.4997,13.221,13.1312,13.1544,13.2595,13.3571,13.4749,13.7305,13.8742,13.9834,14.133,14.1928,14.2078,14.2227,14.2451,14.2676,14.2825,14.3947,14.4994,14.4994,14.6116,14.7162,14.7162,14.7312,14.7462,14.7462,14.8808,14.9929,14.9929,15.1275,15.1724,14.9929,15.12,15.2322,15.2322,15.2472,15.2546,15.2546,15.2546,15.2546,15.2546,15.2247,15.1425,15.0079,14.963,14.806,14.5069,14.477,14.3947,14.2377,14.2152,14.1255,13.9535,13.9888,14.0292,14.067,14.0894,13.8328,0.0,0.0,0.0,0.0,0.0,0.0,0.0,0.0,7.1294,7.5205,7.8001,8.1631,8.7774,9.2304,9.684,10.1963,10.4423,10.6853,10.9969,11.0667,11.0881,11.0881,11.1951,11.2736,11.2736,11.3022,11.3164,11.3164,11.4663,11.5662,11.6018,11.7517,11.8444,11.8801,12.03,12.1727,12.3011,12.4652,12.615,12.7435,12.772,12.7863,12.7863,12.9147,12.9718,12.9789,13.1002,13.1787,13.193,13.0646,12.9647,12.8862,13.0146,13.0253,12.975,12.9192,12.9441,13.0368,13.1439,13.1861,13.2269,13.3586,13.4271,13.445,13.4824,13.5871,13.7217,13.8413,13.9759,14.1105,14.2526,14.3124,14.3349,14.3349,14.3573,14.3872,14.3872,14.4844,14.5667,14.5667,14.7088,14.8209,14.8209,14.9555,14.9705,14.6639,14.8733,15.0677,15.0677,15.1799,15.2546,15.2546,15.2546,15.2546,15.2546,15.0154,14.8583,14.8209,14.5742,14.4022,14.3349,14.2003,14.0507,13.8862,13.7591,13.617,13.4697,13.4824,13.5011,13.5443,13.5443,13.378,0.0,0.0,0.0,0.0,0.0,0.0,0.0,0.0,0.0,0.0,0.0,7.3922,0.0,0.0,8.9597,9.5642,10.0362,10.4276,10.7054,10.914,11.0096,10.9311,11.0596,11.1595,11.1595,11.2308,11.2736,11.2736,11.345,11.4306,11.5091,11.5876,11.6589,11.7374,11.8159,11.9301,12.087,12.2511,12.4153,12.5794,12.6579,12.6935,12.6935,12.7792,12.8077,12.8148,12.8933,12.929,12.9219,12.8434,12.7649,12.6935,12.7411,12.6989,12.6078,12.7314,12.8688,12.9894,13.0081,13.0704,13.1635,13.2616,13.2955,13.2955,13.2955,13.3553,13.4375,13.5198,13.6021,13.6843,13.774,13.9161,14.0358,14.0358,14.1629,14.29,14.29,14.3498,14.4022,14.4022,14.4695,14.5293,14.5293,14.6041,14.6041,14.4321,14.619,14.7761,14.7761,14.9181,14.9555,14.791,14.7761,14.7761,14.7761,14.5443,14.477,14.634,14.4246,14.2152,14.0432,13.9535,13.7516,13.4226,13.3553,13.2506,13.0936,13.1279,13.1531,13.1678,12.9314,12.796,0.0,0.0,0.0,0.0,0.0,0.0,0.0,0.0,0.0,0.0,0.0,0.0,0.0,0.0,0.0,8.8547,9.5883,10.1673,10.3774,10.6838,10.8412,10.7242,10.8812,10.9953,10.9953,11.1095,11.1951,11.2308,11.2308,11.295,11.4591,11.4663,11.5234,11.6447,11.6803,11.7588,11.8801,12.0371,12.1869,12.3225,12.4795,0.0,12.558,12.6222,12.6507,12.6507,12.6793,12.6935,12.6935,12.665,12.6507,12.6322,12.5309,12.4013,12.3234,12.5415,12.725,12.8491,12.7963,12.8653,12.9962,13.0729,13.1085,13.1085,13.1085,13.131,0.0,13.1908,13.2282,13.2581,13.288,13.4899,13.6918,13.6918,13.8937,14.0956,14.0956,14.1479,14.1928,14.1928,14.2451,14.29,14.29,14.2377,14.1778,14.1479,14.3349,14.477,14.477,14.619,14.634,14.4097,14.3797,14.3723,14.3349,14.1479,14.1479,14.4097,14.2526,13.9759,13.6095,13.5048,13.2656,12.8742,12.8244,12.7945,12.7694,12.7908,12.8133,12.84,11.9744,11.7466,0.0,0.0,0.0,0.0,0.0,0.0,0.0,0.0,0.0,0.0,0.0,0.0,0.0,0.0,0.0,0.0,9.0905,9.8037,10.1749,10.2689,10.3255,10.3899,10.6529,10.8312,10.8312,10.8455,10.9169,11.0596,11.0667,11.1381,11.295,11.3022,0.0,0.0,0.0,11.5448,11.5662,11.716,11.8016,11.823,11.98,12.0514,12.0656,12.351,12.4866,12.4937,12.6364,12.6935,12.6864,12.5437,12.4866,12.4563,12.1861,12.0657,12.0655,12.1899,12.292,12.381,12.3761,0.0,0.0,12.4158,12.4206,12.4206,12.4206,12.5253,12.6748,12.8244,12.9665,13.101,13.2581,13.3254,13.3553,13.3553,13.3777,13.4076,13.4076,13.632,13.8413,13.8413,14.0806,14.29,14.29,14.0358,13.789,13.6544,14.0208,14.3124,14.3124,14.4545,14.5966,14.7088,14.7162,0.0,14.5069,14.2078,14.0507,14.0881,13.804,13.4151,12.9365,12.4954,12.2458,12.213,11.9017,11.9914,12.5066,12.3274,12.3417,12.4983,10.2052,9.6281,0.0,0.0,0.0,0.0,0.0,0.0,0.0,0.0,0.0,0.0,0.0,0.0,0.0,0.0,0.0,0.0,8.4183,8.873,9.0419,9.4896,9.8501,9.9728,10.2354,10.396,10.396,10.5601,10.6957,10.767,10.8526,10.9739,11.1309,11.1381,11.1809,11.2736,11.3378,11.4163,11.5091,11.5733,11.6518,11.7445,11.8088,11.8373,11.8444,11.98,12.0442,12.0442,12.1156,12.137,12.137,12.1261,12.1244,12.106,0.0,0.0,0.0,0.0,12.1486,12.2935,12.1962,12.2262,12.3084,12.3084,12.3084,12.3084,12.3084,12.3533,12.4281,12.4954,12.5627,12.63,12.7047,12.8692,13.0113,13.0113,13.1609,13.2955,13.2955,13.4002,13.4974,13.4974,13.617,0.0,13.5796,13.5273,13.5123,13.5422,13.804,14.0283,14.1255,14.2825,14.3349,14.2078,14.2003,14.1704,14.0956,13.8862,0.0,0.0,0.0,13.5497,13.2506,12.944,0.0,0.0,0.0,11.0977,11.1467,10.4929,0.0,0.0,9.2029,8.9599,0.0,0.0,0.0,0.0,0.0,0.0,0.0,0.0,0.0,0.0,0.0,0.0,0.0,0.0,0.0,0.0,7.6799,8.1161,8.1161,8.7218,9.2353,9.4511,9.7499,9.9066,9.8206,10.1358,10.3729,10.4324,10.6271,10.806,10.9381,10.9882,11.0642,11.2023,11.2094,11.2879,11.4449,11.4449,11.5019,11.6161,11.6589,11.6803,11.6803,11.7231,11.7445,11.7445,11.7742,11.7761,11.7852,11.8754,11.9086,11.9026,11.8215,11.8746,12.0005,11.9316,11.9854,12.0916,12.0243,12.0766,12.1663,12.114,12.1065,12.0916,12.0542,12.0691,12.114,12.1589,12.2037,12.2486,12.2935,12.4879,12.6748,12.6748,12.8543,13.0263,13.0263,13.0637,13.0936,13.0936,13.0562,12.9889,12.8618,13.0188,13.1908,13.2656,13.5273,13.7591,13.8862,14.0881,14.1405,13.9386,13.9236,13.9012,13.8563,13.6619,13.6694,13.946,13.7217,13.5497,13.4824,13.1459,12.7069,12.1559,11.1841,10.5143,0.0,0.0,0.0,0.0,0.0,0.0,0.0,0.0,0.0,0.0,0.0,0.0,0.0,0.0,0.0,0.0,0.0,0.0,0.0,0.0,0.0,0.0,0.0,0.0,7.7878,8.0734,8.4172,8.7744,9.2413,9.4012,9.083,9.4807,9.8616,10.0851,10.3974,10.6133,10.6956,10.8475,10.9595,11.0453,11.0524,11.1238,11.2808,11.2808,11.2808,11.2879,11.4449,11.5162,11.5234,11.6732,11.7445,11.7538,11.8322,11.8672,11.8754,11.9703,12.0142,11.9917,11.8679,11.7206,11.601,11.7655,11.7251,11.613,11.77,11.8298,11.8074,11.6429,11.5905,11.5606,11.4111,11.4709,11.6205,11.785,11.9495,12.114,12.2635,12.3159,12.3234,12.3234,12.3308,12.3383,12.3383,12.4654,12.5776,12.5776,12.4505,12.3383,12.3308,12.6075,12.772,12.615,13.1384,0.0,13.5647,13.8413,14.1031,14.2526,14.2751,14.2078,14.0358,13.7367,13.617,13.7815,13.3329,13.1384,13.2955,12.5327,11.942,11.598,10.9596,10.4269,9.9962,0.0,0.0,0.0,0.0,0.0,0.0,0.0,0.0,0.0,0.0,0.0,0.0,0.0,0.0,0.0,0.0,0.0,0.0,0.0,0.0,0.0,0.0,0.0,0.0,7.5761,8.1733,8.4098,8.6308,8.6839,8.4599,8.7802,9.0831,9.265,9.7887,10.1498,10.2859,10.5477,10.7528,10.8847,10.9333,10.9883,11.0387,11.0943,11.1166,11.1238,11.2808,11.3521,11.3521,11.4092,11.4681,11.5224,11.5562,11.6041,11.6636,11.7522,11.7029,11.545,11.3931,11.2914,11.2466,11.3064,11.2914,11.269,11.441,11.4933,11.4709,11.2989,11.1643,11.0671,11.0148,11.112,11.254,11.3139,11.5232,11.7476,11.7999,11.9794,12.1514,12.1514,12.2262,12.3084,12.3084,12.3533,12.3907,12.3907,12.0766,11.7102,11.3812,11.9644,12.3458,11.957,12.5627,13.1758,13.5048,13.6469,13.774,13.9386,13.9535,13.9311,13.8713,13.7666,13.6843,13.632,13.4675,13.2581,12.9814,12.7047,12.3608,11.9345,11.6079,10.6816,9.133,0.0,0.0,0.0,0.0,0.0,0.0,0.0,0.0,0.0,0.0,0.0,0.0,0.0,0.0,0.0,0.0,0.0,0.0,0.0,0.0,0.0,0.0,0.0,0.0,0.0,0.0,8.069,8.1441,0.0,7.7835,7.9411,8.1364,8.3254,8.9539,9.4084,9.6027,9.9757,10.2947,10.5428,10.5999,10.7103,10.8775,10.9338,10.9891,11.0468,11.1221,11.1652,11.1981,11.1652,11.2278,11.3647,11.3499,11.3983,11.5008,11.4736,11.2773,10.9699,10.8577,10.7082,10.5661,10.6857,10.7231,10.7605,10.9923,11.1045,11.1269,10.9549,10.6334,10.2894,10.2371,10.252,10.3343,10.5063,10.8343,11.178,11.3513,11.6354,11.8897,11.8897,12.0168,12.1289,12.1289,12.0392,11.942,11.8822,11.613,11.1942,10.5885,11.1045,11.5232,11.2615,11.8281,12.5479,13.273,13.4226,13.5422,13.7591,13.6768,13.632,13.6918,13.6469,13.5647,13.4675,13.3478,13.1459,12.8244,12.6374,12.2635,11.6653,11.3947,10.3531,0.0,0.0,0.0,0.0,0.0,0.0,0.0,0.0,0.0,0.0,0.0,0.0,0.0,0.0,0.0,0.0,0.0,0.0,0.0,0.0,0.0,0.0,0.0,0.0,0.0,0.0,0.0,7.7169,7.7275,0.0,0.0,0.0,0.0,7.3225,7.9489,8.4261,8.668,9.1537,9.6057,10.0143,10.0376,10.2719,10.7532,10.7689,10.8568,11.0106,10.9356,10.9501,11.0326,10.9501,11.0445,11.2722,11.2211,11.2828,11.3901,11.1123,10.7082,10.267,10.2296,9.923,9.5416,9.8707,9.9864,10.0388,10.4091,10.6259,10.7231,10.5511,9.9604,9.2799,9.078,8.9215,0.0,0.0,9.87,10.3873,10.8642,11.2466,11.5083,11.5382,11.6728,11.7924,11.7924,11.5457,11.254,11.0372,10.9774,10.7007,9.8632,0.0,10.3122,10.4579,10.954,11.7121,12.8493,13.1609,13.4002,13.7217,13.4824,13.3628,13.5198,13.3927,13.288,13.273,12.9814,12.7945,12.772,12.2785,11.6205,10.8129,10.3158,0.0,0.0,0.0,0.0,0.0,0.0,0.0,0.0,0.0,0.0,0.0,0.0,0.0,0.0,0.0,0.0,0.0,0.0,0.0,0.0,0.0,0.0,0.0,0.0,0.0,0.0,6.1168,6.6351,7.0749,6.9021,6.6532,0.0,0.0,0.0,0.0,0.0,0.0,7.7383,8.2104,8.6872,9.1669,9.3564,9.6228,9.9896,10.1846,10.295,10.3389,10.5463,10.6624,10.6892,10.794,10.9062,11.0421,11.1533,11.1831,11.0974,10.1693,9.5715,9.1902,8.6966,8.3633,8.1988,8.5097,8.6341,8.743,9.4296,9.6912,9.6613,9.25,8.9733,8.6559,7.8915,0.0,0.0,0.0,0.0,9.1824,9.6781,10.2284,10.7456,11.1194,11.3363,11.4559,11.4559,11.2914,10.8727,9.9679,9.594,9.0855,8.0162,8.4251,0.0,8.9526,9.9003,11.032,12.187,12.6874,13.0562,13.3852,13.3478,13.3179,13.3553,13.3254,13.1908,12.9515,12.8543,12.6449,12.271,11.5382,10.8748,10.304,0.0,0.0,0.0,0.0,0.0,0.0,0.0,0.0,0.0,0.0,0.0,0.0,0.0,0.0,0.0,0.0,0.0,0.0,0.0,0.0,0.0,0.0,0.0,0.0,0.0,0.0,0.0,5.6293,6.2664,6.543,6.2789,6.0098,0.0,0.0,0.0,0.0,0.0,0.0,0.0,0.0,0.0,7.9886,8.2852,8.5858,8.91,9.3388,9.5935,9.6674,10.0199,10.2096,10.2492,10.3055,10.4583,10.6848,10.7072,10.4798,10.0501,9.3248,8.6667,8.061,0.0,0.0,0.0,0.0,7.4973,7.5861,8.1875,8.4446,8.4375,8.0126,0.0,0.0,0.0,0.0,0.0,0.0,0.0,8.2474,8.7944,9.5297,10.2216,10.562,10.8353,10.9923,10.9175,10.1434,9.2763,8.6226,8.2939,7.8007,6.7875,7.1322,0.0,0.0,0.0,10.2481,11.6922,12.3612,12.8543,13.2581,13.1684,13.1085,13.1758,13.0562,12.8917,12.7122,12.4954,12.1215,11.5457,10.7979,9.9302,0.0,0.0,0.0,0.0,0.0,0.0,0.0,0.0,0.0,0.0,0.0,0.0,0.0,0.0,0.0,0.0,0.0,0.0,0.0,0.0,0.0,0.0,0.0,0.0,0.0,0.0,0.0,0.0,0.0,5.9028,5.9897,0.0,0.0,0.0,0.0,0.0,0.0,0.0,0.0,0.0,0.0,0.0,0.0,0.0,7.3629,7.6767,8.2971,8.6933,8.8617,9.2553,9.4975,9.594,9.5347,9.7399,10.1324,9.8333,0.0,8.7116,8.4349,0.0,0.0,0.0,0.0,0.0,0.0,0.0,0.0,0.0,0.0,0.0,0.0,0.0,0.0,0.0,0.0,0.0,0.0,0.0,0.0,0.0,0.0,9.6123,9.7658,10.0836,10.267,9.9042,8.5031,7.2823,7.1712,7.0339,6.6926,0.0,0.0,0.0,0.0,0.0,0.0,11.1926,12.065,12.6973,13.1534,12.9665,12.8543,12.9665,12.7197,12.5402,12.4954,11.9495,11.3587,10.753,10.0202,0.0,0.0,0.0,0.0,0.0,0.0,0.0,0.0,0.0,0.0,0.0,0.0,0.0,0.0,0.0,0.0,0.0,0.0,0.0,0.0,0.0,0.0,0.0,0.0,0.0,0.0,0.0,0.0,0.0,0.0,0.0,0.0,0.0,0.0,0.0,0.0,0.0,0.0,0.0,0.0,0.0,0.0,0.0,0.0,0.0,0.0,0.0,0.0,0.0,0.0,7.8403,8.074,8.2181,8.3503,8.664,9.0631,8.076,7.7993,7.9788,7.1263,0.0,0.0,0.0,0.0,0.0,0.0,0.0,0.0,0.0,0.0,0.0,0.0,0.0,0.0,0.0,0.0,0.0,0.0,0.0,0.0,0.0,0.0,8.0728,8.2362,8.7312,8.7864,7.4137,0.0,0.0,0.0,0.0,0.0,0.0,0.0,0.0,0.0,0.0,0.0,10.2384,11.5404,12.4355,12.6599,12.7571,12.7646,12.6524,12.5926,12.443,12.1738,11.1793,10.4838,0.0,0.0,0.0,0.0,0.0,0.0,0.0,0.0,0.0,0.0,0.0,0.0,0.0,0.0,0.0,0.0,0.0,0.0,0.0,0.0,0.0,0.0,0.0,0.0,0.0,0.0,0.0,0.0,0.0,0.0,0.0,0.0,0.0,0.0,0.0,0.0,0.0,0.0,0.0,0.0,0.0,0.0,0.0,0.0,0.0,0.0,0.0,0.0,0.0,0.0,0.0,0.0,0.0,0.0,0.0,0.0,0.0,0.0,7.1114,6.6328,0.0,0.0,0.0,0.0,0.0,0.0,0.0,0.0,0.0,0.0,0.0,0.0,0.0,0.0,0.0,0.0,0.0,0.0,0.0,0.0,0.0,0.0,0.0,0.0,0.0,0.0,0.0,0.0,0.0,0.0,0.0,0.0,0.0,0.0,0.0,0.0,0.0,0.0,0.0,0.0,9.7593,11.2373,12.2486,12.4131,12.5028,12.5178,12.4355,12.3533,12.0168,11.3438,10.542,0.0,0.0,0.0,0.0,0.0,0.0,0.0,0.0,0.0,0.0,0.0,0.0,0.0,0.0,0.0,0.0,0.0,0.0,0.0,0.0,0.0,0.0,0.0,0.0,0.0,0.0,0.0,0.0,0.0,0.0,0.0,0.0,0.0,0.0,0.0,0.0,0.0,0.0,0.0,0.0,0.0,0.0,0.0,0.0,0.0,0.0,0.0,0.0,0.0,0.0,0.0,0.0,0.0,0.0,0.0,0.0,0.0,0.0,0.0,6.2365,5.6607,0.0,0.0,0.0,0.0,0.0,0.0,0.0,0.0,0.0,0.0,0.0,0.0,0.0,0.0,0.0,0.0,0.0,0.0,0.0,0.0,0.0,0.0,0.0,0.0,0.0,0.0,0.0,0.0,0.0,0.0,0.0,0.0,0.0,0.0,0.0,0.0,0.0,0.0,0.0,0.0,9.434,11.0314,12.1215,12.2411,12.286,12.2935,12.2561,12.1439,11.6205,10.5511,9.9033,0.0,0.0,0.0,0.0,0.0,0.0,0.0,0.0,0.0,0.0,0.0,0.0,0.0,0.0,0.0,0.0,0.0,0.0,0.0,0.0,0.0,0.0,0.0,0.0,0.0,0.0,0.0,0.0,0.0,0.0,0.0,0.0,0.0,0.0,0.0,0.0,0.0,0.0,0.0,0.0,0.0,0.0,0.0,0.0,0.0,0.0,0.0,0.0,0.0,0.0,0.0,0.0,0.0,0.0,0.0,0.0,0.0,0.0,0.0,0.0,0.0,0.0,0.0,0.0,0.0,0.0,0.0,0.0,0.0,0.0,0.0,0.0,0.0,0.0,0.0,0.0,0.0,0.0,0.0,0.0,0.0,0.0,0.0,0.0,0.0,0.0,0.0,0.0,0.0,0.0,0.0,0.0,0.0,0.0,0.0,0.0,0.0,0.0,0.0,0.0,0.0,9.1121,10.9046,12.099,12.0916,12.2187,12.2486,12.1065,12.0766,11.5158,10.2146,0.0,0.0,0.0,0.0,0.0,0.0,0.0,0.0,0.0,0.0,0.0,0.0,0.0,0.0,0.0,0.0,0.0,0.0,0.0,0.0,0.0,0.0,0.0,0.0,0.0,0.0,0.0,0.0,0.0,0.0,0.0,0.0,0.0,0.0,0.0,0.0,0.0,0.0,0.0,0.0,0.0,0.0,0.0,0.0,0.0,0.0,0.0,0.0,0.0,0.0,0.0,0.0,0.0,0.0,0.0,0.0,0.0,0.0,0.0,0.0,0.0,0.0,0.0,0.0,0.0,0.0,0.0,0.0,0.0,0.0,0.0,0.0,0.0,0.0,0.0,0.0,0.0,0.0,0.0,0.0,0.0,0.0,0.0,0.0,0.0,0.0,0.0,0.0,0.0,0.0,0.0,0.0,0.0,0.0,0.0,0.0,0.0,0.0,0.0,0.0,0.0,0.0,8.9086,10.6489,11.8327,11.9121,11.9719,11.9869,11.927,11.8224,11.0746,9.4519,0.0,0.0,0.0,0.0,0.0,0.0,0.0,0.0,0.0,0.0,0.0,0.0,0.0,0.0,0.0,0.0,0.0,0.0,0.0,0.0,0.0,0.0,0.0,0.0,0.0,0.0,0.0,0.0,0.0,0.0,0.0,0.0,0.0,0.0,0.0,0.0,0.0,0.0,0.0,0.0,0.0,0.0,0.0,0.0,0.0,0.0,0.0,0.0,0.0,0.0,0.0,0.0,0.0,0.0,0.0,0.0,0.0,0.0,0.0,0.0,0.0,0.0,0.0,0.0,0.0,0.0,0.0,0.0,0.0,0.0,0.0,0.0,0.0,0.0,0.0,0.0,0.0,0.0,0.0,0.0,0.0,0.0,0.0,0.0,0.0,0.0,0.0,0.0,0.0,0.0,0.0,0.0,0.0,0.0,0.0,0.0,0.0,0.0,0.0,0.0,0.0,0.0,8.7325,10.462,11.6683,11.8074,11.8149,11.8149,11.8149,11.6653,10.768,8.906,0.0,0.0,0.0,0.0,0.0,0.0,0.0,0.0,0.0,0.0,0.0,0.0,0.0,0.0,0.0,0.0,0.0,0.0,0.0,0.0,0.0,0.0,0.0,0.0,0.0,0.0,0.0,0.0,0.0,0.0,0.0,0.0,0.0,0.0,0.0,0.0,0.0,0.0,0.0,0.0,0.0,0.0,0.0,0.0,0.0,0.0,0.0,0.0,0.0,0.0,0.0,0.0,0.0,0.0,0.0,0.0,0.0,0.0,0.0,0.0,0.0,0.0,0.0,0.0,0.0,0.0,0.0,0.0,0.0,0.0,0.0,0.0,0.0,0.0,0.0,0.0,0.0,0.0,0.0,0.0,0.0,0.0,0.0,0.0,0.0,0.0,0.0,0.0,0.0,0.0,0.0,0.0,0.0,0.0,0.0,0.0,0.0,0.0,0.0,0.0,0.0,0.0,8.58,10.417,11.6982,11.8074,11.8149,11.8149,11.8149,11.6653,10.7231,0.0,0.0,0.0,0.0,0.0,0.0,0.0,0.0,0.0,0.0,0.0,0.0,0.0,0.0,0.0,0.0,0.0,0.0,0.0,0.0,0.0,0.0,0.0,0.0,0.0,0.0,0.0,0.0,0.0,0.0,0.0,0.0,0.0,0.0,0.0,0.0,0.0,0.0,0.0,0.0,0.0,0.0,0.0,0.0,0.0,0.0,0.0,0.0,0.0,0.0,0.0,0.0,0.0,0.0,0.0,0.0,0.0,0.0,0.0,0.0,0.0,0.0,0.0,0.0,0.0,0.0,0.0,0.0,0.0,0.0,0.0,0.0,0.0,0.0,0.0,0.0,0.0,0.0,0.0,0.0,0.0,0.0,0.0,0.0,0.0,0.0,0.0,0.0,0.0,0.0,0.0,0.0,0.0,0.0,0.0,0.0,0.0,0.0,0.0,0.0,0.0,0.0,0.0,8.4949,9.9154,11.075,11.7476,11.8149,11.8149,11.8149,11.5681,10.6558,8.8911,0.0,0.0,0.0,0.0,0.0,0.0,0.0,0.0,0.0,0.0,0.0,0.0,0.0,0.0,0.0,0.0,0.0,0.0,0.0,0.0,0.0,0.0,0.0,0.0,0.0,0.0,0.0,0.0,0.0,0.0,0.0,0.0,0.0,0.0,0.0,0.0,0.0,0.0,0.0,0.0,0.0,0.0,0.0,0.0,0.0,0.0,0.0,0.0,0.0,0.0,0.0,0.0,0.0,0.0,0.0,0.0,0.0,0.0,0.0,0.0,0.0,0.0,0.0,0.0,0.0,0.0,0.0,0.0,0.0,0.0,0.0,0.0,0.0,0.0,0.0,0.0,0.0,0.0,0.0,0.0,0.0,0.0,0.0,0.0,0.0,0.0,0.0,0.0,0.0,0.0,0.0,0.0,0.0,0.0,0.0,0.0,0.0,0.0,0.0,0.0,0.0,0.0,0.0,9.7695,10.9585,11.6504,11.7775,11.7924,11.7251,11.426,10.5287,8.8761,0.0,0.0,0.0,0.0,0.0,0.0,0.0,0.0,0.0,0.0,0.0,0.0,0.0,0.0,0.0,0.0,0.0,0.0,0.0,0.0,0.0,0.0,0.0,0.0,0.0,0.0,0.0,0.0,0.0,0.0,0.0,0.0,0.0,0.0,0.0,0.0,0.0,0.0,0.0,0.0,0.0,0.0,0.0,0.0,0.0,0.0,0.0,0.0,0.0,0.0,0.0,0.0,0.0,0.0,0.0,0.0,0.0,0.0,0.0,0.0,0.0,0.0,0.0,0.0,0.0,0.0,0.0,0.0,0.0,0.0,0.0,0.0,0.0,0.0,0.0,0.0,0.0,0.0,0.0,0.0,0.0,0.0,0.0,0.0,0.0,0.0,0.0,0.0,0.0,0.0,0.0,0.0,0.0,0.0,0.0,0.0,0.0,0.0,0.0,0.0,0.0,0.0,0.0,9.8818,11.184,11.5263,11.6952,11.7251,11.5756,11.254,10.3567,8.7116,8.0205,0.0,0.0,0.0,0.0,0.0,0.0,0.0,0.0,0.0,0.0,0.0,0.0,0.0,0.0,0.0,0.0,0.0,0.0,0.0,0.0,0.0,0.0,0.0,0.0,0.0,0.0,0.0,0.0,0.0,0.0,0.0,0.0,0.0,0.0,0.0,0.0,0.0,0.0,0.0,0.0,0.0,0.0,0.0,0.0,0.0,0.0,0.0,0.0,0.0,0.0,0.0,0.0,0.0,0.0,0.0,0.0,0.0,0.0,0.0,0.0,0.0,0.0,0.0,0.0,0.0,0.0,0.0,0.0,0.0,0.0,0.0,0.0,0.0,0.0,0.0,0.0,0.0,0.0,0.0,0.0,0.0,0.0,0.0,0.0,0.0,0.0,0.0,0.0,0.0,0.0,0.0,0.0,0.0,0.0,0.0,0.0,0.0,0.0,0.0,0.0,0.0,0.0,9.4975,10.4202,11.4769,11.5083,11.4784,11.5606,11.1494,10.2371,8.7116,8.0205,0.0,0.0,0.0,0.0,0.0,0.0,0.0,0.0,0.0,0.0,0.0,0.0,0.0,0.0,0.0,0.0,0.0,0.0,0.0,0.0,0.0,0.0,0.0,0.0,0.0,0.0,0.0,0.0,0.0,0.0,0.0,0.0,0.0,0.0,0.0,0.0,0.0,0.0,0.0,0.0,0.0,0.0,0.0,0.0,0.0,0.0,0.0,0.0,0.0,0.0,0.0,0.0,0.0,0.0,0.0,0.0,0.0,0.0,0.0,0.0,0.0,0.0,0.0,0.0,0.0,0.0,0.0,0.0,0.0,0.0,0.0,0.0,0.0,0.0,0.0,0.0,0.0,0.0,0.0,0.0,0.0,0.0,0.0,0.0,0.0,0.0,0.0,0.0,0.0,0.0,0.0,0.0,0.0,0.0,0.0,0.0,0.0,0.0,0.0,0.0,0.0,0.0,8.2176,9.3286,11.0765,11.302,11.3064,11.2316,10.8428,9.9679,8.4798,7.7963,0.0,0.0,0.0,0.0,0.0,0.0,0.0,0.0,0.0,0.0,0.0,0.0,0.0,0.0,0.0,0.0,0.0,0.0,0.0,0.0,0.0,0.0,0.0,0.0,0.0,0.0,0.0,0.0,0.0,0.0,0.0,0.0,0.0,0.0,0.0,0.0,0.0,0.0,0.0,0.0,0.0,0.0,0.0,0.0,0.0,0.0,0.0,0.0,0.0,0.0,0.0,0.0,0.0,0.0,0.0,0.0,0.0,0.0,0.0,0.0,0.0,0.0,0.0,0.0,0.0,0.0,0.0,0.0,0.0,0.0,0.0,0.0,0.0,0.0,0.0,0.0,0.0,0.0,0.0,0.0,0.0,0.0,0.0,0.0,0.0,0.0,0.0,0.0,0.0,0.0,0.0,0.0,0.0,0.0,0.0,0.0,0.0,0.0,0.0,0.0,0.0,0.0,0.0,8.3233,10.3586,10.9838,11.1419,10.8502,10.5063,9.6688,8.1807,0.0,0.0,0.0,0.0,0.0,0.0,0.0,0.0,0.0,0.0,0.0,0.0,0.0,0.0,0.0,0.0,0.0,0.0,0.0,0.0,0.0,0.0,0.0,0.0,0.0,0.0,0.0,0.0,0.0,0.0,0.0,0.0,0.0,0.0,0.0,0.0,0.0,0.0,0.0,0.0,0.0,0.0,0.0,0.0,0.0,0.0,0.0,0.0,0.0,0.0,0.0,0.0,0.0,0.0,0.0,0.0,0.0,0.0,0.0,0.0,0.0,0.0,0.0,0.0,0.0,0.0,0.0,0.0,0.0,0.0,0.0,0.0,0.0,0.0,0.0,0.0,0.0,0.0,0.0,0.0,0.0,0.0,0.0,0.0,0.0,0.0,0.0,0.0,0.0,0.0,0.0,0.0,0.0,0.0,0.0,0.0,0.0,0.0,0.0,0.0,0.0,0.0,0.0,0.0,8.2641,9.1587,10.2615,10.9101,10.8353,10.4016,9.4968,8.0012,0.0,0.0,0.0,0.0,0.0,0.0,0.0,0.0,0.0,0.0,0.0,0.0,0.0,0.0]}],[{"header":{"parameterUnit":"kt","parameterCategory":2,"dx":1,"dy":1,"la1":29.285339999999998,"la2":30.599998999999997,"lo1":-89.70041500000002,"lo2":-87.6738589999976,"nx":112,"ny":82,"refTime":"2022-10-02T18:00:00:Z","depth":0,"parameterNumber":2,"parameterNumberName":"V-component_of_WINDS"},"data":[1.8789,1.9106,1.9119,1.7391,1.7246,1.7075,1.5348,1.5625,1.6086,1.5506,1.5967,0.0,0.0,0.0,0.0,0.0,0.0,0.0,0.0,1.275,0.0,0.0,0.0,0.0,0.0,0.0,0.0,3.3567,3.4739,3.719,4.2341,4.5492,4.7265,4.7863,4.8798,4.9577,5.0148,5.0684,5.0971,5.1005,5.1187,5.1291,5.1291,5.1291,5.1291,5.1291,5.1291,5.1291,5.1291,5.1291,5.1291,5.1291,5.1291,5.1291,5.1291,5.1291,5.1421,5.1293,5.168,5.2403,5.3446,5.3083,5.3628,5.4277,5.3706,5.394,5.4355,5.4147,5.3836,5.355,5.355,5.355,5.355,5.355,5.3836,5.3992,5.3628,5.355,5.355,5.355,5.3897,5.4106,5.4303,5.4407,5.4459,5.4667,5.4693,5.4693,5.4693,5.4693,5.4693,5.4693,5.4693,5.4693,5.4693,5.4693,5.4037,5.2342,4.6975,4.2257,3.8895,3.3184,2.9484,2.7795,2.7795,2.7795,2.7795,2.7795,2.7795,2.7795,2.7795,2.7795,1.7932,1.8354,1.8459,1.6416,1.635,1.6323,1.457,1.4847,1.5348,1.4873,0.0,0.0,0.0,0.0,0.0,0.0,0.0,0.0,0.0,0.0,0.0,0.0,0.0,0.0,0.0,0.0,3.3332,3.81,3.8316,4.0211,4.5448,4.7239,4.8356,4.8746,4.9795,5.0475,5.0745,5.1076,5.1258,5.1291,5.1291,5.1291,5.1291,5.1291,5.1291,5.1291,5.1291,5.1291,5.1291,5.1291,5.1291,5.1291,5.1291,5.1291,5.1291,5.1291,5.1421,5.1654,5.2226,5.3161,5.407,5.3706,5.4096,5.4641,5.4251,5.4407,5.4693,5.4693,5.4433,5.4147,5.4147,5.4147,5.4147,5.4147,5.4433,5.4589,5.4225,5.4147,5.4147,5.4147,5.4498,5.4954,5.4968,5.4693,5.4693,5.4693,5.4693,5.4693,5.4693,5.4693,5.4693,5.4693,5.4693,5.4693,5.4693,5.4693,5.4693,5.4693,4.9298,4.5288,4.3617,3.6226,3.1509,3.0156,2.8469,2.7795,2.7795,2.7795,2.7795,2.7795,2.7795,2.7795,1.7273,1.7312,1.7286,1.5295,1.5229,1.5335,1.4187,1.4557,1.5084,0.0,0.0,0.0,0.0,0.0,0.0,0.0,0.0,0.0,0.0,0.0,0.0,0.0,0.0,0.0,4.0683,3.8643,3.8877,4.3344,4.163,4.2591,4.7655,4.8486,4.9317,5.0434,5.1143,5.1406,5.1291,5.1291,5.1291,5.1291,5.1291,5.1291,5.1291,5.1291,5.1291,5.1291,5.1291,5.1291,5.1291,5.1291,5.1291,5.1291,5.1291,5.1317,5.1317,5.1343,5.168,5.2226,5.2455,5.3384,5.4693,5.4693,5.4693,5.4693,5.4693,5.4693,5.4693,5.4693,5.4693,5.4693,5.4693,5.4693,5.4693,5.4693,5.4693,5.4693,5.4693,5.4693,5.4693,5.4693,5.4693,5.4693,5.4693,5.4693,5.4693,5.4693,5.4693,5.4693,5.4693,5.4693,5.4693,5.4693,5.4693,5.4693,5.4693,5.4693,5.4693,5.4693,5.4693,5.2671,4.8327,4.3617,3.9232,3.4529,3.0156,2.7795,2.7795,2.7795,2.7795,2.7795,2.7795,2.7795,1.6205,1.6561,1.6877,1.5691,1.5677,1.5756,1.4992,1.4688,0.0,0.0,1.5255,0.0,0.0,0.0,0.0,0.0,0.0,2.0116,0.0,2.3513,0.0,0.0,0.0,3.9809,4.2669,4.2539,4.3396,4.5915,4.5136,4.5707,4.8382,4.9795,5.0801,5.1117,5.1206,5.1467,5.1291,5.1291,5.1291,5.1291,5.1291,5.1291,5.1291,5.1291,5.1291,5.1291,5.1291,5.1291,5.1291,5.1291,5.1291,5.1291,5.1291,5.155,5.1966,5.2382,5.2356,5.2278,5.3265,5.381,5.4147,5.4563,5.4693,5.4693,5.4693,5.4693,5.4693,5.4693,5.4693,5.4693,5.4693,5.4693,5.4693,5.4693,5.4693,5.4693,5.4693,5.4693,5.4693,5.4693,5.4693,5.4693,5.4693,5.4693,5.4693,5.4693,5.4693,5.4693,5.4693,5.4693,5.4693,5.4693,5.4693,5.4693,5.4693,5.4693,5.4693,5.4693,5.1683,4.9321,4.7995,4.3617,3.9232,3.4529,3.3525,3.1168,2.7795,2.7795,2.7795,2.7795,2.7795,2.7795,0.0,0.0,0.0,0.0,0.0,0.0,1.4886,0.0,1.4794,1.5189,0.0,0.0,0.0,0.0,0.0,0.0,2.0992,2.3772,2.4872,2.9166,3.4417,4.0515,4.2539,4.3837,4.4928,4.511,4.5993,4.7967,4.7162,4.7421,4.9691,5.0658,5.1458,5.1458,5.1441,5.1291,5.1291,5.1291,5.1291,5.1291,5.1291,5.1291,5.1291,5.1291,5.1291,5.1291,5.1291,5.1291,5.1291,5.1291,5.1421,5.1319,5.1914,5.22,5.2537,5.2875,5.2927,5.2953,5.3602,5.3992,5.4251,5.4589,5.4693,5.4693,5.4693,5.4693,5.4693,5.4693,5.4693,5.4693,5.4693,5.4693,5.4693,5.4693,5.4693,5.4693,5.4693,5.4693,5.4693,5.4693,5.4693,5.4693,5.4693,5.4693,5.4693,5.4693,5.4693,5.4693,5.4693,5.4693,5.4693,5.4693,5.4693,5.4693,5.4693,5.4693,5.4693,5.4693,5.2342,5.0999,5.0999,4.6643,4.2927,4.0242,3.6547,3.3184,3.0484,2.8812,2.7795,2.7795,2.7795,2.7795,0.0,0.0,0.0,0.0,1.5519,0.0,0.0,0.0,1.5242,1.5255,0.0,1.5911,1.6956,0.0,0.0,2.1014,2.432,2.7916,3.1819,3.5361,3.8995,4.3058,4.6227,4.7889,4.7395,4.6876,4.7447,4.9551,4.8356,4.8724,5.1117,5.1363,5.1291,5.1291,5.1291,5.1291,5.1291,5.1291,5.1291,5.1291,5.1291,5.1291,5.1291,5.1291,5.1343,5.1395,5.1395,5.1421,5.1499,5.1499,5.1448,5.1599,5.2849,5.3109,5.3109,5.3161,5.3472,5.3862,5.3914,5.4277,5.4693,5.4693,5.4693,5.4693,5.4693,5.4693,5.4693,5.4693,5.4693,5.4693,5.4693,5.4693,5.4693,5.4693,5.4693,5.4693,5.4693,5.4693,5.4693,5.4693,5.4693,5.4693,5.4693,5.4693,5.4693,5.4693,5.4693,5.4693,5.4693,5.4693,5.4693,5.4693,5.4693,5.4693,5.4693,5.4693,5.4693,5.4693,5.4693,5.4693,5.4693,5.0999,4.8659,4.7995,4.0242,3.5531,3.4529,3.0498,2.8138,2.7795,2.7795,2.7795,0.0,0.0,0.0,0.0,0.0,1.4662,0.0,0.0,0.0,1.7879,1.7932,1.8763,2.2568,2.3484,2.4748,2.8909,3.3384,3.6098,3.6181,4.2544,4.7314,4.8226,4.885,4.9213,4.9109,4.9005,4.9639,5.088,5.0736,5.0668,5.1135,5.1239,5.1291,5.1291,5.1291,5.1291,5.1291,5.1291,5.1291,5.1291,5.1291,5.1291,5.1291,5.1291,5.155,5.1966,5.1966,5.2252,5.2667,5.2667,5.2719,5.2875,5.3446,5.368,5.3732,5.4199,5.4147,5.3914,5.4381,5.4615,5.4693,5.4693,5.4693,5.4693,5.4693,5.4693,5.4693,5.4693,5.4693,5.4693,5.4693,5.4693,5.4693,5.4693,5.4693,5.4693,5.4693,5.4693,5.4693,5.4693,5.4693,5.4693,5.4693,5.4693,5.4693,5.4693,5.4693,5.4693,5.4693,5.4693,5.4693,5.4693,5.4693,5.4693,5.4693,5.4693,5.4693,5.4693,5.4693,5.4693,5.4693,5.4037,5.1683,4.7995,4.631,4.1922,3.4529,3.3849,3.1509,2.7795,2.7795,2.7795,0.0,0.0,0.0,1.4181,0.0,0.0,0.0,1.5519,1.6165,1.8051,1.9769,2.1991,2.4986,2.7477,3.0194,3.4064,3.7935,4.09,4.311,4.7078,4.9603,4.9603,4.9862,5.0018,5.0018,5.0278,5.059,5.1206,5.1467,5.1291,5.1291,5.1291,5.1291,5.1291,5.1241,5.137,5.137,5.1992,5.2148,5.1809,5.1809,5.2122,5.2148,5.2148,5.2304,5.2563,5.2563,5.2745,5.3005,5.3005,5.3342,5.3888,5.4173,5.4277,5.4303,5.4589,5.4511,5.4303,5.4615,5.4693,5.4693,5.4693,5.4693,5.4693,5.4693,5.4693,5.4693,5.4693,5.4693,5.4693,5.4693,5.4693,5.4693,5.4693,5.4693,5.4693,5.4693,5.4693,5.4693,5.4693,5.4693,5.4693,5.4693,5.4693,5.4693,5.4693,5.4693,5.4693,5.4693,5.4693,5.4693,5.4693,5.4693,5.4693,5.4693,5.4693,5.4693,5.4693,5.4693,5.4693,5.4693,5.4693,5.3708,5.1353,4.6975,4.1251,3.4529,3.4529,3.2177,2.7795,2.7795,2.7795,0.0,0.0,0.0,0.0,0.0,0.0,1.5071,1.5677,1.6614,1.8288,2.1926,2.5339,2.7506,3.1601,3.5713,3.9023,4.1577,4.4641,4.9331,4.9914,4.9914,4.9914,5.033,5.0616,5.0616,5.1031,5.1291,5.1291,5.1291,5.1291,5.1291,5.1291,5.1343,5.1473,5.1525,5.1496,5.1964,5.2771,5.3005,5.2635,5.2635,5.2635,5.3005,5.3005,5.3057,5.3161,5.3161,5.3239,5.3342,5.3342,5.3862,5.4693,5.4693,5.4693,5.4693,5.4693,5.4693,5.4693,5.4693,5.4693,5.4693,5.4693,5.4693,5.4693,5.4693,5.4693,5.4693,5.4693,5.4693,5.4693,5.4693,5.4693,5.4693,5.4693,5.4693,5.4693,5.4693,5.4693,5.4693,5.4693,5.4693,5.4693,5.4693,5.4693,5.4693,5.4693,5.4693,5.4693,5.4693,5.4693,5.4693,5.4693,5.4693,5.4693,5.4693,5.4693,5.4693,5.4693,5.4693,5.4693,5.4693,5.4693,5.4693,5.4693,4.7617,4.1251,3.587,3.5191,3.2177,2.7795,2.7795,2.7795,0.0,0.0,0.0,0.0,1.2698,0.0,1.7497,1.8064,1.8657,2.1149,2.5296,2.9415,3.3061,3.78,4.247,4.6054,4.775,4.9357,5.0927,5.1109,5.1109,5.1109,5.1161,5.1213,5.1213,5.1265,5.1291,5.1291,5.1291,5.1291,5.1291,5.1291,5.155,5.2382,5.1758,5.2382,5.4353,5.3692,5.3692,5.3375,5.3005,5.3005,5.3005,5.3005,5.3265,5.3758,5.3758,5.4044,5.4511,5.4511,5.4589,5.4693,5.4693,5.4693,5.4693,5.4693,5.4693,5.4693,5.4693,5.4693,5.4693,5.4693,5.4693,5.4693,5.4693,5.4693,5.4693,5.4693,5.4693,5.4693,5.4693,5.4693,5.4693,5.4693,5.4693,5.4693,5.4693,5.4693,5.4693,5.4693,5.4693,5.4693,5.4693,5.4693,5.4693,5.4693,5.4693,5.4693,5.4693,5.4693,5.4693,5.4693,5.4693,5.4693,5.4693,5.4693,5.4693,5.4693,5.4693,5.4693,5.4693,5.4693,5.4693,5.4693,5.3683,4.8967,4.0578,3.6547,3.2177,2.7795,2.7795,2.7795,0.0,0.0,1.2866,1.2767,0.0,0.0,1.7391,1.8222,1.9883,2.4531,2.8849,3.3387,3.8522,4.3024,4.6788,4.897,5.007,5.0745,5.1239,5.1291,5.1291,5.1291,5.1291,5.1291,5.1291,5.1291,5.1291,5.1291,5.1291,5.1291,5.1291,5.1628,5.1888,5.1783,5.2797,5.3955,5.4938,5.4533,5.4341,5.4341,5.3992,5.3992,5.3992,5.3992,5.4122,5.4355,5.4355,5.4485,5.4693,5.4693,5.4693,5.4693,5.4693,5.4693,5.4693,5.4693,5.4693,5.4693,5.4693,5.4693,5.4693,5.4693,5.4693,5.4693,5.4693,5.4693,5.4693,5.4693,5.4693,5.4693,5.4693,5.4693,5.4693,5.4693,5.4693,5.4693,5.4693,5.4693,5.4693,5.4693,5.4693,5.4693,5.4693,5.4693,5.4693,5.4693,5.4693,5.4693,5.4693,5.4693,5.4693,5.4693,5.4693,5.4693,5.4693,5.4693,5.4693,5.4693,5.4693,5.4693,5.4693,5.4693,5.4693,5.4693,5.2342,4.764,4.1251,3.9232,3.4869,2.7795,2.7795,2.7795,0.6081,0.0,0.0,0.0,0.0,0.0,1.8011,1.9513,2.2176,2.7265,3.2244,3.7119,4.1767,4.6058,4.9317,5.0304,5.0797,5.1135,5.1265,5.1291,5.1291,5.1291,5.1291,5.1291,5.1291,5.1291,5.1291,5.1291,5.1291,5.1291,5.1291,5.2016,5.2044,5.1676,5.3688,5.4638,5.4822,5.4838,5.4693,5.4693,5.4693,5.4693,5.4693,5.4693,5.4693,5.4693,5.4693,5.4693,5.4693,5.4693,5.4693,5.4693,5.4693,5.4693,5.4693,5.4693,5.4693,5.4693,5.4693,5.4693,5.4693,5.4693,5.4693,5.4693,5.4693,5.4693,5.4693,5.4693,5.4693,5.4693,5.4693,5.4693,5.4693,5.4693,5.4693,5.4693,5.4693,5.4693,5.4693,5.4693,5.4693,5.4693,5.4693,5.4693,5.4693,5.4693,5.4693,5.4693,5.4693,5.4693,5.4693,5.4693,5.4693,5.4693,5.4693,5.4693,5.4693,5.4693,5.4693,5.4693,5.4693,5.4693,5.4693,5.4693,5.1683,4.6975,4.1251,4.1251,3.6547,2.7795,2.7795,2.7795,0.0,0.0,0.0,1.564,1.6416,1.7273,2.045,2.3527,2.6172,2.838,3.5011,4.0734,4.1807,4.6107,4.9759,5.0356,5.046,5.0668,5.1213,5.1291,5.1291,5.1291,5.1291,5.1291,5.1291,5.1291,5.1291,5.1291,5.1291,5.1291,5.1291,5.1317,5.1836,5.2953,5.355,5.4122,5.4667,5.4693,5.4693,5.4693,5.4693,5.4693,5.4693,5.4693,5.4693,5.4693,5.4693,5.4693,5.4693,5.4693,5.4693,5.4693,5.4693,5.4693,5.4693,5.4693,5.4693,5.4693,5.4693,5.4693,5.4693,5.4693,5.4693,5.4693,5.4693,5.4693,5.4693,5.4693,5.4693,5.4693,5.4693,5.4693,5.4693,5.4693,5.4693,5.4693,5.4693,5.4693,5.4693,5.4693,5.4693,5.4693,5.4693,5.4693,5.4693,5.4693,5.4693,5.4693,5.4693,5.4693,5.4693,5.4693,5.4693,5.4693,5.4693,5.4693,5.4693,5.4693,5.4693,5.4693,5.4693,5.4693,5.4693,5.4693,5.4693,5.0314,4.1251,4.1251,3.6547,2.7795,2.7795,2.7795,0.9287,1.1026,1.3829,1.6668,1.7932,1.8947,2.0609,2.4291,2.8306,3.2354,3.7213,4.2161,4.5857,4.8174,4.9655,4.9862,5.0512,5.1083,5.1265,5.1291,5.1291,5.1291,5.1291,5.1291,5.1291,5.1291,5.1291,5.1291,5.1291,5.1291,5.1291,5.1293,5.1861,5.2979,5.355,5.4122,5.4693,5.4693,5.4693,5.4693,5.4693,5.4693,5.4693,5.4693,5.4693,5.4693,5.4693,5.4693,5.4693,5.4693,5.4693,5.4693,5.4693,5.4693,5.4693,5.4693,5.4693,5.4693,5.4693,5.4693,5.4693,5.4693,5.4693,5.4693,5.4693,5.4693,5.4693,5.4693,5.4693,5.4693,5.4693,5.4693,5.4693,5.4693,5.4693,5.4693,5.4693,5.4693,5.4693,5.4693,5.4693,5.4693,5.4693,5.4693,5.4693,5.4693,5.4693,5.4693,5.4693,5.4693,5.4693,5.4693,5.4693,5.4693,5.4693,5.4693,5.4693,5.4693,5.4693,5.4693,5.4693,5.4693,5.4693,5.4693,5.4693,5.0314,4.1251,4.1251,3.6547,2.7795,2.7795,2.7795,1.1527,1.3077,1.4913,1.7528,1.9053,2.0068,2.0951,2.5514,3.0844,3.4326,3.9322,4.4177,4.7648,4.8746,4.9109,4.9525,5.0226,5.1154,5.1239,5.1291,5.1291,5.1291,5.1291,5.1291,5.1291,5.1291,5.1291,5.1291,5.1499,5.1576,5.1267,5.1783,5.2351,5.329,5.3654,5.4122,5.4693,5.4693,5.4693,5.4693,5.4693,5.4693,5.4693,5.4693,5.4693,5.4693,5.4693,5.4693,5.4693,5.4693,5.4693,5.4693,5.4693,5.4693,5.4693,5.4693,5.4693,5.4693,5.4693,5.4693,5.4693,5.4693,5.4693,5.4693,5.4693,5.4693,5.4693,5.4693,5.4693,5.4693,5.4693,5.4693,5.4693,5.4693,5.4693,5.4693,5.4693,5.4693,5.4693,5.4693,5.4693,5.4693,5.4693,5.4693,5.4693,5.4693,5.4693,5.4693,5.4693,5.4693,5.4693,5.4693,5.4693,5.4693,5.4693,5.4693,5.4693,5.4693,5.4693,5.4693,5.4693,5.4693,5.4693,5.4693,5.4693,5.0999,4.3617,4.1922,3.7562,3.0156,2.8469,2.7795,1.2888,1.4346,1.5981,1.8539,1.9818,2.0661,2.1505,2.7517,3.3523,3.483,4.1066,4.6538,4.7655,4.7889,4.8304,4.9421,4.9952,5.037,5.1135,5.1291,5.1291,5.1291,5.1291,5.1291,5.1291,5.1291,5.1291,5.1291,5.1784,5.1758,5.142,5.2326,5.3265,5.381,5.3862,5.4147,5.4693,5.4693,5.4693,5.4693,5.4693,5.4693,5.4693,5.4693,5.4693,5.4693,5.4693,5.4693,5.4693,5.4693,5.4693,5.4693,5.4693,5.4693,5.4693,5.4693,5.4693,5.4693,5.4693,5.4693,5.4693,5.4693,5.4693,5.4693,5.4693,5.4693,5.4693,5.4693,5.4693,5.4693,5.4693,5.4693,5.4693,5.4693,5.4693,5.4693,5.4693,5.4693,5.4693,5.4693,5.4693,5.4693,5.4693,5.4693,5.4693,5.4693,5.4693,5.4693,5.4693,5.4693,5.4693,5.4693,5.4693,5.4693,5.4693,5.4693,5.4693,5.4693,5.4693,5.4693,5.4693,5.4693,5.4693,5.4693,5.4693,5.2342,4.7663,4.3262,3.8895,3.4189,2.9813,2.7795,1.4942,1.6799,1.8209,1.9963,2.0727,2.1176,2.1598,2.7517,3.3523,3.483,4.1066,4.6434,4.7136,4.7967,4.8746,4.9125,4.9615,5.0486,5.1187,5.1291,5.1291,5.1291,5.1291,5.1291,5.1291,5.1291,5.1291,5.1291,5.1421,5.168,5.1783,5.2667,5.3265,5.381,5.4251,5.4563,5.4693,5.4693,5.4693,5.4693,5.4693,5.4693,5.4693,5.4693,5.4693,5.4693,5.4693,5.4693,5.4693,5.4693,5.4693,5.4693,5.4693,5.4693,5.4693,5.4693,5.4693,5.4693,5.4693,5.4693,5.4693,5.4693,5.4693,5.4693,5.4693,5.4693,5.4693,5.4693,5.4693,5.4693,5.4693,5.4693,5.4693,5.4693,5.4693,5.4693,5.4693,5.4693,5.4693,5.4693,5.4693,5.4693,5.4693,5.4693,5.4693,5.4693,5.4693,5.4693,5.4693,5.4693,5.4693,5.4693,5.4693,5.4693,5.4693,5.4693,5.4693,5.4693,5.4693,5.4693,5.4693,5.4693,5.4693,5.4693,5.4693,5.0999,4.2927,4.1922,3.7224,2.9484,2.8469,2.7795,1.4559,1.6917,1.8855,2.045,2.2084,2.3428,2.4013,2.9905,3.5619,3.7099,4.2041,4.6382,4.6954,4.7785,4.8564,4.8789,4.9383,4.9951,5.0493,5.1109,5.1291,5.1291,5.1291,5.1291,5.1291,5.1291,5.1291,5.1291,5.1525,5.1914,5.2485,5.3057,5.3628,5.4199,5.4537,5.4693,5.4693,5.4693,5.4693,5.4693,5.4693,5.4693,5.4693,5.4693,5.4693,5.4693,5.4693,5.4693,5.4693,5.4693,5.4693,5.4693,5.4693,5.4693,5.4693,5.4693,5.4693,5.4693,5.4693,5.4693,5.4693,5.4693,5.4693,5.4693,5.4693,5.4693,5.4693,5.4693,5.4693,5.4693,5.4693,5.4693,5.4693,5.4693,5.4693,5.4693,5.4693,5.4693,5.4693,5.4693,5.4693,5.4693,5.4693,5.4693,5.4693,5.4693,5.4693,5.4693,5.4693,5.4693,5.4693,5.4693,5.4693,5.4693,5.4693,5.4693,5.4693,5.4693,5.4693,5.4693,5.4693,5.4693,5.4693,5.4693,5.2696,4.8304,4.1251,3.9232,3.587,3.0826,2.8812,2.7795,1.3555,1.5981,1.8644,2.0358,2.3553,2.6492,2.7151,3.279,3.8428,3.9501,4.3184,4.6279,4.6824,4.7395,4.7993,4.8642,4.8918,4.946,4.97,5.0596,5.1291,5.1291,5.1291,5.1291,5.1291,5.1291,5.1291,5.1291,5.181,5.2382,5.2979,5.3524,5.4096,5.4693,5.4693,5.4693,5.4693,5.4693,5.4693,5.4693,5.4693,5.4693,5.4693,5.4693,5.4693,5.4693,5.4693,5.4693,5.4693,5.4693,5.4693,5.4693,5.4693,5.4693,5.4693,5.4693,5.4693,5.4693,5.4693,5.4693,5.4693,5.4693,5.4693,5.4693,5.4693,5.4693,5.4693,5.4693,5.4693,5.4693,5.4693,5.4693,5.4693,5.4693,5.4693,5.4693,5.4693,5.4693,5.4693,5.4693,5.4693,5.4693,5.4693,5.4693,5.4693,5.4693,5.4693,5.4693,5.4693,5.4693,5.4693,5.4693,5.4693,5.4693,5.4693,5.4693,5.4693,5.4693,5.4693,5.4693,5.4693,5.4693,5.4365,5.4037,4.9321,4.4954,4.0242,3.6547,3.4189,3.3509,2.9484,2.7795,1.5189,1.6904,1.8591,2.0094,2.3213,2.6164,2.7102,3.2814,3.828,3.9433,4.2889,4.5681,4.6556,4.6798,4.7189,4.7904,4.82,4.8786,5.071,5.1258,5.1291,5.1291,5.1291,5.1291,5.1291,5.1291,5.1291,5.1291,5.181,5.2382,5.2979,5.3524,5.4096,5.4693,5.4693,5.4693,5.4693,5.4693,5.4693,5.4693,5.4693,5.4693,5.4693,5.4693,5.4693,5.4693,5.4693,5.4693,5.4693,5.4693,5.4693,5.4693,5.4693,5.4693,5.4693,5.4693,5.4693,5.4693,5.4693,5.4693,5.4693,5.4693,5.4693,5.4693,5.4693,5.4693,5.4693,5.4693,5.4693,5.4693,5.4693,5.4693,5.4693,5.4693,5.4693,5.4693,5.4693,5.4693,5.4693,5.4693,5.4693,5.4693,5.4693,5.4693,5.4693,5.4693,5.4693,5.4693,5.4693,5.4693,5.4693,5.4693,5.4693,5.4693,5.4693,5.4693,5.4693,5.4693,5.4693,5.4693,5.4693,5.4693,5.3025,4.9321,4.462,4.0242,3.587,3.4852,3.2503,2.8812,2.8138,2.7795,1.5284,1.6561,1.809,1.9396,2.2739,2.6544,2.9165,3.3897,3.8689,4.1929,4.3976,4.5162,4.6347,4.6642,4.6982,4.7834,4.8047,4.8684,4.9966,5.0745,5.1291,5.1291,5.1291,5.1291,5.1291,5.1291,5.1291,5.1291,5.181,5.2382,5.2979,5.3524,5.4096,5.4693,5.4693,5.4693,5.4693,5.4693,5.4693,5.4693,5.4693,5.4693,5.4693,5.4693,5.4693,5.4693,5.4693,5.4693,5.4693,5.4693,5.4693,5.4693,5.4693,5.4693,5.4693,5.4693,5.4693,5.4693,5.4693,5.4693,5.4693,5.4693,5.4693,5.4693,5.4693,5.4693,5.4693,5.4693,5.4693,5.4693,5.4693,5.4693,5.4693,5.4693,5.4693,5.4693,5.4693,5.4693,5.4693,5.4693,5.4693,5.4693,5.4693,5.4693,5.4693,5.4693,5.4693,5.4693,5.4693,5.4693,5.4693,5.4693,5.4693,5.4693,5.4693,5.4693,5.4693,5.4693,5.4693,5.4693,5.4693,5.2696,4.899,4.462,3.9905,3.5531,3.1168,3.1168,2.9813,2.7795,2.7795,2.7795,1.5187,1.6139,1.7642,1.8736,2.2131,2.6898,3.2155,3.5626,3.8976,4.3507,4.4409,4.4565,4.533,4.6079,4.6724,4.7318,4.811,4.8905,4.8931,5.026,5.1291,5.1291,5.1291,5.1291,5.1291,5.1291,5.1291,5.1291,5.181,5.2382,5.2979,5.3524,5.4096,5.4693,5.4693,5.4693,5.4693,5.4693,5.4693,5.4693,5.4693,5.4693,5.4693,5.4693,5.4693,5.4693,5.4693,5.4693,5.4693,5.4693,5.4693,5.4693,5.4693,5.4693,5.4693,5.4693,5.4693,5.4693,5.4693,5.4693,5.4693,5.4693,5.4693,5.4693,5.4693,5.4693,5.4693,5.4693,5.4693,5.4693,5.4693,5.4693,5.4693,5.4693,5.4693,5.4693,5.4693,5.4693,5.4693,5.4693,5.4693,5.4693,5.4693,5.4693,5.4693,5.4693,5.4693,5.4693,5.4693,5.4693,5.4693,5.4693,5.4693,5.4693,5.4693,5.4693,5.4693,5.4693,5.4693,5.4693,5.4693,4.9321,4.4954,4.1251,3.587,3.1509,2.7795,2.7795,2.7795,2.7795,2.7795,2.7795,1.5466,1.6442,1.7589,1.8486,2.152,2.6687,3.5757,3.74,3.8125,4.1644,4.298,4.3549,4.3584,4.4877,4.5852,4.639,4.7195,4.8259,4.9279,5.059,5.1291,5.1291,5.1291,5.1291,5.1291,5.1291,5.1291,5.1291,5.181,5.2382,5.2979,5.3524,5.4096,5.4693,5.4693,5.4693,5.4693,5.4693,5.4693,5.4693,5.4693,5.4693,5.4693,5.4693,5.4693,5.4693,5.4693,5.4693,5.4693,5.4693,5.4693,5.4693,5.4693,5.4693,5.4693,5.4693,5.4693,5.4693,5.4693,5.4693,5.4693,5.4693,5.4693,5.4693,5.4693,5.4693,5.4693,5.4693,5.4693,5.4693,5.4693,5.4693,5.4693,5.4693,5.4693,5.4693,5.4693,5.4693,5.4693,5.4693,5.4693,5.4693,5.4693,5.4693,5.4693,5.4693,5.4693,5.4693,5.4693,5.4693,5.4693,5.4693,5.4693,5.4693,5.4693,5.4693,5.4693,5.4693,5.4693,5.4693,5.4693,4.662,4.1586,4.1251,3.2859,2.8138,2.7795,2.7795,2.7795,2.7795,2.7795,2.7795,1.4768,1.544,1.635,1.7589,2.1116,2.5382,2.9653,3.4018,3.8196,4.2234,4.3006,4.3344,4.3962,4.4814,4.5691,4.6595,4.7545,4.8866,4.9874,5.0605,5.0927,5.1265,5.1291,5.1291,5.1291,5.1291,5.1291,5.1291,5.181,5.2382,5.2979,5.3524,5.4096,5.4693,5.4693,5.4693,5.4693,5.4693,5.4693,5.4693,5.4693,5.4693,5.4693,5.4693,5.4693,5.4693,5.4693,5.4693,5.4693,5.4693,5.4693,5.4693,5.4693,5.4693,5.4693,5.4693,5.4693,5.4693,5.4693,5.4693,5.4693,5.4693,5.4693,5.4693,5.4693,5.4693,5.4693,5.4693,5.4693,5.4693,5.4693,5.4693,5.4693,5.4693,5.4693,5.4693,5.4693,5.4693,5.4693,5.4693,5.4693,5.4693,5.4693,5.4693,5.4693,5.4693,5.4693,5.4693,5.4693,5.4693,5.4693,5.4693,5.4693,5.4693,5.4693,5.4693,5.4693,5.4693,5.4693,5.4693,5.4693,4.5955,4.1251,4.1251,3.2518,2.7795,2.7795,2.7795,2.7795,2.7795,2.7795,2.7795,1.4425,1.482,1.5493,1.6785,2.0487,2.4316,2.4911,3.1536,3.8461,4.0724,4.185,4.2773,4.3759,4.4565,4.5448,4.6616,4.7759,4.872,4.9934,5.0344,5.0945,5.1337,5.1213,5.1291,5.1291,5.1291,5.1291,5.1291,5.1654,5.2226,5.2953,5.3368,5.394,5.4693,5.4693,5.4693,5.4693,5.4693,5.4693,5.4693,5.4693,5.4693,5.4693,5.4693,5.4693,5.4693,5.4693,5.4693,5.4693,5.4693,5.4693,5.4693,5.4693,5.4693,5.4693,5.4693,5.4693,5.4693,5.4693,5.4693,5.4693,5.4693,5.4693,5.4693,5.4693,5.4693,5.4693,5.4693,5.4693,5.4693,5.4693,5.4693,5.4693,5.4693,5.4693,5.4693,5.4693,5.4693,5.4693,5.4693,5.4693,5.4693,5.4693,5.4693,5.4693,5.4693,5.4693,5.4693,5.4693,5.4693,5.4693,5.4693,5.4693,5.4693,5.4693,5.4693,5.4693,5.4693,5.4693,5.4693,5.4693,4.5955,4.1251,4.1251,3.2518,2.7795,2.7795,2.7795,2.7795,2.7795,2.7795,2.7795,1.4847,1.4965,1.54,1.6271,1.9875,2.3061,2.3947,3.1507,3.8045,3.6451,3.9204,4.2071,4.2643,4.3682,4.5119,4.6347,4.7188,4.8122,4.9356,5.0732,5.1445,5.1472,5.1285,5.1291,5.1291,5.1291,5.1291,5.1291,5.1291,5.181,5.2927,5.3005,5.3524,5.4667,5.4693,5.4693,5.4693,5.4693,5.4693,5.4693,5.4693,5.4693,5.4693,5.4693,5.4693,5.4693,5.4693,5.4693,5.4693,5.4693,5.4693,5.4693,5.4693,5.4693,5.4693,5.4693,5.4693,5.4693,5.4693,5.4693,5.4693,5.4693,5.4693,5.4693,5.4693,5.4693,5.4693,5.4693,5.4693,5.4693,5.4693,5.4693,5.4693,5.4693,5.4693,5.4693,5.4693,5.4693,5.4693,5.4693,5.4693,5.4693,5.4693,5.4693,5.4693,5.4693,5.4693,5.4693,5.4693,5.4693,5.4693,5.4693,5.4693,5.4693,5.4693,5.4693,5.4693,5.4693,5.4693,5.4693,5.4693,4.5955,4.1251,4.1251,3.2518,2.7795,2.7795,2.7795,2.7795,2.7795,2.7795,2.7795,1.4187,1.453,1.515,1.6218,2.091,2.5457,2.6711,3.1249,3.5971,3.8436,3.9554,4.0565,4.1916,4.3084,4.4357,4.564,4.6517,4.7318,4.8273,4.9717,5.067,5.0408,5.0953,5.1291,5.1291,5.1291,5.1291,5.1291,5.1291,5.1784,5.2927,5.3005,5.3524,5.4667,5.4693,5.4693,5.4693,5.4693,5.4693,5.4693,5.4693,5.4693,5.4693,5.4693,5.4693,5.4693,5.4693,5.4693,5.4693,5.4693,5.4693,5.4693,5.4693,5.4693,5.4693,5.4693,5.4693,5.4693,5.4693,5.4693,5.4693,5.4693,5.4693,5.4693,5.4693,5.4693,5.4693,5.4693,5.4693,5.4693,5.4693,5.4693,5.4693,5.4693,5.4693,5.4693,5.4693,5.4693,5.4693,5.4693,5.4693,5.4693,5.4693,5.4693,5.4693,5.4693,5.4693,5.4693,5.4693,5.4693,5.4693,5.4693,5.4693,5.4693,5.4693,5.4693,5.4693,5.4693,5.4693,5.3354,5.0338,4.4286,3.9905,3.6886,3.0826,2.7795,2.7795,2.7795,2.7795,2.7795,2.7795,2.7795,1.4425,1.4649,1.5071,1.6337,2.1027,2.5223,2.4469,2.8509,3.2601,3.3564,3.468,3.5713,3.7077,3.9613,4.2432,4.4731,4.5929,4.6673,4.7052,4.8634,4.9733,5.0096,5.0823,5.1291,5.1291,5.1291,5.1291,5.1291,5.1291,5.1706,5.2615,5.2875,5.342,5.4355,5.4589,5.4693,5.4693,5.4693,5.4693,5.4693,5.4693,5.4693,5.4693,5.4693,5.4693,5.4693,5.4693,5.4693,5.4693,5.4693,5.4693,5.4693,5.4693,5.4693,5.4693,5.4693,5.4693,5.4693,5.4693,5.4693,5.4693,5.4693,5.4693,5.4693,5.4693,5.4693,5.4693,5.4693,5.4693,5.4693,5.4693,5.4693,5.4693,5.4693,5.4693,5.4693,5.4693,5.4693,5.4693,5.4693,5.4693,5.4693,5.4693,5.4693,5.4693,5.4693,5.4693,5.4693,5.4693,5.4693,5.4693,5.4693,5.4693,5.4693,5.4693,5.4693,5.4693,5.4693,5.3354,5.0338,4.5621,4.1251,3.7544,3.4513,3.0156,2.7795,2.7795,2.7795,2.7795,2.7795,2.7795,2.7795,1.5176,1.515,1.5124,1.6495,2.0292,2.2615,1.9039,2.389,2.8242,2.4344,2.6203,2.8753,2.9413,3.3923,3.9085,4.3309,4.5318,4.6416,4.621,4.7981,4.9383,5.0057,5.1023,5.1343,5.1291,5.1291,5.1291,5.1291,5.1291,5.1576,5.2174,5.2693,5.329,5.3888,5.4433,5.4693,5.4693,5.4693,5.4693,5.4693,5.4693,5.4693,5.4693,5.4693,5.4693,5.4693,5.4693,5.4693,5.4693,5.4693,5.4693,5.4693,5.4693,5.4693,5.4693,5.4693,5.4693,5.4693,5.4693,5.4693,5.4693,5.4693,5.4693,5.4693,5.4693,5.4693,5.4693,5.4693,5.4693,5.4693,5.4693,5.4693,5.4693,5.4693,5.4693,5.4693,5.4693,5.4693,5.4693,5.4693,5.4693,5.4693,5.4693,5.4693,5.4693,5.4693,5.4693,5.4693,5.4693,5.4693,5.4693,5.4693,5.4693,5.4693,5.4693,5.4693,5.4693,5.4365,5.0007,4.5621,4.0915,3.6886,3.4529,3.4189,2.9813,2.7795,2.7795,2.7795,2.7795,2.7795,2.7795,2.7795,1.3963,1.4517,1.5229,1.5796,1.9095,2.2188,2.1556,2.4321,2.698,2.602,2.6603,2.7374,2.8266,3.0236,0.0,3.7696,4.2713,4.6211,4.6526,4.8462,5.0214,5.0901,5.1525,5.1784,5.1343,5.1291,5.1291,5.1291,5.1291,5.1732,5.2745,5.2927,5.3472,5.4459,5.4641,5.4693,5.4693,5.4693,5.4693,5.4693,5.4693,5.4693,5.4693,5.4693,5.4693,5.4693,5.4693,5.4693,5.4693,5.4693,5.4693,5.4693,5.4693,5.4693,5.4693,5.4693,5.4693,5.4693,5.4693,5.4693,5.4693,5.4693,5.4693,5.4693,5.4693,5.4693,5.4693,5.4693,5.4693,5.4693,5.4693,5.4693,5.4693,5.4693,5.4693,5.4693,5.4693,5.4693,5.4693,5.4693,5.4693,5.4693,5.4693,5.4693,5.4693,5.4693,5.4693,5.4693,5.4693,5.4693,5.4693,5.4693,5.4693,5.4693,5.4693,5.4693,5.3354,4.9676,4.5288,4.0915,3.6209,3.5191,3.2844,2.9484,2.8469,2.7795,2.7795,2.7795,2.7795,2.7795,2.7795,2.7795,1.4187,1.4807,1.5387,1.5414,1.8241,2.0634,1.9447,2.1335,2.2999,2.1789,2.1742,2.226,2.3315,2.6524,3.0032,3.3855,4.0543,4.5485,4.6057,4.769,4.9667,5.0823,5.1187,5.1447,5.1654,5.1447,5.1291,5.1291,5.1291,5.168,5.2563,5.2849,5.3394,5.4277,5.4563,5.4693,5.4693,5.4693,5.4693,5.4693,5.4693,5.4693,5.4693,5.4693,5.4693,5.4693,5.4693,5.4693,5.4693,5.4693,5.4693,5.4693,5.4693,5.4693,5.4693,5.4693,5.4693,5.4693,5.4693,5.4693,5.4693,5.4693,5.4693,5.4693,5.4693,5.4693,5.4693,5.4693,5.4693,5.4693,5.4693,5.4693,5.4693,5.4693,5.4693,5.4693,5.4693,5.4693,5.4693,5.4693,5.4693,5.4693,5.4693,5.4693,5.4693,5.4693,5.4693,5.4693,5.4693,5.4693,5.4693,5.4693,5.4693,5.4693,5.4693,5.4693,5.3025,4.8327,4.1922,3.6209,3.1494,3.1509,3.0156,2.7795,2.7795,2.7795,2.7795,2.7795,2.7795,2.7795,2.7795,2.7795,1.4899,1.5808,1.6259,1.5958,1.8015,1.915,1.6327,1.7376,1.8292,1.6011,1.5836,1.6389,1.7668,2.2791,2.7896,3.061,3.7709,4.3568,4.5422,4.7084,4.8746,5.0382,5.059,5.0953,5.1914,5.1576,5.1291,5.1291,5.1291,5.1576,5.2226,5.2745,5.329,5.394,5.4433,5.4693,5.4693,5.4693,5.4693,5.4693,5.4693,5.4693,5.4693,5.4693,5.4693,5.4693,5.4693,5.4693,5.4693,5.4693,5.4693,5.4693,5.4693,5.4693,5.4693,5.4693,5.4693,5.4693,5.4693,5.4693,5.4693,5.4693,5.4693,5.4693,5.4693,5.4693,5.4693,5.4693,5.4693,5.4693,5.4693,5.4693,5.4693,5.4693,5.4693,5.4693,5.4693,5.4693,5.4693,5.4693,5.4693,5.4693,5.4693,5.4693,5.4693,5.4693,5.4693,5.4693,5.4693,5.4693,5.4693,5.4693,5.4693,5.4693,5.4693,5.4037,5.1658,4.631,3.8895,3.2503,2.8138,2.7795,2.7795,2.7795,2.7795,2.7795,2.7795,2.7795,2.7795,2.7795,2.7795,2.7795,1.4728,1.7288,1.9849,1.9494,2.0099,1.9929,1.6655,1.6005,1.6011,1.5625,1.5664,1.5836,1.6323,1.9462,2.3098,2.7042,3.2212,3.8322,4.5872,4.8252,4.9785,5.1031,5.1161,5.1239,5.1421,5.1343,5.1291,5.1291,5.1291,5.1758,5.2823,5.2953,5.3472,5.4537,5.4667,5.4693,5.4693,5.4693,5.4693,5.4693,5.4693,5.4693,5.4693,5.4693,5.4693,5.4693,5.4693,5.4693,5.4693,5.4693,5.4693,5.4693,5.4693,5.4693,5.4693,5.4693,5.4693,5.4693,5.4693,5.4693,5.4693,5.4693,5.4693,5.4693,5.4693,5.4693,5.4693,5.4693,5.4693,5.4693,5.4693,5.4693,5.4693,5.4693,5.4693,5.4693,5.4693,5.4693,5.4693,5.4693,5.4693,5.4693,5.4693,5.4693,5.4693,5.4693,5.4693,5.4693,5.4693,5.4693,5.4693,5.4693,5.4693,5.4693,5.4693,5.1353,4.5621,3.7206,3.5191,3.2503,2.8138,2.7795,2.7795,2.7795,2.7795,2.7795,2.7795,2.7795,2.7795,2.7795,2.7795,2.7795,1.6769,2.0599,2.3812,2.2977,2.1763,2.0395,1.8682,1.7137,1.5822,1.5664,1.5625,1.5809,1.6429,1.8705,2.2122,2.7454,3.1479,3.6429,0.0,0.0,4.8512,5.059,5.0564,5.0745,5.1654,5.1473,5.1291,5.1291,5.1291,5.1784,5.2927,5.3005,5.3524,5.4667,5.4693,5.4693,5.4693,5.4693,5.4693,5.4693,5.4693,5.4693,5.4693,5.4693,5.4693,5.4693,5.4693,5.4693,5.4693,5.4693,5.4693,5.4693,5.4693,5.4693,5.4693,5.4693,5.4693,5.4693,5.4693,5.4693,5.4693,5.4693,5.4693,5.4693,5.4693,5.4693,5.4693,5.4693,5.4693,5.4693,5.4693,5.4693,5.4693,5.4693,5.4693,5.4693,5.4693,5.4693,5.4693,5.4693,5.4693,5.4693,5.4693,5.4693,5.4693,5.4693,5.4693,5.4693,5.4693,5.4693,5.4693,5.4693,5.4693,5.3708,5.1353,4.462,3.8895,3.4869,3.2177,2.9813,2.7795,2.7795,2.7795,2.7795,2.7795,2.7795,2.7795,2.7795,2.7795,2.7795,2.7795,2.7795,2.15,0.0,2.792,2.7104,2.5096,2.2776,0.0,1.8728,1.6771,1.5691,1.5625,1.6018,1.7311,1.9497,2.2979,2.853,3.2289,3.6379,4.1432,0.0,0.0,4.9888,4.9862,5.02,5.1784,5.155,5.1291,5.1291,5.1291,5.1732,5.2745,5.2927,5.3472,5.4459,5.4511,5.4511,5.4511,5.4641,5.4693,5.4693,5.4693,5.4693,5.4693,5.4693,5.4693,5.4693,5.4693,5.4693,5.4693,5.4693,5.4693,5.4693,5.4693,5.4693,5.4693,5.4693,5.4693,5.4693,5.4693,5.4693,5.4693,5.4693,5.4693,5.4693,5.4693,5.4693,5.4693,5.4693,5.4693,5.4693,5.4693,5.4693,5.4693,5.4693,5.4693,5.4693,5.4693,5.4693,5.4693,5.4693,5.4693,5.4693,5.4693,5.4693,5.4693,5.4693,5.4693,5.4693,5.4693,5.4693,5.4693,5.4693,5.4037,5.1683,4.8327,3.9905,3.4189,3.3184,2.9827,2.7795,2.7795,2.7795,2.7795,2.7795,2.7795,2.7795,2.7795,2.7795,2.7795,2.7795,2.7795,2.7795,0.0,3.2509,3.29,3.257,3.1498,2.9061,2.3191,2.0847,0.0,1.6065,1.5625,1.6218,1.8771,2.1711,2.4999,2.8957,3.3505,3.7431,4.0046,4.2799,0.0,0.0,4.9603,5.0044,5.1239,5.1317,5.1291,5.1291,5.1291,5.1576,5.2174,5.2693,5.3265,5.3888,5.3914,5.3914,5.3914,5.4433,5.4693,5.4693,5.4693,5.4693,5.4693,5.4693,5.4693,5.4693,5.4693,5.4693,5.4693,5.4693,5.4693,5.4693,5.4693,5.4693,5.4693,5.4693,5.4693,5.4693,5.4693,5.4693,5.4693,5.4693,5.4693,5.4693,5.4693,5.4693,5.4693,5.4693,5.4693,5.4693,5.4693,5.4693,5.4693,5.4693,5.4693,5.4693,5.4693,5.4693,5.4693,5.4693,5.4693,5.4693,5.4693,5.4693,5.4693,5.4693,5.4693,5.4693,5.4693,5.4693,5.4693,5.4693,5.0999,4.8327,4.7995,3.9905,3.2844,2.8469,2.8138,2.7795,2.7795,2.7795,2.7795,2.7795,2.7795,2.7795,2.7795,2.7795,2.7795,2.7795,2.7795,2.7795,3.4829,3.6574,3.6819,3.6149,3.3996,3.087,2.6014,2.2841,2.0026,1.6341,1.5625,1.6397,1.8868,2.0691,2.3907,3.0543,3.3582,3.6463,4.1096,0.0,0.0,4.6746,4.8512,5.0044,5.1187,5.1291,5.1291,5.1291,5.1291,5.155,5.2122,5.2356,5.2563,5.2771,5.3135,5.3472,5.3836,5.407,5.4355,5.4693,5.4693,5.4693,5.4693,5.4693,5.4693,5.4693,5.4693,5.4693,0.0,5.4693,5.4693,5.4693,5.4693,5.4693,5.4693,5.4693,5.4693,5.4693,5.4693,5.4693,5.4693,5.4693,5.4693,5.4693,5.4693,5.4693,5.4693,5.4693,5.4693,5.4693,5.4693,5.4693,5.4693,5.4693,5.4693,5.4693,5.4693,5.4693,5.4693,5.4693,5.4693,5.4693,5.4693,5.4693,5.4693,5.4693,5.4693,5.4693,5.4693,5.4693,5.4693,5.4693,5.0668,4.5621,4.0242,3.3865,2.9484,2.7795,2.7795,2.7795,2.7795,2.7795,2.7795,2.7795,2.7795,2.7795,2.7795,2.7795,2.7795,2.7795,2.7795,2.7795,3.7974,3.9137,3.9682,3.8903,3.6574,3.3202,2.8213,2.5039,2.1556,1.6577,1.5625,1.6576,1.9999,2.1183,2.4378,3.2456,3.4654,3.7106,4.2026,0.0,0.0,4.5785,4.7915,4.9707,5.0668,5.1083,5.1291,5.1291,5.1291,5.1473,5.1862,5.2044,5.2044,5.1888,5.2433,5.3005,5.3576,5.3758,5.4122,5.4693,5.4693,5.4693,5.4693,5.4693,5.4693,5.4693,5.4693,5.4693,5.4693,5.4693,5.4693,5.4693,5.4693,5.4693,5.4693,5.4693,5.4693,5.4693,5.4693,5.4693,5.4693,5.4693,5.4693,5.4693,5.4693,5.4693,5.4693,5.4693,5.4693,5.4693,5.4693,5.4693,5.4693,5.4693,5.4693,5.4693,5.4693,5.4693,5.4693,5.4693,5.3683,5.2696,5.2696,5.2696,5.2696,5.2696,5.2696,5.2696,5.2696,5.1329,5.0644,5.0644,4.6288,4.1251,3.5191,3.0498,2.7795,2.7795,2.7795,2.7795,2.7795,2.7795,2.7795,2.7795,2.7795,2.7795,2.7795,2.7795,2.7795,2.7795,2.7795,2.7795,3.989,4.0591,4.1033,4.1033,3.976,3.6624,3.0041,2.7139,2.3974,1.6967,1.5625,1.7154,2.2282,2.4132,2.7165,3.3964,3.7007,3.9474,4.2331,4.4227,4.5759,0.0,4.8045,4.8979,4.9525,5.0616,5.1291,5.1291,5.1291,5.1291,5.1291,5.181,5.1862,5.1317,5.1836,5.2407,5.2979,5.355,5.4122,5.4693,5.4693,5.4693,5.4693,5.4693,5.4693,5.4693,5.4693,5.4693,5.4693,5.4693,5.4693,5.4693,5.4693,5.4693,5.4693,5.4693,5.4693,5.4693,5.4693,5.4693,5.4693,5.4693,5.4693,5.4693,5.4693,5.4693,5.4693,5.4693,5.4693,5.4693,5.4693,5.4693,5.4693,5.4693,5.4693,5.4693,5.4693,5.4693,5.4693,5.4693,5.1023,4.7995,4.7995,4.7995,4.7995,4.7995,4.7995,4.7995,4.7995,4.3952,4.1251,4.1251,3.7224,3.4529,3.4529,3.0498,2.7795,2.7795,2.7795,2.7795,2.7795,2.7795,2.7795,2.7795,2.7795,2.7795,2.7795,2.7795,2.7795,2.7795,2.7795,2.7795,3.9604,4.0305,4.1033,4.1033,4.0046,3.7563,3.2141,2.8664,2.495,1.9317,1.8292,1.9508,2.3045,2.6171,2.9865,3.527,3.7864,3.9942,4.2383,4.3889,4.5136,4.6331,0.0,4.8512,4.9499,5.0252,5.0875,5.1265,5.1291,5.1291,5.1291,5.1447,5.1473,5.1291,5.1447,5.181,5.2382,5.2953,5.3524,5.4096,5.4511,5.4693,5.4693,5.4693,5.4693,5.4693,5.4693,5.4693,5.4693,5.4693,5.4693,5.4693,5.4693,5.4693,5.4693,5.4693,5.4693,5.4693,5.4693,5.4693,5.4693,5.4693,5.4693,5.4693,5.4693,5.4693,5.4693,5.4693,5.4693,5.4693,5.4693,5.4693,5.4693,5.4693,5.4693,5.4693,5.4693,5.4693,5.4037,5.0668,4.899,4.6975,4.3952,4.3262,4.3262,4.3262,4.3262,4.3262,4.3262,4.1922,4.1251,4.1251,3.4529,2.9813,2.9813,2.8469,2.7795,2.7795,2.7795,2.7795,2.7795,2.7795,2.7795,2.7795,2.7795,2.7795,2.7795,2.7795,2.7795,2.7795,2.7795,2.7795,3.9422,4.015,4.1033,4.1033,4.0357,3.8407,3.3861,3.0497,2.6856,2.1302,2.0587,2.1687,2.4015,2.746,3.1555,3.6589,3.8903,4.0877,4.3422,4.4565,4.5577,4.6746,4.7473,4.8252,4.9161,4.9577,5.0096,5.0901,5.1161,5.1291,5.1291,5.1291,5.1291,5.1291,5.1291,5.1576,5.2122,5.2485,5.3057,5.3836,5.4199,5.4485,5.4693,5.4693,5.4693,5.4693,5.4693,5.4693,5.4693,5.4693,5.4693,5.4693,5.4693,5.4693,5.4693,5.4693,5.4693,5.4693,5.4693,5.4693,5.4693,5.4693,5.4693,5.4693,5.4693,5.4693,5.4693,5.4693,5.4693,5.4693,5.4693,5.4693,5.4693,5.4693,5.4693,5.4693,5.4693,5.3354,5.1353,4.8659,4.4954,4.1922,3.8895,3.8557,3.8557,3.8557,3.8557,3.8557,3.8557,3.6886,3.5887,3.5887,3.1168,2.7795,2.7795,2.7795,2.7795,2.7795,2.7795,2.7795,2.7795,2.7795,2.7795,2.7795,2.7795,2.7795,2.7795,2.7795,2.7795,2.7795,2.7795,2.7795,3.9319,4.015,4.1033,4.1033,4.0617,3.9257,3.52,0.0,2.9526,2.3164,2.2904,2.3967,2.4964,2.8368,3.2457,3.7564,3.9968,4.2071,4.4876,4.5811,4.6616,4.7681,0.0,0.0,4.8694,4.8746,4.9239,5.0382,5.0927,5.1213,5.1213,5.1265,5.1291,5.1291,5.1291,5.155,5.2044,5.2122,5.2693,5.3758,5.381,5.4147,5.4693,5.4693,5.4693,5.4693,5.4693,5.4693,5.4693,5.4693,5.4693,5.4693,5.4693,5.4693,5.4693,5.4693,5.4693,5.4693,5.4693,5.4693,5.4693,5.4693,5.4693,5.4693,5.4693,5.4693,5.4693,5.4693,5.4693,5.4693,5.4693,5.4693,5.4693,5.4693,5.4693,5.4693,5.4365,5.0999,4.7663,4.6975,4.0242,3.4529,3.4189,3.3849,3.3849,3.3849,3.3849,3.3849,3.3849,3.0498,2.7795,2.7795,2.7795,2.7795,2.7795,2.7795,2.7795,2.7795,2.7795,2.7795,2.7795,2.7795,2.7795,2.7795,2.7795,2.7795,2.7795,2.7795,2.7795,2.7795,2.7795,2.7795,3.9319,4.015,4.1033,4.1033,4.0617,3.9734,3.7336,3.439,0.0,2.7861,2.731,2.7635,2.7836,0.0,3.555,0.0,4.0305,4.2383,4.4357,4.5551,4.646,0.0,4.7629,0.0,4.8694,4.8746,4.9239,5.0382,5.0564,5.0642,5.0642,5.1057,5.1291,5.1291,5.1291,5.1343,5.1473,5.1914,5.2485,5.3187,5.3628,5.4147,5.4693,5.4693,5.4693,5.4693,5.4693,5.4693,5.4693,5.4693,5.4693,5.4693,5.4693,5.4693,5.4693,5.4693,5.4693,5.4693,5.4693,5.4693,5.4693,5.4693,5.4693,5.4693,5.4693,5.4693,5.4693,5.4693,5.4693,5.4693,5.4693,5.4693,5.4693,5.4693,5.4693,5.3683,5.0338,4.8659,4.5976,3.8895,3.587,3.3525,2.9813,2.9142,2.9142,2.9142,2.9142,2.9142,2.9142,2.8469,2.7795,2.7795,2.7795,2.7795,2.7795,2.7795,2.7795,2.7795,2.7795,2.7795,2.7795,2.7795,2.7795,2.7795,2.7795,2.7795,2.7795,2.7795,2.7795,2.7795,2.7795,2.7795,3.9319,4.015,4.1033,4.1033,4.0825,4.0305,3.9137,0.0,0.0,0.0,3.1141,3.1113,3.0135,3.3423,0.0,3.8981,4.0981,4.2902,4.4642,4.5396,4.6097,4.6954,4.7317,4.7707,4.8278,4.833,4.8694,4.9577,4.9888,5.0148,5.0434,5.0745,5.1005,5.1291,5.1291,5.1291,5.1291,5.1602,5.2018,5.2589,5.3161,5.3732,5.4303,5.4589,5.4693,5.4693,5.4693,5.4693,5.4693,5.4693,5.4693,5.4693,5.4693,5.4693,5.4693,5.4693,5.4693,5.4693,5.4693,5.4693,5.4693,5.4693,5.4693,5.4693,5.4693,5.4693,5.4693,5.4693,5.4693,5.4693,5.4693,5.4693,5.4693,5.4693,5.4693,5.3683,4.899,4.462,4.0242,3.5531,3.2844,3.0498,2.8138,2.7795,2.7795,2.7795,2.7795,2.7795,2.7795,2.7795,2.7795,2.7795,2.7795,2.7795,2.7795,2.7795,2.7795,2.7795,2.7795,2.7795,2.7795,2.7795,2.7795,2.7795,2.7795,2.7795,2.7795,2.7795,2.7795,2.7795,2.7795,2.7795,3.9241,4.0098,4.0903,4.1007,4.1033,4.0877,4.0305,3.9371,0.0,0.0,3.4371,3.4148,3.2457,3.4972,3.7864,4.0254,4.2071,4.3734,4.5266,4.5655,4.6019,0.0,4.685,4.7084,4.7551,4.7681,4.7993,4.8564,4.9031,4.9551,5.0122,5.0356,5.0668,5.1135,5.1239,5.1291,5.1291,5.1291,5.1576,5.2148,5.2615,5.3135,5.3706,5.4199,5.4407,5.4407,5.4511,5.4563,5.4563,5.4667,5.4693,5.4693,5.4693,5.4693,5.4693,5.4693,5.4693,5.4693,5.4693,5.4693,5.4693,5.4693,5.4693,5.4693,5.4693,5.4693,5.4693,5.4693,5.4693,5.4693,5.4693,5.4693,5.4693,5.4693,5.4365,5.2696,4.899,4.0915,3.4529,3.3509,3.0498,2.7795,2.7795,2.7795,2.7795,2.7795,2.7795,2.7795,2.7795,2.7795,2.7795,2.7795,2.7795,2.7795,2.7795,2.7795,2.7795,2.7795,2.7795,2.7795,2.7795,2.7795,2.7795,2.7795,2.7795,2.7795,2.7795,2.7795,2.7795,2.7795,2.7795,2.7795,3.8929,3.9812,4.0435,4.0903,4.1033,4.0877,4.0305,3.9682,3.867,3.7307,0.0,3.6243,3.6101,3.725,3.9163,4.1942,0.0,4.5266,4.5993,4.6928,4.7058,4.5733,4.6019,4.6356,4.6434,4.6876,4.7395,4.7967,4.8071,4.8356,4.8953,4.9914,5.0486,5.0564,5.1057,5.1291,5.1291,5.1291,5.1576,5.2148,5.2226,5.2563,5.3109,5.3187,5.3239,5.3265,5.3758,5.3966,5.3992,5.4485,5.4693,5.4693,5.4693,5.4693,5.4693,5.4693,5.4693,5.4693,5.4693,5.4693,5.4693,5.4693,5.4693,5.4693,5.4693,5.4693,5.4693,5.4693,5.4693,5.4693,5.4693,5.4693,5.4693,5.4693,5.1683,4.8659,4.7995,4.0915,3.3525,2.9484,2.8138,2.7795,2.7795,2.7795,2.7795,2.7795,2.7795,2.7795,2.7795,2.7795,2.7795,2.7795,2.7795,2.7795,2.7795,2.7795,2.7795,2.7795,2.7795,2.7795,2.7795,2.7795,2.7795,2.7795,2.7795,2.7795,2.7795,2.7795,2.7795,2.7795,2.7795,2.7795,3.723,3.8773,3.976,4.002,4.0331,4.0487,4.0254,4.0254,4.0046,3.9241,3.8617,0.0,3.8202,3.8617,3.9578,0.0,0.0,0.0,4.4175,4.4694,4.4954,0.0,4.5058,0.0,4.6149,4.6434,4.6798,4.7369,4.7421,4.7811,4.8694,4.9239,4.9655,4.9966,5.0538,5.0823,5.0823,5.1135,5.1421,5.168,5.1992,5.2278,5.2537,5.2849,5.3005,5.3005,5.3265,5.3368,5.3394,5.3654,5.3758,5.3758,5.3758,5.3758,5.3758,5.3758,5.394,5.4225,5.4225,5.4018,5.3758,5.3758,5.3966,5.3874,5.1216,5.0756,5.0338,4.7972,4.7285,4.7285,4.7285,4.7285,4.7285,4.7285,4.764,4.6643,4.1586,3.9232,3.6209,2.9142,2.7795,2.7795,2.7795,2.7795,2.7795,2.7795,2.7795,2.7795,2.7795,2.7795,2.7795,2.7795,2.7795,2.7795,2.7795,2.7795,2.7795,2.7795,2.7795,2.7795,2.7795,2.7795,2.7795,2.7795,2.7795,2.7795,2.7795,2.7623,2.7544,2.7544,2.7544,2.7544,3.4878,3.7128,3.8747,3.9033,3.9552,3.9968,3.9968,4.0305,4.0513,4.0254,3.9734,3.9422,0.0,0.0,0.0,4.1448,4.2175,0.0,4.311,4.3292,0.0,4.3967,0.0,4.4565,4.5448,4.5811,0.0,4.6798,4.6824,4.7343,4.846,4.8668,4.8953,4.9369,4.994,5.0226,5.0226,5.0797,5.1161,5.1291,5.1732,5.1914,5.194,5.2356,5.2563,5.2563,5.2719,5.2771,5.2797,5.2953,5.3005,5.3005,5.3005,5.3005,5.3005,5.3005,5.3265,5.3602,5.3446,5.3239,5.3005,5.3005,5.2625,5.1322,4.8035,4.6632,4.5295,4.2056,4.1074,4.1113,4.1211,4.1251,4.1251,4.1251,4.2927,4.2613,3.587,3.6209,3.5887,2.9155,2.7795,2.7795,2.7795,2.7795,2.7795,2.7795,2.7795,2.7795,2.7795,2.7795,2.7795,2.7795,2.7795,2.7795,2.7795,2.7795,2.7795,2.7795,2.7795,2.7795,2.7795,2.7795,2.7768,2.7689,2.7689,2.765,2.7571,2.7346,2.7241,2.7241,2.7241,2.7241,3.179,3.4634,3.7163,3.8254,3.8955,3.9371,3.9371,3.9397,3.9552,4.0072,3.9734,3.9656,0.0,0.0,4.0877,4.3084,4.3941,4.4331,4.4357,4.485,4.4616,0.0,0.0,0.0,0.0,0.0,4.5629,4.6201,4.6253,4.6746,4.7889,4.846,4.8772,4.8798,4.9343,4.9629,4.9629,5.02,5.0771,5.1291,5.1317,5.1343,5.1343,5.1369,5.1395,5.1421,5.194,5.2174,5.2226,5.2771,5.3005,5.3005,5.3005,5.3005,5.3005,5.3005,5.3031,5.2953,5.2407,5.2563,5.3005,5.3005,5.0406,4.6832,4.6832,4.3929,4.0783,4.0853,4.0952,4.1051,4.1152,4.1251,4.1251,4.1251,3.822,3.5191,3.4869,3.1509,2.8469,2.7795,2.7795,2.7795,2.7795,2.7795,2.7795,2.7795,2.7795,2.7795,2.7795,2.7795,2.7795,2.7795,2.7795,2.7795,2.7795,2.7795,2.7795,2.7795,2.7795,2.7795,2.7795,2.7795,2.7663,2.7386,2.7373,2.7241,2.6951,2.6938,2.6924,2.6924,2.6924,2.6924,3.1162,3.2706,3.3571,3.5614,3.7267,3.8254,3.8254,3.8799,3.9397,3.9604,3.976,4.0124,4.0903,4.0877,4.1111,4.2305,4.2357,4.2253,4.2253,4.2435,4.2487,4.2227,4.2695,4.3188,0.0,4.3967,4.4616,4.5577,4.5655,4.6149,4.7291,4.7551,4.7811,4.8174,4.8746,4.9057,4.9057,4.9629,4.9992,5.02,5.059,5.0953,5.1291,5.1291,5.1291,5.1317,5.1499,5.1602,5.1602,5.181,5.1914,5.1914,5.1914,5.1914,5.1914,5.1914,5.2122,5.2356,5.1784,5.1732,5.1914,5.1914,4.9276,4.5667,4.2772,3.909,3.5433,3.2616,3.1668,3.1745,3.2101,3.2193,3.224,3.2472,3.3525,3.3849,3.0826,3.1168,3.1168,2.8469,2.7795,2.7795,2.7795,2.7795,2.7795,2.7795,2.7795,2.7795,2.7795,2.7795,2.7795,2.7795,2.7795,2.7795,2.7795,2.7795,2.7795,2.7795,2.7795,2.7716,2.7518,2.7505,2.7373,2.7069,2.7069,2.7017,2.6898,2.6727,2.6634,2.6634,2.6634,2.6634,2.8084,2.9652,3.0543,3.2365,3.4895,3.6774,3.6774,3.7501,3.8306,3.8695,3.9059,3.963,4.0565,4.0747,4.0929,4.1526,4.1292,4.1033,4.1033,4.1033,4.1188,4.1552,4.2097,4.2669,4.324,4.3474,4.3993,4.498,4.5214,4.5759,4.672,4.6954,4.7213,4.7603,4.8174,4.846,4.846,4.9031,4.9317,4.9317,4.9888,5.0356,5.0719,5.0719,5.0719,5.0719,5.0719,5.0823,5.1005,5.1005,5.1135,5.1291,5.1291,5.1291,5.1291,5.1291,5.1291,5.1239,5.0849,4.9781,4.8866,4.876,4.5269,4.0514,3.7776,3.4179,3.0534,2.7388,2.6766,2.6832,2.7122,2.7201,2.7254,2.7452,2.9826,3.1165,2.8171,2.9826,3.1165,2.8171,2.7584,2.765,2.765,2.7729,2.7795,2.7795,2.7795,2.7795,2.7795,2.7795,2.7795,2.7795,2.7795,2.7795,2.7795,2.7795,2.7755,2.765,2.765,2.7518,2.7215,2.7201,2.7069,2.6766,2.6766,2.6674,2.6463,2.6278,2.6199,2.6226,2.6226,2.6292,2.283,2.5426,2.8486,2.8603,3.1692,3.4823,3.4798,3.5475,3.6202,3.7345,3.7579,3.8098,3.9522,4.0098,4.0331,4.0903,4.1007,4.1007,4.1033,4.1033,4.1033,4.1033,4.1552,4.2123,4.2669,4.3214,4.3759,4.4357,4.4954,4.5551,4.6123,4.6694,4.7006,4.7032,4.7551,4.7837,4.7863,4.8434,4.872,4.872,4.9291,4.9577,4.9577,4.9577,4.9603,4.9603,4.9603,4.9914,5.0434,5.0434,5.0745,5.1239,5.1239,5.1239,5.1239,5.1239,5.0538,4.9603,4.9279,4.6844,4.3867,4.374,3.8337,3.1899,3.2228,2.9183,2.6081,2.6384,2.6463,2.6529,2.6819,2.6885,2.6898,2.6898,2.6898,2.6898,2.6898,2.6898,2.6898,2.6898,2.7135,2.7333,2.7333,2.7584,2.7781,2.7781,2.7781,2.7781,2.7781,2.7795,2.7795,2.7795,2.7795,2.7795,2.7795,2.7795,2.7663,2.7373,2.7346,2.7201,2.6898,2.6885,2.6753,2.6476,2.6463,2.6173,2.5593,2.5593,2.5619,2.5367,2.5367,2.5549,2.63,0.0,0.0,2.4675,2.8056,3.1021,3.0839,3.2719,3.4878,3.5605,3.6098,3.68,3.8098,3.8669,3.9528,4.0815,4.0704,4.0565,4.0981,4.1033,4.1033,4.1033,4.1552,4.1968,4.2123,4.2279,4.2591,4.3162,4.3734,4.4305,4.4902,4.5499,4.6019,4.6434,4.659,4.6876,4.7291,4.7447,4.7733,4.8122,4.872,4.8979,4.9005,4.9395,4.9603,4.9603,4.9603,4.9681,4.9836,4.9836,4.9914,5.007,5.007,5.007,5.007,5.007,4.9862,4.9279,4.6221,4.4699,4.3196,4.0583,3.6044,3.1472,3.1554,2.8829,2.5487,2.5777,2.5856,2.5962,2.6476,2.6608,2.6661,2.6859,2.6898,2.6898,2.6898,2.6898,2.6898,2.6898,2.6964,2.703,2.703,2.728,2.7478,2.7478,2.7478,2.7478,2.7478,2.7663,2.7795,2.7795,2.7795,2.7795,2.7795,2.7597,2.7439,2.736,2.7149,2.6898,2.6621,2.6608,2.6371,2.5856,2.5856,2.5672,2.5303,2.5303,2.5316,2.5329,2.5329,2.5382,2.3442,0.0,0.0,0.0,2.3283,2.6115,2.6692,2.8348,2.9938,3.0921,3.2277,3.3521,3.4096,3.6198,3.815,0.0,3.989,4.0305,4.0643,4.0877,4.1033,4.1033,4.1318,4.1526,4.1526,4.176,4.2019,4.2357,4.2902,4.3474,4.4045,4.4642,4.524,4.5837,4.6071,4.6356,4.6694,4.6928,4.7213,4.7551,4.8122,4.8382,4.8408,4.872,4.8876,4.8876,4.8876,4.9005,4.9239,4.9239,4.9395,4.9603,4.9603,4.9603,4.9525,4.9057,4.8876,4.8264,4.4361,4.1945,3.9882,3.6158,3.1978,2.8672,2.8823,2.7333,2.5224,2.5395,2.5434,2.5514,2.5856,2.6041,2.616,2.6318,2.645,2.6542,2.6542,2.6542,2.6542,2.6542,2.6648,2.6727,2.6727,2.6977,2.7122,2.7017,2.7096,2.7162,2.7162,2.732,2.7425,2.7425,2.7425,2.7425,2.7425,2.7267,2.7109,2.7004,2.6832,2.6542,2.6133,2.612,2.5909,2.5434,2.5434,2.5289,2.5013,2.5026,2.4755,2.4781,2.4794,2.3007,1.7341,1.5984,0.0,1.5904,1.8097,2.0916,0.0,0.0,2.3437,2.4959,2.7177,2.8485,2.8132,3.2263,3.589,3.6853,3.8432,3.9728,4.0176,4.0617,4.0955,4.0955,4.1007,4.1033,4.1033,4.15,4.1812,4.1812,4.2331,4.2851,4.337,4.3941,4.4487,4.5032,4.5603,4.5941,4.6019,4.6564,4.6902,4.6954,4.7473,4.7707,4.7707,4.7759,4.7811,4.7811,4.7863,4.8174,4.8642,4.859,4.8824,4.9213,4.9291,4.897,4.8469,4.7468,4.6823,4.5937,4.1807,3.8301,3.4848,3.1069,2.7597,2.4657,2.492,2.5026,2.5052,2.5078,2.5118,2.5158,2.5184,2.5382,2.5566,2.5566,2.5764,2.5949,2.5949,2.5975,2.6001,2.6001,2.6239,2.6437,2.6437,2.6674,2.6753,2.6437,2.6661,2.6859,2.6859,2.6885,2.6898,2.6898,2.6898,2.6898,2.6898,2.6845,2.67,2.6463,2.6384,2.6107,2.558,2.5527,2.5382,2.5105,2.5065,2.4907,2.4604,2.4351,2.3792,2.291,2.2946,1.8518,0.0,0.0,0.0,0.0,0.0,0.0,0.0,0.0,2.078,2.1742,2.2735,2.3022,2.2088,2.5165,2.8915,3.2149,3.3929,3.6012,3.9754,4.0279,4.0357,4.0357,4.0747,4.1033,4.1033,4.1137,4.1188,4.1188,4.1734,4.2097,4.2227,4.2773,4.311,4.324,4.3785,4.4305,4.4772,4.537,4.5915,4.6382,4.6486,4.6538,4.6538,4.7006,4.7213,4.7239,4.7681,4.7967,4.8019,4.7551,4.7188,4.6902,4.7369,4.5486,4.2472,4.1977,4.0192,3.7075,3.3076,3.1353,2.9929,2.6269,2.428,2.3707,2.3773,2.3958,2.4195,2.4406,2.4643,2.4881,2.5131,2.5237,2.5276,2.5276,2.5316,2.5369,2.5369,2.554,2.5685,2.5685,2.5936,2.6133,2.6133,2.6371,2.6397,2.5856,2.6226,2.6568,2.6568,2.6766,2.6898,2.6898,2.6898,2.6898,2.6898,2.6476,2.6199,2.6133,2.5698,2.5395,2.5276,2.5039,2.4775,2.4485,2.4261,2.401,2.4054,2.3773,2.078,1.4534,1.4534,1.0235,0.0,0.0,0.0,0.0,0.0,0.0,0.0,0.0,0.0,0.0,0.0,1.8945,0.0,0.0,2.5269,2.7877,3.1163,3.4133,3.6601,3.8917,4.0072,3.9786,4.0254,4.0617,4.0617,4.0877,4.1033,4.1033,4.1292,4.1604,4.189,4.2175,4.2435,4.2721,4.3006,4.3422,4.3993,4.4591,4.5188,4.5785,4.6071,4.6201,4.6201,4.6512,4.6616,4.6642,4.6928,4.7058,4.7032,4.6746,4.646,4.6201,4.4182,4.1875,3.9752,3.8317,3.6597,3.4502,3.063,2.9276,2.8581,2.4878,2.3444,2.3444,2.3444,2.3549,2.3694,2.3839,2.3984,2.4129,2.4287,2.4538,2.4749,2.4749,2.4973,2.5197,2.5197,2.5303,2.5395,2.5395,2.5514,2.5619,2.5619,2.5751,2.5751,2.5448,2.5777,2.6054,2.6054,2.6305,2.6371,2.6081,2.6054,2.6054,2.6054,2.5645,2.5527,2.5804,2.5434,2.5065,2.4762,2.4604,2.4248,2.3668,2.3549,2.3364,2.3088,1.9035,1.3244,0.6037,0.6211,0.391,0.0,0.0,0.0,0.0,0.0,0.0,0.0,0.0,0.0,0.0,0.0,0.0,0.0,0.0,0.0,2.3933,2.8402,3.2057,3.3218,3.6527,3.8924,3.9033,3.9604,4.002,4.002,4.0435,4.0747,4.0877,4.0877,4.1111,4.1708,4.1734,4.1942,4.2383,4.2513,4.2799,4.324,4.3811,4.4357,4.485,4.5422,0.0,4.5707,4.5941,4.6045,4.6045,4.6149,4.6201,4.6201,4.6097,4.6045,4.5665,4.0413,3.8211,3.7383,3.4486,3.2909,3.2036,2.8662,2.764,2.7328,2.4229,2.3114,2.3114,2.3114,2.3153,0.0,2.3259,2.3325,2.3378,2.343,2.3786,2.4142,2.4142,2.4498,2.4854,2.4854,2.4947,2.5026,2.5026,2.5118,2.5197,2.5197,2.5105,2.4999,2.4947,2.5276,2.5527,2.5527,2.5777,2.5804,2.5408,2.5355,2.5342,2.5276,2.4947,2.4947,2.5408,2.5131,2.4643,2.3997,2.3813,2.3391,2.2411,2.2613,2.256,2.2229,1.4291,0.6996,0.0,0.0,0.0,0.0,0.0,0.0,0.0,0.0,0.0,0.0,0.0,0.0,0.0,0.0,0.0,0.0,0.0,0.0,0.0,2.3933,2.8343,3.257,3.3613,3.4799,3.756,3.8773,3.9422,3.9422,3.9474,3.9734,4.0254,4.0279,4.0539,4.1111,4.1137,0.0,0.0,0.0,4.2019,4.2097,4.2643,4.2954,4.3032,4.3604,4.3863,4.3915,4.4954,4.5448,4.5473,4.5993,4.6201,4.6175,4.5655,4.5448,4.4723,3.6676,3.3461,3.2894,2.9265,2.6127,2.3226,2.2659,0.0,0.0,2.2172,2.1901,2.1901,2.1901,2.2085,2.2349,2.2613,2.2863,2.3101,2.3378,2.3496,2.3549,2.3549,2.3589,2.3641,2.3641,2.4037,2.4406,2.4406,2.4828,2.5197,2.5197,2.4749,2.4314,2.4076,2.4722,2.5237,2.5237,2.5487,2.5738,2.5936,2.5949,0.0,2.558,2.5052,2.4775,2.4841,2.434,2.3654,2.2811,2.2033,2.1317,2.0986,2.0718,2.0875,2.0929,1.4045,0.7008,0.0,0.0,0.0,0.0,0.0,0.0,0.0,0.0,0.0,0.0,0.0,0.0,0.0,0.0,0.0,0.0,0.0,0.0,0.0,1.9823,2.2947,2.4863,2.8786,3.2005,3.3853,3.6245,3.7838,3.7838,3.8436,3.8929,3.9189,3.95,3.9942,4.0513,4.0539,4.0695,4.1033,4.1266,4.1552,4.189,4.2123,4.2409,4.2747,4.298,4.3084,4.311,4.3604,4.3837,4.3837,4.4097,4.4175,4.4175,4.1753,4.0862,4.0213,0.0,0.0,0.0,0.0,2.4441,2.1677,2.1505,2.1558,2.1703,2.1703,2.1703,2.1703,2.1703,2.1782,2.1914,2.2033,2.2151,2.227,2.2402,2.2692,2.2942,2.2942,2.3206,2.3444,2.3444,2.3628,2.38,2.38,2.401,0.0,2.3945,2.3852,2.3826,2.3879,2.434,2.4736,2.4907,2.5184,2.5276,2.5052,2.5039,2.4986,2.4854,2.4485,0.0,0.0,0.0,2.3892,2.3364,2.2824,0.0,0.0,0.0,1.2644,2.0659,0.9873,0.0,0.0,0.0,0.0,0.0,0.0,0.0,0.0,0.0,0.0,0.0,0.0,0.0,0.0,0.0,0.0,0.0,0.0,0.0,0.0,1.7378,2.0048,2.0048,2.4188,2.8015,3.0026,3.3096,3.4838,3.4536,3.5644,3.6224,3.5667,3.6074,3.6944,3.8465,3.8642,3.9452,4.0773,4.0799,4.1085,4.1656,4.1656,4.1864,4.2279,4.2435,4.2513,4.2513,4.2669,4.2747,4.2747,4.1695,4.1413,4.1156,3.7728,3.6408,3.5823,3.0848,2.7415,2.5234,2.4818,2.3297,2.1321,2.1202,2.1294,2.1453,2.136,2.1347,2.1321,2.1255,2.1281,2.136,2.1439,2.1518,2.1598,2.1677,2.2019,2.2349,2.2349,2.2666,2.2969,2.2969,2.3035,2.3088,2.3088,2.3022,2.2903,2.2679,2.2956,2.3259,2.3391,2.3852,2.4261,2.4485,2.4841,2.4933,2.4577,2.4551,2.4512,2.4432,2.409,2.4103,2.4591,2.4195,2.3892,2.3773,2.318,2.1834,1.9797,0.9293,0.9199,0.0,0.0,0.0,0.0,0.0,0.0,0.0,0.0,0.0,0.0,0.0,0.0,0.0,0.0,0.0,0.0,0.0,0.0,0.0,0.0,0.0,0.0,0.0,0.0,2.1781,2.0504,2.1768,2.7245,2.9359,3.0093,2.9075,3.0348,3.0385,2.8443,2.8835,3.0684,3.4237,3.4723,3.667,4.0202,4.0228,4.0487,4.1059,4.1059,4.1059,4.1085,4.1656,4.1916,4.1942,4.2487,4.2747,4.249,3.9303,3.7987,3.7728,3.4324,3.2755,3.2132,2.4146,2.093,2.0717,2.101,2.0675,2.0477,2.0754,2.0859,2.082,2.053,2.0437,2.0385,2.0121,2.0226,2.049,2.078,2.107,2.136,2.1624,2.1716,2.1729,2.1729,2.1743,2.1756,2.1756,2.198,2.2178,2.2178,2.1954,2.1756,2.1743,2.223,2.2521,2.2244,2.3167,0.0,2.3918,2.4406,2.4868,2.5131,2.5171,2.5052,2.4749,2.4221,2.401,2.4301,2.3509,2.3167,2.3444,2.2099,2.1057,2.045,1.5647,1.5351,1.8978,0.0,0.0,0.0,0.0,0.0,0.0,0.0,0.0,0.0,0.0,0.0,0.0,0.0,0.0,0.0,0.0,0.0,0.0,0.0,0.0,0.0,0.0,0.0,0.0,1.7491,1.9622,2.1749,2.4341,2.5517,2.5059,2.6008,2.6475,2.5912,2.6917,2.8386,2.9981,3.0494,3.1596,3.3018,3.5525,3.6766,3.6935,3.9287,4.0461,4.0487,4.1059,4.1318,4.1318,4.1526,4.0329,3.8274,3.6992,3.5201,3.2895,2.9574,2.675,2.4014,2.1116,1.991,1.9831,1.9936,1.991,1.987,2.0174,2.0266,2.0226,1.9923,1.9686,1.9514,1.9422,1.9593,1.9844,1.9949,2.0319,2.0714,2.0806,2.1123,2.1426,2.1426,2.1558,2.1703,2.1703,2.1782,2.1848,2.1848,2.1294,2.0648,2.0068,2.1097,2.1769,2.1083,2.2151,2.3233,2.3813,2.4063,2.4287,2.4577,2.4604,2.4564,2.4459,2.4274,2.4129,2.4037,2.3747,2.3378,2.289,2.2402,2.1795,2.1044,1.9425,1.9075,2.0247,0.0,0.0,0.0,0.0,0.0,0.0,0.0,0.0,0.0,0.0,0.0,0.0,0.0,0.0,0.0,0.0,0.0,0.0,0.0,0.0,0.0,0.0,0.0,0.0,0.0,0.0,1.8073,2.0494,0.0,2.0492,2.165,2.1992,2.0757,2.191,2.3458,2.5058,2.5799,2.7104,2.899,3.1147,3.2489,3.2996,3.5263,3.6503,3.6694,3.8025,3.8173,3.7197,3.8173,3.7024,3.3934,3.2545,3.0808,2.8675,2.5174,2.1921,1.9343,1.9145,1.8881,1.8631,1.8842,1.8908,1.8974,1.9382,1.958,1.962,1.9316,1.875,1.8143,1.8051,1.8077,1.8222,1.8525,1.9592,2.0213,2.0015,2.0516,2.0965,2.0965,2.1189,2.1387,2.1387,2.1228,2.1057,2.0951,2.0477,1.9738,1.867,1.958,2.0319,1.9857,2.1389,2.2973,2.3404,2.3668,2.3879,2.4261,2.4116,2.4037,2.4142,2.4063,2.3918,2.3747,2.3536,2.318,2.2613,2.2283,2.1624,2.0569,2.0605,2.0124,0.0,0.0,0.0,0.0,0.0,0.0,0.0,0.0,0.0,0.0,0.0,0.0,0.0,0.0,0.0,0.0,0.0,0.0,0.0,0.0,0.0,0.0,0.0,0.0,0.0,0.0,0.0,1.6403,1.8018,0.0,0.0,0.0,0.0,1.3241,1.4016,1.6188,1.9813,2.0713,2.3061,2.7302,2.7601,2.8245,2.9065,2.9359,2.9599,3.0018,3.3173,3.2956,3.0078,3.3217,3.2978,2.994,2.6681,2.5013,2.473,2.0846,1.8881,1.8103,1.8038,1.7497,1.6824,1.7405,1.7834,1.7927,1.8354,1.8736,1.8908,1.8604,1.7563,1.6363,1.6007,1.6133,0.0,0.0,1.8293,1.9956,1.9646,1.9831,2.0292,2.0345,2.0582,2.0793,2.0793,2.0358,1.9844,1.9462,1.9356,1.8868,1.7391,0.0,1.772,1.8205,2.1044,2.3031,2.2946,2.3206,2.3628,2.4195,2.3773,2.3562,2.3839,2.3615,2.343,2.3404,2.289,2.256,2.2521,2.165,2.049,1.9066,2.0052,0.0,0.0,0.0,0.0,0.0,0.0,0.0,0.0,0.0,0.0,0.0,0.0,0.0,0.0,0.0,0.0,0.0,0.0,0.0,0.0,0.0,0.0,0.0,0.0,0.0,0.0,1.2028,1.1998,1.3272,1.3416,1.3083,0.0,0.0,0.0,0.0,0.0,0.0,1.5744,1.6145,1.7083,1.865,2.1386,2.3324,2.3983,2.6814,2.855,2.8672,2.9992,3.0071,2.9393,3.0442,2.9223,2.6001,2.5237,2.3516,2.0818,1.8389,1.6877,1.6205,1.5335,1.4559,1.4272,1.5005,1.5808,1.6599,1.7051,1.7088,1.7035,1.631,1.5822,1.5457,1.4626,0.0,0.0,0.0,0.0,1.8265,1.9032,1.8957,1.8947,1.9607,1.9989,2.02,2.02,1.991,1.9171,1.7576,1.6917,1.602,1.4135,1.4099,0.0,1.2781,1.7903,2.2194,2.2862,2.2942,2.3022,2.3602,2.3536,2.3483,2.3549,2.3496,2.3259,2.2837,2.2666,2.2296,2.1637,2.0345,1.991,2.0262,0.0,0.0,0.0,0.0,0.0,0.0,0.0,0.0,0.0,0.0,0.0,0.0,0.0,0.0,0.0,0.0,0.0,0.0,0.0,0.0,0.0,0.0,0.0,0.0,0.0,0.0,0.0,1.0433,1.1049,1.1537,1.1213,1.0732,0.0,0.0,0.0,0.0,0.0,0.0,0.0,0.0,0.0,1.4806,1.7045,1.825,1.833,2.1132,2.259,2.2764,2.4982,2.5219,2.3898,2.5456,2.4626,2.1739,2.1784,2.0371,1.7721,1.6442,1.5282,1.4214,0.0,0.0,0.0,0.0,1.3388,1.5607,1.573,1.6033,1.6401,1.5575,0.0,0.0,0.0,0.0,0.0,0.0,0.0,1.8095,1.8292,1.8308,1.8484,1.8861,1.9106,1.9382,1.9251,1.8114,1.6565,1.5592,1.4998,1.4106,1.1663,1.1296,0.0,0.0,0.0,1.8301,2.2463,2.2631,2.2666,2.3378,2.3219,2.3114,2.3233,2.3022,2.2731,2.2415,2.2033,2.1373,2.0358,1.904,1.7957,0.0,0.0,0.0,0.0,0.0,0.0,0.0,0.0,0.0,0.0,0.0,0.0,0.0,0.0,0.0,0.0,0.0,0.0,0.0,0.0,0.0,0.0,0.0,0.0,0.0,0.0,0.0,0.0,0.0,1.0674,1.0561,0.0,0.0,0.0,0.0,0.0,0.0,0.0,0.0,0.0,0.0,0.0,0.0,0.0,1.3979,1.3709,1.4817,1.5524,1.6025,1.9251,1.9539,1.6917,1.9615,1.9816,1.7866,1.7339,0.0,1.5361,1.4873,0.0,0.0,0.0,0.0,0.0,0.0,0.0,0.0,0.0,0.0,0.0,0.0,0.0,0.0,0.0,0.0,0.0,0.0,0.0,0.0,0.0,0.0,1.8032,1.7659,1.8007,1.8103,1.7687,1.5376,1.3333,1.2645,1.2561,1.1801,0.0,0.0,0.0,0.0,0.0,0.0,2.1503,2.2361,2.2389,2.3193,2.2863,2.2666,2.2863,2.2428,2.2112,2.2033,2.107,2.0029,1.896,1.7668,0.0,0.0,0.0,0.0,0.0,0.0,0.0,0.0,0.0,0.0,0.0,0.0,0.0,0.0,0.0,0.0,0.0,0.0,0.0,0.0,0.0,0.0,0.0,0.0,0.0,0.0,0.0,0.0,0.0,0.0,0.0,0.0,0.0,0.0,0.0,0.0,0.0,0.0,0.0,0.0,0.0,0.0,0.0,0.0,0.0,0.0,0.0,0.0,0.0,0.0,1.4885,1.4782,1.4491,1.5288,1.5862,1.5981,1.424,1.3752,1.4069,1.2566,0.0,0.0,0.0,0.0,0.0,0.0,0.0,0.0,0.0,0.0,0.0,0.0,0.0,0.0,0.0,0.0,0.0,0.0,0.0,0.0,0.0,0.0,1.6058,1.601,1.5985,1.5493,1.3741,0.0,0.0,0.0,0.0,0.0,0.0,0.0,0.0,0.0,0.0,0.0,2.083,2.191,2.1927,2.2323,2.2494,2.2507,2.231,2.2204,2.194,2.1466,1.9712,1.8486,0.0,0.0,0.0,0.0,0.0,0.0,0.0,0.0,0.0,0.0,0.0,0.0,0.0,0.0,0.0,0.0,0.0,0.0,0.0,0.0,0.0,0.0,0.0,0.0,0.0,0.0,0.0,0.0,0.0,0.0,0.0,0.0,0.0,0.0,0.0,0.0,0.0,0.0,0.0,0.0,0.0,0.0,0.0,0.0,0.0,0.0,0.0,0.0,0.0,0.0,0.0,0.0,0.0,0.0,0.0,0.0,0.0,0.0,1.2539,1.1695,0.0,0.0,0.0,0.0,0.0,0.0,0.0,0.0,0.0,0.0,0.0,0.0,0.0,0.0,0.0,0.0,0.0,0.0,0.0,0.0,0.0,0.0,0.0,0.0,0.0,0.0,0.0,0.0,0.0,0.0,0.0,0.0,0.0,0.0,0.0,0.0,0.0,0.0,0.0,0.0,2.0744,2.1589,2.1598,2.1888,2.2046,2.2072,2.1927,2.1782,2.1189,2.0002,1.9538,0.0,0.0,0.0,0.0,0.0,0.0,0.0,0.0,0.0,0.0,0.0,0.0,0.0,0.0,0.0,0.0,0.0,0.0,0.0,0.0,0.0,0.0,0.0,0.0,0.0,0.0,0.0,0.0,0.0,0.0,0.0,0.0,0.0,0.0,0.0,0.0,0.0,0.0,0.0,0.0,0.0,0.0,0.0,0.0,0.0,0.0,0.0,0.0,0.0,0.0,0.0,0.0,0.0,0.0,0.0,0.0,0.0,0.0,0.0,1.0997,0.9981,0.0,0.0,0.0,0.0,0.0,0.0,0.0,0.0,0.0,0.0,0.0,0.0,0.0,0.0,0.0,0.0,0.0,0.0,0.0,0.0,0.0,0.0,0.0,0.0,0.0,0.0,0.0,0.0,0.0,0.0,0.0,0.0,0.0,0.0,0.0,0.0,0.0,0.0,0.0,0.0,2.0699,2.1443,2.1373,2.1584,2.1663,2.1677,2.1611,2.1413,2.049,1.8604,1.8578,0.0,0.0,0.0,0.0,0.0,0.0,0.0,0.0,0.0,0.0,0.0,0.0,0.0,0.0,0.0,0.0,0.0,0.0,0.0,0.0,0.0,0.0,0.0,0.0,0.0,0.0,0.0,0.0,0.0,0.0,0.0,0.0,0.0,0.0,0.0,0.0,0.0,0.0,0.0,0.0,0.0,0.0,0.0,0.0,0.0,0.0,0.0,0.0,0.0,0.0,0.0,0.0,0.0,0.0,0.0,0.0,0.0,0.0,0.0,0.0,0.0,0.0,0.0,0.0,0.0,0.0,0.0,0.0,0.0,0.0,0.0,0.0,0.0,0.0,0.0,0.0,0.0,0.0,0.0,0.0,0.0,0.0,0.0,0.0,0.0,0.0,0.0,0.0,0.0,0.0,0.0,0.0,0.0,0.0,0.0,0.0,0.0,0.0,0.0,0.0,0.0,2.0828,2.1196,2.1334,2.1321,2.1545,2.1598,2.1347,2.1294,2.0305,1.8011,0.0,0.0,0.0,0.0,0.0,0.0,0.0,0.0,0.0,0.0,0.0,0.0,0.0,0.0,0.0,0.0,0.0,0.0,0.0,0.0,0.0,0.0,0.0,0.0,0.0,0.0,0.0,0.0,0.0,0.0,0.0,0.0,0.0,0.0,0.0,0.0,0.0,0.0,0.0,0.0,0.0,0.0,0.0,0.0,0.0,0.0,0.0,0.0,0.0,0.0,0.0,0.0,0.0,0.0,0.0,0.0,0.0,0.0,0.0,0.0,0.0,0.0,0.0,0.0,0.0,0.0,0.0,0.0,0.0,0.0,0.0,0.0,0.0,0.0,0.0,0.0,0.0,0.0,0.0,0.0,0.0,0.0,0.0,0.0,0.0,0.0,0.0,0.0,0.0,0.0,0.0,0.0,0.0,0.0,0.0,0.0,0.0,0.0,0.0,0.0,0.0,0.0,1.5108,1.8298,2.1131,2.1004,2.111,2.1136,2.1031,2.0846,1.9527,1.6666,0.0,0.0,0.0,0.0,0.0,0.0,0.0,0.0,0.0,0.0,0.0,0.0,0.0,0.0,0.0,0.0,0.0,0.0,0.0,0.0,0.0,0.0,0.0,0.0,0.0,0.0,0.0,0.0,0.0,0.0,0.0,0.0,0.0,0.0,0.0,0.0,0.0,0.0,0.0,0.0,0.0,0.0,0.0,0.0,0.0,0.0,0.0,0.0,0.0,0.0,0.0,0.0,0.0,0.0,0.0,0.0,0.0,0.0,0.0,0.0,0.0,0.0,0.0,0.0,0.0,0.0,0.0,0.0,0.0,0.0,0.0,0.0,0.0,0.0,0.0,0.0,0.0,0.0,0.0,0.0,0.0,0.0,0.0,0.0,0.0,0.0,0.0,0.0,0.0,0.0,0.0,0.0,0.0,0.0,0.0,0.0,0.0,0.0,0.0,0.0,0.0,0.0,1.0916,1.657,2.0837,2.082,2.0833,2.0833,2.0833,2.0569,1.8987,1.5704,0.0,0.0,0.0,0.0,0.0,0.0,0.0,0.0,0.0,0.0,0.0,0.0,0.0,0.0,0.0,0.0,0.0,0.0,0.0,0.0,0.0,0.0,0.0,0.0,0.0,0.0,0.0,0.0,0.0,0.0,0.0,0.0,0.0,0.0,0.0,0.0,0.0,0.0,0.0,0.0,0.0,0.0,0.0,0.0,0.0,0.0,0.0,0.0,0.0,0.0,0.0,0.0,0.0,0.0,0.0,0.0,0.0,0.0,0.0,0.0,0.0,0.0,0.0,0.0,0.0,0.0,0.0,0.0,0.0,0.0,0.0,0.0,0.0,0.0,0.0,0.0,0.0,0.0,0.0,0.0,0.0,0.0,0.0,0.0,0.0,0.0,0.0,0.0,0.0,0.0,0.0,0.0,0.0,0.0,0.0,0.0,0.0,0.0,0.0,0.0,0.0,0.0,0.9586,1.6499,2.089,2.082,2.0833,2.0833,2.0833,2.0569,1.8908,0.0,0.0,0.0,0.0,0.0,0.0,0.0,0.0,0.0,0.0,0.0,0.0,0.0,0.0,0.0,0.0,0.0,0.0,0.0,0.0,0.0,0.0,0.0,0.0,0.0,0.0,0.0,0.0,0.0,0.0,0.0,0.0,0.0,0.0,0.0,0.0,0.0,0.0,0.0,0.0,0.0,0.0,0.0,0.0,0.0,0.0,0.0,0.0,0.0,0.0,0.0,0.0,0.0,0.0,0.0,0.0,0.0,0.0,0.0,0.0,0.0,0.0,0.0,0.0,0.0,0.0,0.0,0.0,0.0,0.0,0.0,0.0,0.0,0.0,0.0,0.0,0.0,0.0,0.0,0.0,0.0,0.0,0.0,0.0,0.0,0.0,0.0,0.0,0.0,0.0,0.0,0.0,0.0,0.0,0.0,0.0,0.0,0.0,0.0,0.0,0.0,0.0,0.0,0.9679,1.6593,2.0776,2.0714,2.0833,2.0833,2.0833,2.0398,1.8789,1.5677,0.0,0.0,0.0,0.0,0.0,0.0,0.0,0.0,0.0,0.0,0.0,0.0,0.0,0.0,0.0,0.0,0.0,0.0,0.0,0.0,0.0,0.0,0.0,0.0,0.0,0.0,0.0,0.0,0.0,0.0,0.0,0.0,0.0,0.0,0.0,0.0,0.0,0.0,0.0,0.0,0.0,0.0,0.0,0.0,0.0,0.0,0.0,0.0,0.0,0.0,0.0,0.0,0.0,0.0,0.0,0.0,0.0,0.0,0.0,0.0,0.0,0.0,0.0,0.0,0.0,0.0,0.0,0.0,0.0,0.0,0.0,0.0,0.0,0.0,0.0,0.0,0.0,0.0,0.0,0.0,0.0,0.0,0.0,0.0,0.0,0.0,0.0,0.0,0.0,0.0,0.0,0.0,0.0,0.0,0.0,0.0,0.0,0.0,0.0,0.0,0.0,0.0,0.0,1.6568,2.0805,2.0543,2.0767,2.0793,2.0675,2.0147,1.8565,1.5651,0.0,0.0,0.0,0.0,0.0,0.0,0.0,0.0,0.0,0.0,0.0,0.0,0.0,0.0,0.0,0.0,0.0,0.0,0.0,0.0,0.0,0.0,0.0,0.0,0.0,0.0,0.0,0.0,0.0,0.0,0.0,0.0,0.0,0.0,0.0,0.0,0.0,0.0,0.0,0.0,0.0,0.0,0.0,0.0,0.0,0.0,0.0,0.0,0.0,0.0,0.0,0.0,0.0,0.0,0.0,0.0,0.0,0.0,0.0,0.0,0.0,0.0,0.0,0.0,0.0,0.0,0.0,0.0,0.0,0.0,0.0,0.0,0.0,0.0,0.0,0.0,0.0,0.0,0.0,0.0,0.0,0.0,0.0,0.0,0.0,0.0,0.0,0.0,0.0,0.0,0.0,0.0,0.0,0.0,0.0,0.0,0.0,0.0,0.0,0.0,0.0,0.0,0.0,1.6758,2.0728,2.0583,2.0622,2.0675,2.0411,1.9844,1.8262,1.5361,1.4323,0.0,0.0,0.0,0.0,0.0,0.0,0.0,0.0,0.0,0.0,0.0,0.0,0.0,0.0,0.0,0.0,0.0,0.0,0.0,0.0,0.0,0.0,0.0,0.0,0.0,0.0,0.0,0.0,0.0,0.0,0.0,0.0,0.0,0.0,0.0,0.0,0.0,0.0,0.0,0.0,0.0,0.0,0.0,0.0,0.0,0.0,0.0,0.0,0.0,0.0,0.0,0.0,0.0,0.0,0.0,0.0,0.0,0.0,0.0,0.0,0.0,0.0,0.0,0.0,0.0,0.0,0.0,0.0,0.0,0.0,0.0,0.0,0.0,0.0,0.0,0.0,0.0,0.0,0.0,0.0,0.0,0.0,0.0,0.0,0.0,0.0,0.0,0.0,0.0,0.0,0.0,0.0,0.0,0.0,0.0,0.0,0.0,0.0,0.0,0.0,0.0,0.0,1.9539,2.0255,2.0754,2.0292,2.0239,2.0385,1.9659,1.8051,1.5361,1.4323,0.0,0.0,0.0,0.0,0.0,0.0,0.0,0.0,0.0,0.0,0.0,0.0,0.0,0.0,0.0,0.0,0.0,0.0,0.0,0.0,0.0,0.0,0.0,0.0,0.0,0.0,0.0,0.0,0.0,0.0,0.0,0.0,0.0,0.0,0.0,0.0,0.0,0.0,0.0,0.0,0.0,0.0,0.0,0.0,0.0,0.0,0.0,0.0,0.0,0.0,0.0,0.0,0.0,0.0,0.0,0.0,0.0,0.0,0.0,0.0,0.0,0.0,0.0,0.0,0.0,0.0,0.0,0.0,0.0,0.0,0.0,0.0,0.0,0.0,0.0,0.0,0.0,0.0,0.0,0.0,0.0,0.0,0.0,0.0,0.0,0.0,0.0,0.0,0.0,0.0,0.0,0.0,0.0,0.0,0.0,0.0,0.0,0.0,0.0,0.0,0.0,0.0,1.9729,1.9828,2.0279,2.0183,1.9936,1.9804,1.9119,1.7576,1.4952,1.3922,0.0,0.0,0.0,0.0,0.0,0.0,0.0,0.0,0.0,0.0,0.0,0.0,0.0,0.0,0.0,0.0,0.0,0.0,0.0,0.0,0.0,0.0,0.0,0.0,0.0,0.0,0.0,0.0,0.0,0.0,0.0,0.0,0.0,0.0,0.0,0.0,0.0,0.0,0.0,0.0,0.0,0.0,0.0,0.0,0.0,0.0,0.0,0.0,0.0,0.0,0.0,0.0,0.0,0.0,0.0,0.0,0.0,0.0,0.0,0.0,0.0,0.0,0.0,0.0,0.0,0.0,0.0,0.0,0.0,0.0,0.0,0.0,0.0,0.0,0.0,0.0,0.0,0.0,0.0,0.0,0.0,0.0,0.0,0.0,0.0,0.0,0.0,0.0,0.0,0.0,0.0,0.0,0.0,0.0,0.0,0.0,0.0,0.0,0.0,0.0,0.0,0.0,0.0,1.9216,1.9432,1.9862,1.9646,1.9132,1.8525,1.7049,1.4425,0.0,0.0,0.0,0.0,0.0,0.0,0.0,0.0,0.0,0.0,0.0,0.0,0.0,0.0,0.0,0.0,0.0,0.0,0.0,0.0,0.0,0.0,0.0,0.0,0.0,0.0,0.0,0.0,0.0,0.0,0.0,0.0,0.0,0.0,0.0,0.0,0.0,0.0,0.0,0.0,0.0,0.0,0.0,0.0,0.0,0.0,0.0,0.0,0.0,0.0,0.0,0.0,0.0,0.0,0.0,0.0,0.0,0.0,0.0,0.0,0.0,0.0,0.0,0.0,0.0,0.0,0.0,0.0,0.0,0.0,0.0,0.0,0.0,0.0,0.0,0.0,0.0,0.0,0.0,0.0,0.0,0.0,0.0,0.0,0.0,0.0,0.0,0.0,0.0,0.0,0.0,0.0,0.0,0.0,0.0,0.0,0.0,0.0,0.0,0.0,0.0,0.0,0.0,0.0,1.9079,1.905,1.925,1.9237,1.9106,1.8341,1.6745,1.4108,0.0,0.0,0.0,0.0,0.0,0.0,0.0,0.0,0.0,0.0,0.0,0.0,0.0,0.0]}]]]